[[{"header":{"parameterUnit":"m.s-1","parameterCategory":1,"la1":31.0,"la2":29.5877,"lo1":-88.7671,"lo2":-86.6584,"dy":0.0162,"dx":0.0185,"nx":115,"ny":88,"refTime":"2024-03-10T18:00:00:Z","depth":0,"parameterNumber":2,"parameterNumberName":"U-component_of_WINDS"},"data":[0.0,0.0,0.0,0.0,0.0,0.0,0.0,0.0,0.0,0.0,0.0,0.0,0.0,0.0,0.0,0.0,0.0,0.0,0.0,0.0,0.0,0.0,0.0,0.0,0.0,0.0,0.0,0.0,0.0,0.0,0.0,0.0,0.0,0.0,0.0,0.0,0.0,0.0,0.0,0.0,0.0,0.0,0.0,0.0,0.0,0.0,0.0,0.0,0.0,0.0,0.0,0.0,0.0,0.0,0.0,0.0,0.0,0.0,0.0,0.0,0.0,0.0,0.0,0.0,0.0,0.0,0.0,0.0,0.0,0.0,0.0,0.0,0.0,0.0,0.0,0.0,0.0,0.0,0.0,0.0,0.0,0.0,0.0,0.0,0.0,0.0,0.0,0.0,0.0,0.0,0.0,0.0,0.0,0.0,0.0,0.0,0.0,0.0,0.0,0.0,0.0,0.0,0.0,0.0,0.0,0.0,0.0,0.0,0.0,0.0,0.0,0.0,0.0,0.0,0.0,0.0,0.0,0.0,0.0,0.0,0.0,0.0,0.0,0.0,0.0,0.0,0.0,0.0,0.0,0.0,0.0,0.0,0.0,0.0,0.0,0.0,0.0,0.0,0.0,0.0,0.0,0.0,0.0,0.0,0.0,0.0,0.0,0.0,0.0,0.0,0.0,0.0,0.0,0.0,0.0,0.0,0.0,0.0,0.0,0.0,0.0,0.0,0.0,0.0,0.0,0.0,0.0,0.0,0.0,0.0,0.0,0.0,0.0,0.0,0.0,0.0,0.0,0.0,0.0,0.0,0.0,0.0,0.0,0.0,0.0,0.0,0.0,0.0,0.0,0.0,0.0,0.0,0.0,0.0,0.0,0.0,0.0,0.0,0.0,0.0,0.0,0.0,0.0,0.0,0.0,0.0,0.0,0.0,0.0,0.0,0.0,0.0,0.0,0.0,0.0,0.0,0.0,0.0,0.0,0.0,0.0,0.0,0.0,0.0,0.0,0.0,0.0,0.0,0.0,0.0,0.0,0.0,0.0,0.0,0.0,0.0,0.0,0.0,0.0,0.0,0.0,0.0,0.0,0.0,0.0,0.0,0.0,0.0,0.0,0.0,0.0,0.0,0.0,0.0,0.0,0.0,0.0,0.0,0.0,0.0,0.0,0.0,0.0,0.0,0.0,0.0,0.0,0.0,0.0,0.0,0.0,0.0,0.0,0.0,0.0,0.0,0.0,0.0,0.0,0.0,0.0,0.0,0.0,0.0,0.0,0.0,0.0,0.0,0.0,0.0,0.0,0.0,0.0,0.0,0.0,0.0,0.0,0.0,0.0,0.0,0.0,0.0,0.0,0.0,0.0,0.0,0.0,0.0,0.0,0.0,0.0,0.0,0.0,0.0,0.0,0.0,0.0,0.0,0.0,0.0,0.0,0.0,0.0,0.0,0.0,0.0,0.0,0.0,0.0,0.0,0.0,0.0,0.0,0.0,0.0,0.0,0.0,0.0,0.0,0.0,0.0,0.0,0.0,0.0,0.0,0.0,0.0,0.0,0.0,0.0,0.0,0.0,0.0,0.0,0.0,0.0,0.0,0.0,0.0,0.0,0.0,0.0,0.0,0.0,0.0,0.0,0.0,0.0,0.0,0.0,0.0,0.0,0.0,0.0,0.0,0.0,0.0,0.0,0.0,0.0,0.0,0.0,0.0,0.0,0.0,0.0,0.0,0.0,0.0,0.0,0.0,0.0,0.0,0.0,0.0,0.0,0.0,0.0,0.0,0.0,0.0,0.0,0.0,0.0,0.0,0.0,0.0,0.0,0.0,0.0,0.0,0.0,0.0,0.0,0.0,0.0,0.0,0.0,0.0,0.0,0.0,0.0,0.0,0.0,0.0,0.0,0.0,0.0,0.0,0.0,0.0,0.0,0.0,0.0,0.0,0.0,0.0,0.0,0.0,0.0,0.0,0.0,0.0,0.0,0.0,0.0,0.0,0.0,0.0,0.0,0.0,0.0,0.0,0.0,0.0,0.0,0.0,0.0,0.0,0.0,0.0,0.0,0.0,0.0,0.0,0.0,0.0,0.0,0.0,0.0,0.0,0.0,0.0,0.0,0.0,0.0,0.0,0.0,0.0,0.0,0.0,0.0,0.0,0.0,0.0,0.0,0.0,0.0,0.0,0.0,0.0,0.0,0.0,0.0,0.0,0.0,0.0,0.0,0.0,0.0,0.0,0.0,0.0,0.0,0.0,0.0,0.0,0.0,0.0,0.0,0.0,0.0,0.0,0.0,0.0,0.0,0.0,0.0,0.0,0.0,0.0,0.0,0.0,0.0,0.0,0.0,0.0,0.0,0.0,0.0,0.0,0.0,0.0,0.0,0.0,0.0,0.0,0.0,0.0,0.0,0.0,0.0,0.0,0.0,0.0,0.0,0.0,0.0,0.0,0.0,0.0,0.0,0.0,0.0,0.0,0.0,0.0,0.0,0.0,0.0,0.0,0.0,0.0,0.0,0.0,0.0,0.0,0.0,0.0,0.0,0.0,0.0,0.0,0.0,0.0,0.0,0.0,0.0,0.0,0.0,0.0,0.0,0.0,0.0,0.0,0.0,0.0,0.0,0.0,0.0,0.0,0.0,0.0,0.0,0.0,0.0,0.0,0.0,0.0,0.0,0.0,0.0,0.0,0.0,0.0,0.0,0.0,0.0,0.0,0.0,0.0,0.0,0.0,0.0,0.0,0.0,0.0,0.0,0.0,0.0,0.0,0.0,0.0,0.0,0.0,0.0,0.0,0.0,0.0,0.0,0.0,0.0,0.0,0.0,0.0,0.0,0.0,0.0,0.0,0.0,0.0,0.0,0.0,0.0,0.0,0.0,0.0,0.0,0.0,0.0,0.0,0.0,0.0,0.0,0.0,0.0,0.0,0.0,0.0,0.0,0.0,0.0,0.0,0.0,0.0,0.0,0.0,0.0,0.0,0.0,0.0,0.0,0.0,0.0,0.0,0.0,0.0,0.0,0.0,0.0,0.0,0.0,0.0,0.0,0.0,0.0,0.0,0.0,0.0,0.0,0.0,0.0,0.0,0.0,0.0,0.0,0.0,0.0,0.0,0.0,0.0,0.0,0.0,0.0,0.0,0.0,0.0,0.0,0.0,0.0,0.0,0.0,0.0,0.0,0.0,0.0,0.0,0.0,0.0,0.0,0.0,0.0,0.0,0.0,0.0,0.0,0.0,0.0,0.0,0.0,0.0,0.0,0.0,0.0,0.0,0.0,0.0,0.0,0.0,0.0,0.0,0.0,0.0,0.0,0.0,0.0,0.0,0.0,0.0,0.0,0.0,0.0,0.0,0.0,0.0,0.0,0.0,0.0,0.0,0.0,0.0,0.0,0.0,0.0,0.0,0.0,0.0,0.0,0.0,0.0,0.0,0.0,0.0,0.0,0.0,0.0,0.0,0.0,0.0,0.0,0.0,0.0,0.0,0.0,0.0,0.0,0.0,0.0,0.0,0.0,0.0,0.0,0.0,0.0,0.0,0.0,0.0,0.0,0.0,0.0,0.0,0.0,0.0,0.0,0.0,0.0,0.0,0.0,0.0,0.0,0.0,0.0,0.0,0.0,0.0,0.0,0.0,0.0,0.0,0.0,0.0,0.0,0.0,0.0,0.0,0.0,0.0,0.0,0.0,0.0,0.0,0.0,0.0,0.0,0.0,0.0,0.0,0.0,0.0,0.0,0.0,0.0,0.0,0.0,0.0,0.0,0.0,0.0,0.0,0.0,0.0,0.0,0.0,0.0,0.0,0.0,0.0,0.0,0.0,0.0,0.0,0.0,0.0,0.0,0.0,0.0,0.0,0.0,0.0,0.0,0.0,0.0,0.0,0.0,0.0,0.0,0.0,0.0,0.0,0.0,0.0,0.0,0.0,0.0,0.0,0.0,0.0,0.0,0.0,0.0,0.0,0.0,0.0,0.0,0.0,0.0,0.0,0.0,0.0,0.0,0.0,0.0,0.0,0.0,0.0,0.0,0.0,0.0,0.0,0.0,0.0,0.0,0.0,0.0,0.0,0.0,0.0,0.0,0.0,0.0,0.0,0.0,0.0,0.0,0.0,0.0,0.0,0.0,0.0,0.0,0.0,0.0,0.0,0.0,0.0,0.0,0.0,0.0,0.0,0.0,0.0,0.0,0.0,0.0,0.0,0.0,0.0,0.0,0.0,0.0,0.0,0.0,0.0,0.0,0.0,0.0,0.0,0.0,0.0,0.0,0.0,0.0,0.0,0.0,0.0,0.0,-3.6986,0.0,0.0,0.0,0.0,0.0,0.0,0.0,0.0,0.0,0.0,0.0,0.0,0.0,0.0,0.0,0.0,0.0,0.0,0.0,0.0,0.0,0.0,0.0,0.0,0.0,0.0,0.0,0.0,0.0,0.0,0.0,0.0,0.0,0.0,0.0,0.0,0.0,0.0,0.0,0.0,0.0,0.0,0.0,0.0,0.0,0.0,0.0,0.0,0.0,0.0,0.0,0.0,0.0,0.0,0.0,0.0,0.0,0.0,0.0,0.0,0.0,0.0,0.0,0.0,0.0,0.0,0.0,0.0,0.0,0.0,0.0,0.0,0.0,0.0,0.0,0.0,0.0,0.0,0.0,0.0,0.0,0.0,0.0,0.0,0.0,0.0,0.0,0.0,0.0,0.0,0.0,0.0,0.0,0.0,0.0,0.0,0.0,0.0,0.0,0.0,0.0,0.0,0.0,0.0,0.0,0.0,0.0,0.0,0.0,0.0,-3.9352,-3.9299,-3.8984,-3.8444,-3.7731,0.0,0.0,0.0,0.0,0.0,0.0,0.0,0.0,0.0,0.0,0.0,0.0,0.0,0.0,0.0,0.0,0.0,0.0,0.0,0.0,0.0,0.0,0.0,0.0,0.0,0.0,0.0,0.0,0.0,0.0,0.0,0.0,0.0,0.0,0.0,0.0,0.0,0.0,0.0,0.0,0.0,0.0,0.0,0.0,0.0,0.0,0.0,0.0,0.0,0.0,0.0,0.0,0.0,0.0,0.0,0.0,0.0,0.0,0.0,0.0,0.0,0.0,0.0,0.0,0.0,0.0,0.0,0.0,0.0,0.0,0.0,0.0,0.0,0.0,0.0,0.0,0.0,0.0,0.0,0.0,0.0,0.0,0.0,0.0,0.0,0.0,0.0,0.0,0.0,0.0,0.0,0.0,0.0,0.0,0.0,0.0,0.0,0.0,0.0,0.0,0.0,0.0,0.0,0.0,0.0,0.0,0.0,0.0,0.0,0.0,0.0,0.0,-3.9315,-3.8858,-3.7928,0.0,0.0,0.0,0.0,0.0,0.0,0.0,0.0,0.0,0.0,0.0,0.0,0.0,0.0,0.0,0.0,0.0,0.0,0.0,0.0,0.0,0.0,0.0,0.0,0.0,0.0,0.0,0.0,0.0,0.0,0.0,0.0,0.0,0.0,0.0,0.0,0.0,0.0,0.0,0.0,0.0,0.0,0.0,0.0,0.0,0.0,0.0,0.0,0.0,0.0,0.0,0.0,0.0,0.0,0.0,0.0,0.0,0.0,0.0,0.0,0.0,0.0,0.0,0.0,0.0,0.0,0.0,0.0,0.0,0.0,0.0,0.0,0.0,0.0,0.0,0.0,0.0,0.0,0.0,0.0,0.0,0.0,0.0,0.0,0.0,0.0,0.0,0.0,0.0,0.0,0.0,0.0,0.0,0.0,0.0,0.0,0.0,0.0,0.0,0.0,0.0,0.0,0.0,0.0,0.0,0.0,0.0,0.0,0.0,0.0,-3.9315,-3.9315,-3.9315,0.0,-3.7089,0.0,0.0,0.0,0.0,0.0,0.0,0.0,0.0,0.0,0.0,0.0,0.0,0.0,0.0,0.0,0.0,0.0,0.0,0.0,0.0,0.0,0.0,0.0,0.0,0.0,0.0,0.0,0.0,0.0,0.0,0.0,0.0,0.0,0.0,0.0,0.0,0.0,0.0,0.0,0.0,0.0,0.0,0.0,0.0,0.0,0.0,0.0,0.0,0.0,0.0,0.0,0.0,0.0,0.0,0.0,0.0,0.0,0.0,0.0,0.0,0.0,0.0,0.0,0.0,0.0,0.0,0.0,0.0,0.0,0.0,0.0,0.0,0.0,0.0,0.0,0.0,0.0,0.0,0.0,0.0,0.0,0.0,0.0,0.0,0.0,0.0,0.0,0.0,0.0,0.0,0.0,0.0,0.0,0.0,0.0,0.0,0.0,0.0,0.0,0.0,0.0,0.0,0.0,0.0,0.0,0.0,0.0,0.0,0.0,0.0,-3.9315,-3.9315,-3.9175,-3.8391,0.0,0.0,0.0,0.0,0.0,0.0,0.0,0.0,0.0,0.0,0.0,0.0,0.0,0.0,0.0,0.0,0.0,0.0,0.0,0.0,0.0,0.0,0.0,0.0,0.0,0.0,0.0,0.0,0.0,0.0,0.0,0.0,0.0,0.0,0.0,0.0,0.0,0.0,0.0,0.0,0.0,0.0,0.0,0.0,0.0,0.0,0.0,0.0,0.0,0.0,0.0,0.0,0.0,0.0,0.0,0.0,0.0,0.0,0.0,0.0,0.0,0.0,0.0,0.0,0.0,0.0,0.0,0.0,0.0,0.0,0.0,0.0,0.0,0.0,0.0,0.0,0.0,0.0,0.0,0.0,0.0,0.0,0.0,0.0,0.0,0.0,0.0,0.0,0.0,0.0,0.0,0.0,0.0,0.0,0.0,0.0,0.0,0.0,0.0,0.0,0.0,0.0,0.0,0.0,0.0,0.0,0.0,0.0,0.0,0.0,-3.9245,-3.9202,-3.9148,-3.8985,-3.8177,-3.6715,0.0,0.0,0.0,0.0,0.0,0.0,0.0,0.0,0.0,0.0,0.0,0.0,0.0,0.0,0.0,0.0,0.0,0.0,0.0,0.0,0.0,0.0,0.0,0.0,0.0,0.0,0.0,0.0,0.0,0.0,0.0,0.0,0.0,0.0,0.0,0.0,0.0,0.0,0.0,0.0,0.0,0.0,0.0,0.0,0.0,0.0,0.0,0.0,0.0,0.0,0.0,0.0,0.0,0.0,0.0,0.0,0.0,0.0,0.0,0.0,0.0,0.0,0.0,0.0,0.0,0.0,0.0,0.0,0.0,0.0,0.0,0.0,0.0,0.0,0.0,0.0,0.0,0.0,0.0,0.0,0.0,0.0,0.0,0.0,0.0,0.0,0.0,0.0,0.0,0.0,0.0,0.0,0.0,0.0,0.0,0.0,0.0,0.0,0.0,0.0,0.0,0.0,0.0,0.0,0.0,0.0,0.0,0.0,-3.9299,-3.9121,-3.8958,-3.8832,-3.8699,-3.7948,0.0,0.0,0.0,0.0,0.0,0.0,0.0,0.0,0.0,0.0,0.0,0.0,0.0,0.0,0.0,0.0,0.0,0.0,0.0,0.0,0.0,0.0,0.0,0.0,0.0,0.0,0.0,0.0,0.0,0.0,0.0,0.0,0.0,0.0,0.0,0.0,0.0,0.0,0.0,0.0,0.0,0.0,0.0,0.0,0.0,0.0,0.0,0.0,0.0,0.0,0.0,0.0,0.0,0.0,0.0,0.0,0.0,0.0,0.0,0.0,0.0,0.0,0.0,0.0,0.0,0.0,0.0,0.0,0.0,0.0,0.0,0.0,0.0,0.0,0.0,0.0,0.0,0.0,0.0,0.0,0.0,0.0,0.0,0.0,0.0,0.0,0.0,0.0,0.0,0.0,0.0,0.0,0.0,0.0,0.0,0.0,0.0,0.0,0.0,0.0,0.0,0.0,0.0,0.0,0.0,0.0,0.0,0.0,0.0,-3.9121,-3.8942,-3.8805,-3.8655,-3.8644,-3.791,0.0,0.0,0.0,0.0,0.0,0.0,0.0,0.0,0.0,0.0,0.0,0.0,0.0,0.0,0.0,0.0,0.0,0.0,0.0,0.0,0.0,0.0,0.0,0.0,0.0,0.0,0.0,0.0,0.0,0.0,0.0,0.0,0.0,0.0,0.0,0.0,0.0,0.0,0.0,0.0,0.0,0.0,0.0,0.0,0.0,0.0,0.0,0.0,0.0,0.0,0.0,0.0,0.0,0.0,0.0,0.0,0.0,0.0,0.0,0.0,0.0,0.0,0.0,0.0,0.0,0.0,0.0,0.0,0.0,0.0,0.0,0.0,0.0,0.0,0.0,0.0,0.0,0.0,0.0,0.0,0.0,0.0,0.0,0.0,0.0,0.0,0.0,0.0,0.0,0.0,0.0,0.0,0.0,0.0,0.0,0.0,0.0,0.0,0.0,0.0,0.0,0.0,0.0,0.0,0.0,0.0,0.0,0.0,0.0,-3.886,0.0,-3.8655,-3.8532,-3.8305,-3.7583,0.0,0.0,0.0,0.0,0.0,0.0,0.0,0.0,0.0,0.0,0.0,0.0,0.0,0.0,0.0,0.0,0.0,0.0,0.0,0.0,0.0,0.0,0.0,0.0,0.0,0.0,0.0,0.0,0.0,0.0,0.0,0.0,0.0,0.0,0.0,0.0,0.0,0.0,0.0,0.0,0.0,0.0,0.0,0.0,0.0,0.0,0.0,0.0,0.0,0.0,0.0,0.0,0.0,0.0,0.0,0.0,0.0,0.0,0.0,0.0,0.0,0.0,0.0,0.0,0.0,0.0,0.0,0.0,0.0,0.0,0.0,0.0,0.0,0.0,0.0,0.0,0.0,0.0,0.0,0.0,0.0,0.0,0.0,0.0,0.0,0.0,0.0,0.0,0.0,0.0,0.0,0.0,0.0,0.0,0.0,0.0,0.0,0.0,0.0,0.0,0.0,0.0,0.0,0.0,0.0,0.0,0.0,0.0,-3.8843,-3.8583,-3.8539,-3.8435,-3.8359,-3.7663,-3.6999,0.0,0.0,0.0,0.0,0.0,0.0,0.0,0.0,0.0,0.0,0.0,0.0,0.0,0.0,0.0,0.0,0.0,0.0,0.0,0.0,0.0,0.0,0.0,0.0,0.0,0.0,0.0,0.0,0.0,0.0,0.0,0.0,0.0,0.0,0.0,0.0,0.0,0.0,0.0,0.0,0.0,0.0,0.0,0.0,0.0,0.0,0.0,0.0,0.0,0.0,0.0,0.0,0.0,0.0,0.0,0.0,0.0,0.0,0.0,0.0,0.0,0.0,0.0,0.0,0.0,0.0,0.0,0.0,0.0,0.0,0.0,0.0,0.0,0.0,0.0,0.0,0.0,0.0,0.0,0.0,0.0,0.0,0.0,0.0,0.0,0.0,0.0,0.0,0.0,0.0,0.0,0.0,0.0,0.0,0.0,0.0,0.0,0.0,0.0,0.0,0.0,0.0,0.0,0.0,0.0,0.0,0.0,0.0,0.0,-3.715,-3.7107,-3.7026,-3.695,-3.674,-3.627,0.0,0.0,0.0,0.0,0.0,0.0,0.0,0.0,0.0,0.0,0.0,0.0,0.0,0.0,0.0,0.0,0.0,0.0,0.0,0.0,0.0,0.0,0.0,0.0,0.0,0.0,0.0,0.0,0.0,0.0,0.0,0.0,0.0,0.0,0.0,0.0,0.0,0.0,0.0,0.0,0.0,0.0,0.0,0.0,0.0,0.0,0.0,0.0,0.0,0.0,0.0,0.0,0.0,0.0,0.0,0.0,0.0,0.0,0.0,0.0,0.0,0.0,0.0,0.0,0.0,0.0,0.0,0.0,0.0,0.0,0.0,0.0,0.0,0.0,0.0,0.0,0.0,0.0,0.0,0.0,0.0,0.0,0.0,0.0,0.0,0.0,0.0,0.0,0.0,0.0,0.0,0.0,0.0,0.0,0.0,0.0,0.0,0.0,0.0,0.0,0.0,0.0,0.0,0.0,0.0,0.0,0.0,0.0,0.0,-3.5759,-3.6225,-3.644,-3.634,-3.6107,-3.5724,-3.5228,0.0,0.0,0.0,0.0,0.0,0.0,0.0,0.0,0.0,0.0,0.0,0.0,0.0,0.0,0.0,0.0,0.0,0.0,0.0,0.0,0.0,0.0,0.0,0.0,0.0,0.0,0.0,0.0,0.0,0.0,0.0,0.0,0.0,0.0,0.0,0.0,0.0,0.0,0.0,0.0,0.0,0.0,0.0,0.0,0.0,0.0,0.0,0.0,0.0,0.0,0.0,0.0,0.0,0.0,0.0,0.0,0.0,0.0,0.0,0.0,0.0,0.0,0.0,0.0,0.0,0.0,0.0,0.0,0.0,0.0,0.0,0.0,0.0,0.0,0.0,0.0,0.0,0.0,0.0,0.0,0.0,0.0,0.0,0.0,0.0,0.0,0.0,0.0,0.0,0.0,0.0,0.0,0.0,0.0,0.0,0.0,0.0,0.0,0.0,0.0,0.0,0.0,0.0,0.0,0.0,0.0,0.0,0.0,-3.4341,-3.5756,-3.6417,-3.6261,-3.5668,-3.5275,0.0,0.0,0.0,0.0,0.0,0.0,0.0,0.0,0.0,0.0,0.0,0.0,0.0,0.0,0.0,0.0,0.0,0.0,0.0,0.0,0.0,0.0,0.0,0.0,0.0,0.0,0.0,0.0,0.0,0.0,0.0,0.0,0.0,0.0,0.0,0.0,0.0,0.0,0.0,0.0,0.0,0.0,0.0,0.0,0.0,0.0,0.0,0.0,0.0,0.0,0.0,0.0,0.0,0.0,0.0,0.0,0.0,0.0,0.0,0.0,0.0,0.0,0.0,0.0,0.0,0.0,0.0,0.0,0.0,0.0,0.0,0.0,0.0,0.0,0.0,0.0,0.0,0.0,0.0,0.0,0.0,0.0,0.0,0.0,0.0,0.0,0.0,0.0,0.0,0.0,0.0,0.0,0.0,0.0,0.0,0.0,0.0,0.0,0.0,0.0,0.0,0.0,0.0,0.0,0.0,0.0,0.0,0.0,0.0,-3.4676,-3.5094,-3.5227,-3.502,-3.4741,-3.4593,0.0,0.0,0.0,0.0,0.0,0.0,0.0,0.0,0.0,0.0,0.0,0.0,0.0,0.0,0.0,0.0,0.0,0.0,0.0,0.0,0.0,0.0,0.0,0.0,0.0,0.0,0.0,0.0,0.0,0.0,0.0,0.0,0.0,0.0,0.0,0.0,0.0,0.0,0.0,0.0,0.0,0.0,0.0,0.0,0.0,0.0,0.0,0.0,0.0,0.0,0.0,0.0,0.0,0.0,0.0,0.0,0.0,0.0,0.0,0.0,0.0,0.0,0.0,0.0,0.0,0.0,0.0,0.0,0.0,0.0,0.0,0.0,0.0,0.0,0.0,0.0,0.0,0.0,0.0,0.0,0.0,0.0,0.0,0.0,0.0,0.0,0.0,0.0,0.0,0.0,0.0,0.0,0.0,0.0,0.0,0.0,0.0,0.0,0.0,0.0,0.0,0.0,0.0,0.0,0.0,0.0,0.0,0.0,-3.598,-3.4724,-3.4828,-3.4828,-3.4683,-3.4472,-3.4349,0.0,0.0,0.0,0.0,0.0,0.0,0.0,0.0,0.0,0.0,0.0,0.0,0.0,0.0,0.0,0.0,0.0,0.0,0.0,0.0,0.0,0.0,0.0,0.0,0.0,0.0,0.0,0.0,0.0,0.0,0.0,0.0,0.0,0.0,0.0,0.0,0.0,0.0,0.0,0.0,0.0,0.0,0.0,0.0,0.0,0.0,0.0,0.0,0.0,0.0,0.0,0.0,0.0,0.0,0.0,0.0,0.0,0.0,0.0,0.0,0.0,0.0,0.0,0.0,0.0,0.0,0.0,0.0,0.0,0.0,0.0,0.0,0.0,0.0,0.0,0.0,0.0,0.0,0.0,0.0,0.0,0.0,0.0,0.0,0.0,0.0,0.0,0.0,0.0,0.0,0.0,0.0,0.0,0.0,0.0,0.0,0.0,0.0,0.0,0.0,0.0,0.0,0.0,0.0,0.0,0.0,0.0,0.0,-3.5996,-3.4724,-3.4828,-3.4899,-3.4899,-3.4643,-3.4448,0.0,0.0,0.0,0.0,0.0,0.0,0.0,0.0,0.0,0.0,0.0,0.0,0.0,0.0,0.0,0.0,0.0,0.0,0.0,0.0,0.0,0.0,0.0,0.0,0.0,0.0,0.0,0.0,0.0,0.0,0.0,0.0,0.0,0.0,0.0,0.0,0.0,0.0,0.0,0.0,0.0,0.0,0.0,0.0,0.0,0.0,0.0,0.0,0.0,0.0,0.0,0.0,0.0,0.0,0.0,0.0,0.0,0.0,0.0,0.0,0.0,0.0,0.0,0.0,0.0,0.0,0.0,0.0,0.0,0.0,0.0,0.0,0.0,0.0,0.0,0.0,0.0,0.0,0.0,0.0,0.0,0.0,0.0,0.0,0.0,0.0,0.0,0.0,0.0,0.0,0.0,0.0,0.0,0.0,0.0,0.0,0.0,0.0,0.0,0.0,0.0,0.0,0.0,0.0,0.0,0.0,0.0,0.0,-3.598,-3.474,-3.4851,-3.4899,-3.4899,-3.4643,-3.4472,0.0,0.0,0.0,0.0,0.0,0.0,0.0,0.0,0.0,0.0,0.0,0.0,0.0,0.0,0.0,0.0,0.0,0.0,0.0,0.0,0.0,0.0,0.0,0.0,0.0,0.0,0.0,0.0,0.0,0.0,0.0,0.0,0.0,0.0,0.0,0.0,0.0,0.0,0.0,0.0,0.0,0.0,0.0,0.0,0.0,0.0,0.0,0.0,-3.3431,0.0,0.0,0.0,0.0,0.0,0.0,0.0,0.0,0.0,0.0,0.0,0.0,0.0,0.0,0.0,0.0,0.0,0.0,0.0,0.0,0.0,0.0,0.0,0.0,0.0,0.0,0.0,0.0,0.0,0.0,0.0,0.0,0.0,0.0,0.0,0.0,0.0,0.0,0.0,0.0,0.0,0.0,0.0,0.0,0.0,0.0,0.0,0.0,0.0,0.0,0.0,0.0,0.0,0.0,0.0,0.0,0.0,0.0,0.0,-3.5509,-3.4627,-3.4667,-3.4732,-3.4691,-3.4464,-3.4374,0.0,0.0,0.0,0.0,0.0,0.0,0.0,0.0,0.0,0.0,0.0,0.0,0.0,0.0,0.0,0.0,0.0,0.0,0.0,0.0,0.0,0.0,0.0,0.0,0.0,0.0,0.0,0.0,0.0,0.0,0.0,0.0,0.0,0.0,0.0,0.0,0.0,0.0,0.0,0.0,0.0,0.0,0.0,0.0,0.0,0.0,0.0,0.0,0.0,0.0,0.0,0.0,0.0,0.0,0.0,0.0,0.0,0.0,0.0,0.0,0.0,0.0,0.0,0.0,0.0,0.0,0.0,0.0,0.0,0.0,0.0,0.0,0.0,0.0,0.0,0.0,0.0,0.0,0.0,0.0,0.0,0.0,0.0,0.0,0.0,0.0,0.0,0.0,0.0,0.0,0.0,0.0,0.0,0.0,0.0,0.0,0.0,0.0,0.0,0.0,0.0,0.0,0.0,0.0,0.0,0.0,0.0,-3.5515,-3.4941,-3.4456,-3.4448,-3.4472,-3.4472,-3.4201,-3.4176,-3.439,0.0,0.0,0.0,0.0,0.0,0.0,0.0,0.0,0.0,0.0,0.0,0.0,0.0,0.0,0.0,0.0,0.0,0.0,0.0,0.0,0.0,0.0,0.0,0.0,0.0,0.0,0.0,0.0,0.0,0.0,0.0,0.0,0.0,0.0,0.0,0.0,0.0,0.0,-3.3276,-3.3241,0.0,0.0,0.0,0.0,0.0,0.0,0.0,0.0,-3.3086,0.0,0.0,0.0,0.0,0.0,0.0,0.0,0.0,0.0,0.0,0.0,0.0,0.0,0.0,0.0,0.0,0.0,0.0,0.0,0.0,0.0,0.0,0.0,0.0,0.0,0.0,0.0,0.0,0.0,0.0,0.0,0.0,0.0,0.0,0.0,0.0,0.0,0.0,0.0,0.0,0.0,0.0,0.0,0.0,0.0,0.0,0.0,0.0,0.0,0.0,0.0,0.0,0.0,0.0,0.0,0.0,-3.5712,-3.5358,-3.488,-3.4192,-3.4275,-3.4325,-3.4325,-3.4075,-3.3899,-3.3886,0.0,0.0,0.0,0.0,0.0,0.0,0.0,0.0,0.0,0.0,0.0,0.0,0.0,0.0,0.0,0.0,0.0,0.0,0.0,0.0,0.0,0.0,0.0,0.0,0.0,0.0,0.0,0.0,0.0,0.0,0.0,0.0,0.0,0.0,0.0,0.0,0.0,0.0,0.0,-3.3058,-3.3002,0.0,0.0,0.0,0.0,0.0,0.0,0.0,0.0,-3.2775,0.0,0.0,0.0,0.0,0.0,0.0,0.0,0.0,0.0,0.0,0.0,0.0,0.0,0.0,0.0,0.0,0.0,0.0,0.0,0.0,0.0,0.0,0.0,0.0,0.0,0.0,0.0,0.0,0.0,0.0,0.0,0.0,0.0,0.0,0.0,0.0,0.0,0.0,0.0,0.0,0.0,0.0,0.0,0.0,0.0,0.0,0.0,0.0,0.0,0.0,0.0,0.0,0.0,0.0,0.0,-3.4826,-3.4415,-3.4072,-3.3813,-3.3924,-3.3949,-3.3873,-3.3684,-3.3704,0.0,0.0,0.0,0.0,0.0,0.0,0.0,0.0,0.0,0.0,0.0,0.0,0.0,0.0,0.0,0.0,0.0,0.0,0.0,0.0,0.0,0.0,0.0,0.0,0.0,0.0,0.0,0.0,0.0,0.0,0.0,0.0,0.0,0.0,0.0,0.0,0.0,0.0,0.0,0.0,-3.2846,-3.2935,-3.3146,0.0,0.0,0.0,0.0,0.0,0.0,-3.2467,-3.2444,0.0,0.0,0.0,0.0,0.0,0.0,0.0,0.0,0.0,0.0,0.0,0.0,0.0,0.0,0.0,0.0,0.0,0.0,0.0,0.0,0.0,0.0,0.0,0.0,0.0,0.0,0.0,0.0,0.0,0.0,0.0,0.0,0.0,0.0,0.0,0.0,0.0,0.0,0.0,0.0,0.0,0.0,0.0,0.0,0.0,0.0,0.0,0.0,0.0,0.0,0.0,0.0,0.0,0.0,0.0,-3.3963,-3.3464,-3.3266,-3.3398,-3.3529,-3.3529,-3.3356,-3.324,-3.3332,0.0,0.0,0.0,0.0,0.0,0.0,0.0,0.0,0.0,0.0,0.0,0.0,0.0,0.0,0.0,0.0,0.0,0.0,0.0,0.0,0.0,0.0,0.0,0.0,0.0,0.0,0.0,0.0,0.0,0.0,0.0,0.0,0.0,0.0,0.0,0.0,0.0,0.0,0.0,0.0,0.0,-3.3038,-3.3457,-3.3005,0.0,0.0,0.0,0.0,-3.2404,-3.2295,0.0,0.0,0.0,0.0,0.0,0.0,0.0,0.0,0.0,0.0,0.0,0.0,0.0,0.0,0.0,0.0,0.0,0.0,0.0,0.0,0.0,0.0,0.0,0.0,0.0,0.0,0.0,0.0,0.0,0.0,0.0,0.0,0.0,0.0,0.0,0.0,0.0,0.0,0.0,0.0,0.0,0.0,0.0,0.0,0.0,0.0,0.0,0.0,0.0,0.0,0.0,0.0,0.0,0.0,0.0,0.0,-3.3499,-3.308,-3.2969,-3.3123,-3.315,-3.3065,-3.2884,-3.2765,-3.2594,0.0,0.0,0.0,0.0,0.0,0.0,0.0,0.0,0.0,0.0,0.0,0.0,0.0,0.0,0.0,0.0,0.0,0.0,0.0,0.0,0.0,0.0,0.0,0.0,0.0,0.0,0.0,0.0,0.0,0.0,0.0,0.0,0.0,0.0,0.0,0.0,0.0,0.0,0.0,0.0,0.0,-3.3463,-3.3337,-3.3258,-3.3232,0.0,0.0,-3.3018,-3.2484,-3.2404,0.0,0.0,0.0,0.0,0.0,0.0,0.0,0.0,0.0,0.0,0.0,0.0,0.0,0.0,0.0,0.0,0.0,0.0,0.0,0.0,0.0,0.0,0.0,0.0,0.0,0.0,0.0,0.0,0.0,0.0,0.0,0.0,0.0,0.0,0.0,0.0,0.0,0.0,0.0,0.0,0.0,0.0,0.0,0.0,0.0,0.0,0.0,0.0,0.0,0.0,0.0,0.0,0.0,0.0,0.0,-3.2912,-3.2463,-3.2369,-3.2425,-3.2578,-3.2676,-3.2633,-3.2449,-3.2342,-3.2346,0.0,0.0,0.0,0.0,0.0,0.0,0.0,0.0,0.0,0.0,0.0,0.0,0.0,0.0,0.0,0.0,0.0,0.0,0.0,0.0,0.0,0.0,0.0,0.0,0.0,0.0,0.0,0.0,0.0,0.0,0.0,0.0,0.0,0.0,0.0,0.0,0.0,0.0,0.0,0.0,0.0,0.0,-3.337,-3.3014,0.0,0.0,0.0,-3.2646,-3.2372,0.0,0.0,0.0,0.0,0.0,0.0,0.0,0.0,0.0,0.0,0.0,0.0,0.0,0.0,0.0,0.0,0.0,0.0,0.0,0.0,0.0,0.0,0.0,0.0,0.0,0.0,0.0,0.0,0.0,0.0,0.0,0.0,0.0,0.0,0.0,0.0,0.0,0.0,0.0,0.0,0.0,0.0,0.0,0.0,0.0,0.0,0.0,0.0,0.0,0.0,0.0,0.0,0.0,0.0,0.0,0.0,0.0,-3.1611,-3.1754,-3.1896,-3.2023,-3.212,-3.212,-3.1966,-3.1896,0.0,0.0,0.0,0.0,0.0,0.0,0.0,0.0,0.0,0.0,0.0,0.0,0.0,0.0,0.0,0.0,0.0,0.0,0.0,0.0,0.0,0.0,0.0,0.0,0.0,0.0,0.0,-2.9839,0.0,0.0,0.0,0.0,0.0,0.0,0.0,0.0,0.0,0.0,0.0,0.0,0.0,0.0,-3.3031,-3.3487,-3.3053,-3.2856,0.0,0.0,-3.2568,-3.2373,-3.236,-3.228,0.0,0.0,0.0,0.0,0.0,0.0,0.0,0.0,0.0,0.0,0.0,0.0,0.0,0.0,0.0,0.0,0.0,0.0,0.0,0.0,0.0,0.0,0.0,0.0,0.0,0.0,0.0,0.0,0.0,0.0,0.0,0.0,0.0,0.0,0.0,0.0,0.0,0.0,0.0,0.0,0.0,0.0,0.0,0.0,0.0,0.0,0.0,0.0,0.0,0.0,0.0,0.0,0.0,0.0,-3.1797,-3.1336,-3.1336,-3.1423,-3.1537,-3.1537,-3.1495,-3.138,-3.1336,-3.1234,0.0,0.0,0.0,0.0,0.0,0.0,0.0,0.0,0.0,0.0,0.0,0.0,0.0,0.0,0.0,0.0,0.0,0.0,0.0,0.0,0.0,0.0,0.0,0.0,0.0,0.0,0.0,0.0,0.0,0.0,0.0,0.0,0.0,0.0,0.0,0.0,0.0,0.0,0.0,0.0,0.0,-3.3623,-3.3691,-3.3636,-3.3623,0.0,-3.3623,-3.3321,-3.259,-3.246,-3.2418,-3.2235,0.0,0.0,0.0,0.0,0.0,0.0,0.0,0.0,0.0,0.0,0.0,0.0,0.0,0.0,0.0,0.0,0.0,0.0,0.0,0.0,0.0,0.0,0.0,0.0,0.0,0.0,0.0,0.0,0.0,0.0,0.0,0.0,0.0,0.0,0.0,0.0,0.0,0.0,0.0,0.0,0.0,0.0,0.0,0.0,0.0,0.0,0.0,0.0,0.0,0.0,0.0,0.0,0.0,-3.0784,-3.0687,-3.0687,-3.0777,-3.0955,-3.0955,-3.0925,-3.0866,-3.0732,-3.0613,0.0,0.0,0.0,0.0,0.0,0.0,0.0,0.0,0.0,0.0,0.0,0.0,0.0,0.0,0.0,0.0,0.0,0.0,0.0,0.0,0.0,0.0,0.0,0.0,0.0,0.0,0.0,0.0,-2.9495,-2.9417,-2.9248,0.0,0.0,0.0,0.0,0.0,0.0,0.0,0.0,0.0,0.0,-3.2884,-3.2884,-3.2896,0.0,0.0,-3.2896,-3.2778,-3.248,-3.2443,-3.24,-3.2327,-3.2327,0.0,0.0,0.0,0.0,0.0,0.0,0.0,0.0,0.0,0.0,0.0,0.0,0.0,0.0,0.0,0.0,0.0,0.0,0.0,0.0,0.0,0.0,0.0,0.0,0.0,0.0,0.0,0.0,0.0,0.0,0.0,0.0,0.0,0.0,0.0,0.0,0.0,0.0,0.0,0.0,0.0,0.0,0.0,0.0,0.0,0.0,0.0,0.0,0.0,0.0,0.0,0.0,-3.0005,-3.0068,-3.0083,-3.0129,-3.0296,-3.0296,-3.031,-3.0296,-3.0174,-3.0083,0.0,0.0,0.0,0.0,0.0,0.0,0.0,0.0,0.0,0.0,0.0,0.0,0.0,0.0,0.0,0.0,0.0,0.0,0.0,0.0,0.0,0.0,0.0,0.0,0.0,0.0,0.0,0.0,-2.8973,-2.8946,-2.8946,0.0,0.0,0.0,0.0,0.0,0.0,0.0,0.0,0.0,0.0,-3.24,-3.24,-3.24,-3.24,-3.24,-3.24,-3.2388,-3.2313,-3.23,-3.2257,-3.2213,0.0,0.0,0.0,0.0,0.0,0.0,0.0,0.0,0.0,0.0,0.0,0.0,0.0,0.0,0.0,0.0,0.0,0.0,0.0,0.0,0.0,0.0,0.0,0.0,0.0,0.0,0.0,-3.4399,0.0,0.0,-3.4099,0.0,0.0,0.0,0.0,0.0,0.0,0.0,0.0,0.0,0.0,0.0,0.0,0.0,0.0,0.0,0.0,0.0,0.0,0.0,0.0,0.0,0.0,-2.9602,-2.9602,-2.9602,-2.9602,-2.9602,-2.9602,-2.9602,-2.9634,-2.9602,-2.9526,-2.9341,0.0,0.0,0.0,0.0,0.0,0.0,0.0,0.0,0.0,0.0,0.0,0.0,0.0,0.0,0.0,0.0,0.0,0.0,0.0,0.0,0.0,0.0,0.0,0.0,0.0,0.0,-2.8831,-2.8618,-2.851,0.0,0.0,0.0,0.0,0.0,0.0,0.0,0.0,0.0,-3.24,-3.24,-3.24,-3.24,-3.24,-3.24,-3.2412,-3.2412,-3.2313,-3.2074,-3.2018,-3.1937,0.0,0.0,0.0,0.0,0.0,0.0,0.0,0.0,0.0,0.0,0.0,0.0,0.0,0.0,0.0,0.0,0.0,0.0,0.0,0.0,0.0,0.0,0.0,0.0,0.0,0.0,0.0,-3.2788,-3.2664,0.0,0.0,0.0,0.0,0.0,0.0,0.0,0.0,0.0,0.0,0.0,-3.0196,-3.0042,0.0,0.0,0.0,0.0,0.0,0.0,0.0,0.0,0.0,0.0,0.0,0.0,-2.894,-2.894,-2.894,-2.894,-2.894,-2.894,-2.894,-2.8954,-2.894,-2.8862,-2.8643,0.0,0.0,0.0,0.0,0.0,0.0,0.0,0.0,0.0,0.0,0.0,0.0,0.0,0.0,0.0,0.0,0.0,0.0,0.0,0.0,0.0,0.0,0.0,0.0,0.0,-2.8657,0.0,0.0,0.0,0.0,0.0,0.0,0.0,0.0,0.0,0.0,0.0,-3.1937,-3.1937,-3.1937,-3.1937,-3.1937,-3.1925,-3.2071,0.0,0.0,0.0,0.0,0.0,0.0,0.0,0.0,0.0,0.0,0.0,0.0,0.0,0.0,-3.1552,-3.1705,-3.2001,-3.2295,-3.2426,0.0,0.0,0.0,0.0,0.0,0.0,0.0,0.0,0.0,0.0,0.0,0.0,0.0,0.0,-3.1337,-3.1116,-3.0863,0.0,0.0,0.0,0.0,0.0,0.0,0.0,0.0,-3.0372,-2.9735,-2.896,-2.8624,-2.8277,-2.7931,-2.78,-2.823,0.0,0.0,0.0,0.0,0.0,0.0,0.0,0.0,-2.8183,-2.8118,-2.8183,-2.8183,-2.8118,-2.8351,-2.8491,-2.8491,-2.8505,-2.8365,-2.8052,-2.7842,-2.7689,0.0,0.0,0.0,0.0,0.0,0.0,0.0,0.0,0.0,0.0,0.0,0.0,0.0,0.0,0.0,0.0,0.0,0.0,0.0,0.0,0.0,0.0,0.0,-2.8271,0.0,0.0,0.0,0.0,0.0,0.0,0.0,0.0,0.0,-3.0879,-3.138,-3.1705,-3.1705,-3.1773,-3.1836,-3.1848,0.0,0.0,0.0,0.0,0.0,0.0,0.0,-3.2771,-3.2759,-3.217,-3.162,-3.1386,-3.1048,-3.0838,-3.0736,0.0,0.0,-3.1139,-3.1439,-3.1649,-3.1725,-3.2001,-3.222,-3.232,-3.2438,-3.2556,0.0,0.0,0.0,0.0,-3.2522,0.0,0.0,0.0,-3.0352,-3.0014,0.0,-2.976,0.0,0.0,0.0,0.0,-3.0362,-3.071,0.0,0.0,-2.9529,-2.8686,-2.7766,-2.7257,-2.6629,-2.5959,-2.6404,-2.6613,-2.6649,-2.7169,0.0,0.0,0.0,0.0,0.0,0.0,-2.7442,-2.7273,-2.7468,-2.7421,-2.7286,-2.7941,-2.8274,-2.8308,-2.8282,-2.8022,-2.7535,-2.7348,-2.7167,-2.696,-2.6782,0.0,0.0,0.0,0.0,0.0,0.0,0.0,0.0,0.0,0.0,0.0,0.0,0.0,0.0,0.0,0.0,0.0,0.0,0.0,0.0,-2.7852,0.0,0.0,0.0,0.0,0.0,0.0,0.0,0.0,0.0,-3.0406,-3.0841,-3.1348,-3.1673,-3.1697,0.0,0.0,0.0,0.0,-3.2488,-3.2547,-3.2512,-3.2512,-3.2594,-3.2547,-3.2559,-3.2559,0.0,0.0,-3.0739,-3.0601,-3.051,-3.0261,-3.0227,-3.0363,-3.0838,-3.0972,-3.1062,-3.1217,-3.1306,-3.1395,-3.1617,-3.1705,-3.1705,-2.9433,0.0,0.0,0.0,0.0,-3.0645,-3.0089,-2.9324,-2.8764,-2.8342,-2.8036,-2.7743,0.0,0.0,0.0,0.0,0.0,0.0,-2.9618,-2.8898,-2.8648,-2.8024,-2.7074,-2.6768,-2.6463,-2.6134,-2.6263,-2.6184,-2.5908,-2.649,-2.7053,-2.7535,0.0,0.0,0.0,0.0,-2.7845,-2.7774,-2.7809,-2.7809,-2.7774,-2.801,-2.8086,-2.8086,-2.7741,-2.7449,-2.7297,-2.6779,-2.6496,-2.6427,-2.6233,0.0,0.0,0.0,0.0,0.0,0.0,0.0,0.0,0.0,0.0,0.0,0.0,0.0,0.0,0.0,0.0,0.0,0.0,0.0,-2.74,-2.7249,-2.7357,0.0,0.0,0.0,0.0,0.0,0.0,0.0,0.0,0.0,-3.0938,-3.1089,-3.1326,0.0,0.0,-3.1946,-3.2335,-3.243,-3.2618,-3.3029,-3.3088,0.0,-3.3593,-3.3494,-3.3336,-3.3336,-3.2737,-3.1968,-3.102,-3.0721,-3.0502,-3.0251,-3.0091,-3.0023,-3.0205,-3.051,-3.0736,-3.0802,-3.0949,-3.1107,-3.1184,-3.1196,-3.1196,-2.736,-2.8745,-2.9171,-2.9455,-2.9611,-2.9174,-2.8554,-2.7875,-2.7321,-2.6884,-2.6494,-2.6265,-2.6325,-2.6719,-2.6889,0.0,0.0,0.0,-2.8805,-2.8251,-2.7968,-2.7433,-2.6688,-2.635,-2.6015,-2.5735,-2.5927,-2.5913,-2.5689,-2.6253,-2.6827,-2.7346,0.0,-2.7409,-2.7521,-2.7521,-2.7484,-2.7446,-2.7508,-2.7484,-2.7446,-2.7742,-2.789,-2.7878,-2.7631,-2.7346,-2.6912,-2.6471,-2.6142,-2.5851,-2.5676,-2.5548,0.0,0.0,0.0,0.0,0.0,0.0,0.0,0.0,0.0,0.0,0.0,-2.7708,-2.7626,0.0,0.0,0.0,-2.7167,-2.7074,-2.6992,-2.6839,0.0,0.0,0.0,0.0,0.0,0.0,0.0,-2.9909,-3.0182,-3.042,-3.042,-3.042,-3.0615,-3.119,-3.1354,-3.1577,-3.197,0.0,-3.2381,-3.2889,-3.3007,-3.3111,-3.3423,-3.3319,-3.3151,-3.2944,-3.251,-3.1934,-3.1147,-3.0823,-3.0652,-3.0497,-3.0371,-3.0289,-3.0289,-3.0546,-3.0617,-3.0353,-3.051,-3.0691,-3.0691,-3.0703,-3.0691,-2.5565,-2.6118,-2.7383,-2.8093,-2.8212,-2.753,-2.6982,-2.6526,-2.6037,-2.5571,-2.5241,-2.5206,-2.5218,-2.5325,-2.6356,0.0,-2.7624,-2.7993,-2.8167,-2.8115,-2.7427,-2.6888,-2.6508,-2.597,-2.5508,-2.5094,-2.5574,-2.5797,-2.582,-2.6326,-2.6674,-2.6828,-2.6777,-2.6792,-2.683,-2.6868,-2.6854,-2.6714,-2.6816,-2.6854,-2.6714,-2.737,-2.7711,-2.7699,-2.7845,-2.7463,-2.6505,-2.6372,-2.6033,-2.5373,-2.5111,-2.4921,-2.4825,0.0,0.0,0.0,0.0,0.0,0.0,0.0,0.0,0.0,0.0,0.0,0.0,0.0,0.0,0.0,-2.6509,0.0,-2.6534,-2.6534,0.0,0.0,0.0,-2.8132,-2.8578,-2.9125,-2.9393,-2.9439,0.0,0.0,-2.9439,-2.9439,-2.9715,-3.0352,-3.0744,-3.1017,-3.1233,-3.1525,-3.1872,-3.2375,-3.246,-3.2493,-3.2594,-3.2606,-3.242,-3.2038,-3.1771,-3.1614,-3.1117,-3.0946,-3.0935,-3.0882,-3.0879,-3.0856,-3.0868,-3.0871,-3.0706,-3.0111,-3.0159,-3.0274,-3.032,-3.0331,-3.0342,-2.5004,-2.5122,-2.5457,-2.6009,-2.6627,-2.6481,-2.6009,-2.5397,-2.5099,-2.4886,-2.4658,-2.4514,-2.4639,-2.5022,-2.5672,-2.6329,-2.6936,-2.745,-2.7684,-2.7632,-2.7313,-2.7065,-2.6792,-2.63,-2.601,-2.5928,-2.5873,-2.5898,-2.5898,-2.6174,-2.6313,-2.6385,-2.656,-2.6881,-2.731,-2.7533,-2.7624,-2.7596,-2.7636,-2.7624,-2.7596,-2.7754,-2.7865,-2.7853,-2.7514,-2.7194,-2.6934,-2.6141,-2.5655,-2.544,-2.5062,-2.4849,-2.4801,-2.4646,0.0,0.0,0.0,0.0,0.0,0.0,0.0,0.0,0.0,-2.6715,-2.6434,0.0,-2.6196,0.0,-2.5622,-2.5689,-2.6012,-2.6077,0.0,0.0,-2.7401,-2.7648,-2.81,-2.8448,-2.8664,-2.8675,-2.8792,-2.8863,-2.8863,-2.8863,-2.8874,-2.8943,-2.984,-3.0627,-3.1004,-3.145,-3.1748,-3.1844,-3.2219,-3.2493,-3.2493,-3.2493,-3.2398,-3.2348,-3.2325,-3.2107,-3.1565,-3.135,-3.1129,-3.0931,-3.0782,-3.0674,-3.0718,-3.0793,-3.0786,-3.054,-3.0569,-3.0723,-3.0712,-3.076,-3.0712,-2.4903,-2.488,-2.4662,-2.4867,-2.531,-2.5466,-2.5205,-2.4647,-2.4527,-2.4358,-2.4102,-2.4221,-2.4536,-2.5024,-2.5496,-2.6126,-2.6795,-2.7082,-2.729,-2.7371,-2.7249,-2.7044,-2.6768,-2.6479,-2.6271,-2.6063,-2.5937,-2.5895,-2.5895,-2.6021,-2.6074,-2.6074,-2.6313,-2.6592,-2.6921,-2.726,-2.7516,-2.7598,-2.7598,-2.7598,-2.7609,-2.7598,-2.7598,-2.7586,-2.7399,-2.717,-2.6936,-2.6387,-2.5861,-2.5394,-2.504,-2.4759,-2.4549,-2.4345,-2.4236,0.0,0.0,0.0,0.0,0.0,0.0,0.0,0.0,0.0,0.0,0.0,-2.574,-2.5658,-2.5594,-2.57,-2.6179,-2.6221,-2.6519,-2.7253,-2.7328,-2.7498,-2.7945,-2.8139,-2.8243,-2.8243,-2.8326,-2.8409,-2.8409,-2.8409,-2.8362,-2.8243,-2.9041,-2.9672,-2.9935,-3.0373,-3.0767,-3.0937,-3.1425,-3.1783,-3.1885,-3.1936,-3.1986,-3.2088,-3.2077,-3.1988,-3.1683,-3.1539,-3.1389,-3.1246,-3.1131,-3.1031,-3.1031,-3.1131,-3.118,-3.1092,-3.1142,-3.1124,-3.0979,-3.089,-3.089,-2.4999,-2.4977,-2.4574,-2.4395,-2.4399,-2.462,-2.4476,-2.4116,-2.408,-2.3895,-2.3605,-2.3953,-2.4503,-2.5077,-2.5501,-2.6091,-2.6798,-2.685,-2.6974,-2.7149,-2.7138,-2.6974,-2.6603,-2.6561,-2.6313,-2.5895,-2.5895,-2.5895,-2.5895,-2.5895,-2.5895,-2.5895,-2.6063,-2.6157,-2.6199,-2.6603,-2.6933,-2.7108,-2.7097,-2.7097,-2.7149,-2.7149,-2.7149,-2.719,-2.7371,-2.7244,-2.6804,-2.6774,-2.6333,-2.5365,-2.5099,-2.4746,-2.4345,-2.4127,-2.4053,0.0,-2.4198,0.0,0.0,0.0,0.0,0.0,0.0,0.0,0.0,-2.5253,-2.5338,-2.5794,-2.5879,-2.6101,-2.6578,-2.6621,-2.6801,-2.7257,-2.7331,-2.748,-2.7851,-2.7893,-2.7904,-2.7904,-2.7904,-2.7893,-2.7904,-2.7946,-2.7978,-2.8052,-2.8434,-2.879,-2.8762,-2.9253,-2.9771,-3.0032,-3.053,-3.1034,-3.1178,-3.1178,-3.1281,-3.1476,-3.1527,-3.1476,-3.1454,-3.1505,-3.1545,-3.1534,-3.1502,-3.1586,-3.1567,-3.1597,-3.1597,-3.1553,-3.1542,-3.1453,-3.1102,-3.1011,-3.0971,-2.4999,-2.4999,-2.4909,-2.4876,-2.4842,-2.4361,-2.3962,-2.3714,-2.3556,-2.3444,-2.3438,-2.3382,-2.3888,-2.4827,-2.4935,-2.5467,-2.6313,-2.6561,-2.6779,-2.6933,-2.6974,-2.685,-2.6603,-2.6354,-2.6146,-2.5906,-2.5895,-2.5895,-2.5895,-2.5895,-2.5895,-2.5895,-2.5948,-2.6021,-2.6188,0.0,0.0,0.0,-2.6727,-2.6715,-2.6727,-2.685,-2.6974,-2.6974,-2.7138,0.0,-2.7111,-2.6771,-2.6381,-2.5955,-2.5529,0.0,0.0,0.0,0.0,0.0,0.0,0.0,0.0,0.0,0.0,0.0,-2.5084,-2.4956,-2.4711,-2.4838,-2.5042,-2.5311,-2.5677,-2.6118,-2.6576,-2.6629,-2.6759,-2.7254,-2.7327,-2.7358,-2.7441,-2.7452,-2.7441,-2.7441,-2.7452,-2.7441,-2.7483,-2.7706,-2.7935,-2.7956,-2.8341,-2.8611,-2.8632,-2.9368,-2.9958,-3.0147,-3.0489,-3.0776,-3.0879,-3.0879,-3.0879,-3.0931,-3.0931,-3.0983,-3.0983,-3.1178,-3.1281,-3.1281,-3.1424,-3.1567,-3.1578,-3.1567,-3.1578,-3.1567,-3.1567,-3.1564,-3.1501,-3.1447,-3.1458,-2.5223,-2.5068,-2.4839,-2.4752,0.0,-2.4122,-2.3835,-2.3673,-2.346,-2.3443,-2.3634,-2.3711,-2.4113,-2.4684,-2.5033,-2.5489,-2.6063,-2.6426,-2.6809,-2.7232,-2.7087,-2.7028,-2.692,-2.656,-2.6229,-2.5906,-2.578,-2.5738,-2.5738,-2.5644,-2.5549,-2.5549,-2.5549,-2.5591,-2.5717,-2.5812,-2.6146,-2.6603,-2.6603,-2.6603,-2.6603,-2.6685,-2.6768,-2.6727,-2.6862,0.0,0.0,0.0,0.0,0.0,0.0,0.0,0.0,-2.4814,0.0,-2.4719,-2.4552,-2.4549,-2.4785,-2.4732,-2.4756,-2.4893,-2.4919,-2.4881,-2.4838,-2.5207,-2.5478,-2.5659,-2.592,-2.6182,-2.6519,-2.6523,-2.6635,-2.6897,-2.6918,-2.6928,-2.688,-2.688,-2.688,-2.687,-2.688,-2.6951,-2.7166,-2.737,-2.7625,-2.786,-2.8268,-2.8554,-2.8625,-2.9196,-2.9772,-3.0013,-3.0234,-3.0464,-3.0557,-3.0609,-3.0672,-3.0776,-3.0776,-3.0776,-3.0776,-3.0931,-3.0983,-3.0983,-3.1137,-3.123,-3.123,-3.123,-3.123,-3.123,-3.123,-3.123,-3.123,-3.1424,-3.1567,-2.5422,-2.5168,-2.4765,-2.4606,-2.4574,-2.4106,-2.3875,-2.3803,-2.3524,0.0,0.0,-2.4155,-2.4376,-2.4565,-2.5177,-2.5612,-2.5906,-2.6396,-2.6944,-2.7552,-2.7417,-2.7383,-2.739,-2.692,-2.6488,-2.6026,-2.574,-2.5655,-2.5678,-2.5455,-2.537,-2.5445,-2.5455,-2.5445,-2.5488,-2.568,-2.6062,-2.6557,-2.6515,-2.6467,-2.6479,-2.652,-2.652,-2.652,-2.6592,-2.6603,-2.6603,-2.6603,-2.6371,-2.5898,-2.5876,-2.5646,-2.5143,-2.4774,-2.4596,-2.4526,-2.4557,-2.4575,-2.4575,-2.4819,-2.4975,-2.5059,-2.5114,-2.5173,-2.5279,-2.5661,-2.5936,-2.6093,-2.6194,-2.6303,-2.6466,-2.6496,-2.6496,-2.6496,-2.6496,-2.6496,-2.6496,-2.6496,-2.6544,-2.6506,-2.6577,-2.6748,-2.708,-2.7311,-2.7452,-2.7884,-2.8368,-2.8599,-2.8651,-2.9085,-2.9518,-2.9828,-2.9973,-3.0088,-3.0245,-3.0349,-3.0453,-3.0568,-3.062,-3.0682,-3.0682,-3.0682,-3.0724,-3.0713,-3.0776,-3.0827,-3.0827,-3.0827,-3.0776,-3.0776,-3.0776,-3.0776,-3.0827,-3.1127,-3.1424,-2.5242,-2.5189,-2.5136,-2.5104,-2.503,-2.4419,-2.4074,-2.3867,-2.3612,-2.3583,-2.3805,-2.3701,-2.3948,-2.4532,-2.484,-2.5242,-2.5696,-2.6313,-2.6861,-2.7386,-2.774,-2.7926,-2.7872,-2.7424,-2.6945,-2.6496,-2.5891,-2.5775,-2.6077,-2.5893,-2.6009,-2.636,-2.6413,-2.6358,-2.6413,-2.6413,-2.6512,-2.6579,-2.6193,-2.5979,-2.6032,-2.6157,-2.624,-2.6271,-2.6479,-2.6603,-2.6603,-2.6603,-2.6487,-2.6171,-2.613,-2.5931,-2.5532,-2.5427,-2.5324,-2.5093,-2.4946,-2.4851,-2.4819,-2.5034,-2.5339,-2.5713,-2.5905,-2.588,-2.5513,-2.5665,-2.5809,-2.5889,-2.6222,-2.6474,-2.6496,-2.6496,-2.6448,-2.6448,-2.6496,-2.6496,-2.6448,-2.6448,-2.6448,-2.6458,-2.6838,-2.7,-2.7112,-2.7743,-2.8195,-2.8428,-2.8615,-2.8958,-2.9001,-2.9304,-2.9535,-2.9691,-2.9827,-2.9994,-3.0099,-3.0047,-3.0099,-3.0099,-3.0151,-3.0151,-3.0151,-3.0349,-3.0453,-3.0443,-3.062,-3.0724,-3.0776,-3.0776,-3.0724,-3.0724,-3.0724,-3.0724,-3.0724,-3.0827,-3.0931,-2.4946,-2.4828,-2.4828,-2.4828,-2.4775,-2.4482,-2.4314,-2.4219,-2.397,-2.3949,-2.4007,-2.3932,-2.4045,-2.4368,-2.4733,-2.5073,-2.5422,-2.6218,-2.7018,-2.7691,-2.7946,-2.822,-2.8552,-2.8004,-2.7531,-2.7173,-2.6487,-2.6214,-2.6363,-2.6075,-2.6036,-2.619,-2.6201,-2.6201,-2.6246,-2.6336,-2.638,-2.637,-2.6075,-2.5894,-2.5894,-2.5731,-2.5686,-2.5675,-2.579,-2.5832,-2.5832,-2.5832,-2.579,-2.5675,-2.5675,-2.5549,-2.538,-2.5295,-2.5168,-2.5031,-2.4828,-2.4815,-2.5065,-2.5248,-2.5567,-2.5997,-2.5991,-2.5946,-2.5836,-2.6016,-2.6099,-2.5994,-2.6184,-2.6197,-2.6072,-2.6072,-2.6062,-2.6062,-2.6072,-2.6062,-2.6062,-2.6072,-2.6072,-2.6112,-2.6448,-2.6804,-2.7032,-2.7625,-2.8182,-2.838,-2.8565,-2.8654,-2.8664,-2.892,-2.9248,-2.9554,-2.9827,-2.9994,-2.9994,-2.9994,-2.9994,-2.9994,-2.9994,-2.9994,-2.9994,-3.0151,-3.0193,-3.0193,-3.0308,-3.036,-3.036,-3.037,-3.037,-3.037,-3.037,-3.036,-3.036,-3.036,-3.0464,-2.4711,-2.4507,-2.4507,-2.4507,-2.4507,-2.4507,-2.4507,-2.4497,-2.4325,-2.4239,-2.4206,-2.412,-2.4067,-2.4153,-2.4605,-2.4988,-2.5369,-2.6218,-2.7172,-2.8189,-2.8194,-2.8591,-2.926,-2.8598,-2.8054,-2.7789,-2.6992,-2.6623,-2.6674,-2.6257,-2.6138,-2.6221,-2.6241,-2.6185,-2.6231,-2.6368,-2.6459,-2.6438,-2.6188,-2.6036,-2.6062,-2.5604,-2.5349,-2.5349,-2.5253,-2.52,-2.52,-2.52,-2.52,-2.52,-2.52,-2.5158,-2.5115,-2.4988,-2.4903,-2.4911,-2.4781,-2.49,-2.5358,-2.5492,-2.5752,-2.6235,-2.603,-2.5924,-2.6099,-2.6207,-2.6265,-2.6052,-2.6004,-2.5917,-2.5781,-2.5732,-2.5684,-2.5684,-2.5684,-2.5732,-2.5684,-2.5684,-2.5742,-2.5889,-2.6269,-2.6699,-2.7109,-2.7539,-2.7973,-2.8256,-2.8301,-2.8301,-2.8354,-2.8514,-2.8887,-2.93,-2.9669,-2.9879,-2.9942,-2.9994,-2.9994,-2.9994,-2.9994,-2.9994,-2.9994,-2.9994,-2.9994,-3.0057,-2.9994,-3.0047,-2.9994,-2.9994,-3.0057,-3.0047,-3.0057,-3.0047,-3.0047,-3.0047,-3.0151,-2.455,-2.4507,-2.4507,-2.4507,-2.4507,-2.4507,-2.4507,-2.4507,-2.4507,-2.4368,-2.4163,-2.3764,-2.3677,-2.3884,-2.4337,-2.4893,-2.5496,-2.626,-2.7352,-2.8623,-2.8666,-2.9171,-2.9942,-2.9161,-2.8578,-2.8231,-2.7219,-2.6913,-2.7197,-2.6794,-2.676,-2.7133,-2.7185,-2.7143,-2.7154,-2.7154,-2.7212,-2.7164,-2.6775,-2.6522,-2.6506,-2.6094,-2.5838,-2.5828,-2.5424,-2.52,-2.5253,-2.52,-2.52,-2.52,-2.5221,-2.5126,-2.4967,-2.4914,-2.4974,-2.5174,-2.5127,-2.541,-2.5982,-2.5892,-2.5953,-2.6376,-2.6214,-2.6079,-2.6091,-2.5917,-2.5781,-2.5723,-2.5723,-2.5732,-2.5684,-2.5684,-2.5684,-2.5684,-2.5684,-2.5684,-2.5684,-2.5684,-2.5889,-2.6289,-2.668,-2.7129,-2.751,-2.792,-2.8213,-2.8281,-2.8301,-2.8301,-2.8291,-2.8514,-2.8684,-2.8887,-2.9248,-2.9617,-2.9659,-2.9879,-2.9942,-2.9994,-2.9994,-2.9994,-2.9994,-2.9994,-2.9994,-2.9994,-2.9994,-2.9994,-2.9994,-2.9994,-2.9994,-2.9994,-2.9994,-2.9994,-2.9994,-2.9994,-3.0047,-2.4507,-2.4507,-2.4507,-2.4507,-2.4507,-2.4507,-2.4507,-2.4497,-2.4368,-2.4292,-2.4163,-2.3841,-2.3807,-2.4057,-2.4519,-2.502,-2.5549,-2.6559,-2.7666,-2.8778,-2.9033,-2.9639,-3.0271,-2.9579,-2.9149,-2.9001,-2.8082,-2.7679,-2.7643,-2.7254,-2.7133,-2.7289,-2.732,-2.732,-2.732,-2.732,-2.732,-2.7299,-2.7123,-2.703,-2.6919,-2.625,-2.5918,-2.5897,-2.5685,-2.5635,-2.5625,-2.5635,-2.5625,-2.5635,-2.5625,-2.5591,-2.5503,-2.5503,-2.5453,-2.5402,-2.5477,-2.5681,-2.5963,-2.5969,-2.6056,-2.6245,-2.6014,-2.5878,-2.5878,-2.5732,-2.5684,-2.5684,-2.5684,-2.5684,-2.5684,-2.5684,-2.5684,-2.5684,-2.5684,-2.5684,-2.5684,-2.5967,-2.6211,-2.6406,-2.6982,-2.7441,-2.7676,-2.8037,-2.8271,-2.8301,-2.8301,-2.8301,-2.8291,-2.8398,-2.8461,-2.8514,-2.8834,-2.9195,-2.9511,-2.9669,-2.9827,-2.9942,-2.9994,-2.9994,-2.9994,-2.9994,-2.9994,-2.9994,-2.9994,-2.9994,-2.9994,-2.9994,-2.9994,-2.9994,-2.9994,-2.9994,-2.9994,-2.9994,-2.9994,-2.4507,-2.4507,-2.4507,-2.4507,-2.4507,-2.4507,-2.4507,-2.4497,-2.4335,-2.4292,-2.4239,-2.4067,-2.4143,-2.4411,-2.4743,-2.52,-2.5802,-2.6812,-2.7912,-2.8919,-2.9383,-2.9979,-3.0599,-3.0034,-2.9623,-2.9393,-2.8839,-2.8279,-2.7914,-2.7584,-2.7347,-2.7309,-2.732,-2.732,-2.732,-2.732,-2.732,-2.732,-2.732,-2.732,-2.7216,-2.6646,-2.6196,-2.6117,-2.5982,-2.593,-2.593,-2.593,-2.593,-2.5885,-2.584,-2.5795,-2.5795,-2.575,-2.5665,-2.5599,-2.5762,-2.5862,-2.5872,-2.5922,-2.6004,-2.5965,-2.5771,-2.5684,-2.5684,-2.5635,-2.5586,-2.5586,-2.5528,-2.5489,-2.5586,-2.5538,-2.5489,-2.5479,-2.5489,-2.5489,-2.5508,-2.5866,-2.6166,-2.6391,-2.694,-2.7505,-2.7641,-2.7946,-2.8184,-2.8184,-2.8237,-2.8301,-2.8301,-2.8291,-2.8291,-2.8291,-2.8461,-2.8781,-2.9248,-2.9554,-2.9659,-2.9827,-2.9879,-2.9994,-2.9994,-2.9994,-2.9994,-2.9994,-2.9994,-2.9994,-2.9994,-2.9994,-2.9994,-2.9994,-2.9994,-2.9994,-2.9994,-2.9994,-2.9994,-2.4507,-2.4507,-2.4507,-2.4507,-2.4507,-2.4507,-2.4507,-2.4507,-2.4497,-2.4497,-2.4454,-2.4454,-2.4615,-2.4818,-2.4903,-2.5369,-2.6168,-2.7004,-2.8094,-2.9293,-2.9689,-3.0202,-3.0916,-3.042,-2.9943,-2.9531,-2.9035,-2.8384,-2.7726,-2.7584,-2.7499,-2.7309,-2.7309,-2.732,-2.732,-2.732,-2.732,-2.732,-2.732,-2.732,-2.7309,-2.7247,-2.6978,-2.6594,-2.6134,-2.5958,-2.5937,-2.5906,-2.5916,-2.5906,-2.5731,-2.5574,-2.5518,-2.529,-2.54,-2.5735,-2.5966,-2.6099,-2.6051,-2.5849,-2.5732,-2.5732,-2.5732,-2.5684,-2.5635,-2.5479,-2.5333,-2.5333,-2.5088,-2.5088,-2.5235,-2.5137,-2.499,-2.499,-2.499,-2.499,-2.499,-2.5438,-2.5768,-2.618,-2.6665,-2.7093,-2.7381,-2.7726,-2.7906,-2.796,-2.813,-2.8291,-2.8301,-2.8301,-2.8301,-2.8301,-2.8344,-2.8398,-2.8727,-2.9142,-2.9448,-2.9659,-2.9827,-2.9994,-2.9994,-2.9994,-2.9994,-2.9994,-2.9994,-2.9994,-2.9994,-2.9994,-2.9994,-2.9994,-2.9994,-2.9994,-2.9994,-2.9994,-2.9994,-2.4507,-2.4507,-2.4507,-2.4507,-2.4507,-2.4507,-2.4507,-2.4507,-2.4507,-2.4507,-2.4507,-2.4507,-2.4711,-2.5073,-2.5242,-2.5611,-2.6304,-2.7603,-2.868,-2.946,-3.0191,-3.0718,-3.0904,-3.0454,-3.0045,-2.9737,-2.922,-2.8664,-2.816,-2.7773,-2.7584,-2.7499,-2.7357,-2.732,-2.732,-2.732,-2.732,-2.732,-2.732,-2.732,-2.732,-2.732,-2.7216,-2.7061,-2.6895,-2.6812,-2.6812,-2.6635,-2.6541,-2.6541,-2.6306,-2.6118,-2.6108,-2.5862,-2.5837,-2.5948,-2.5876,-2.5878,-2.583,-2.5781,-2.5684,-2.5684,-2.5684,-2.5635,-2.5489,-2.5333,-2.5226,-2.503,-2.4794,-2.4735,-2.4784,-2.4833,-2.4892,-2.4892,-2.4892,-2.4892,-2.5015,-2.5519,-2.6011,-2.6238,-2.6759,-2.7217,-2.7311,-2.7476,-2.7691,-2.7853,-2.796,-2.8121,-2.8237,-2.8301,-2.8301,-2.8301,-2.8291,-2.8344,-2.8408,-2.8717,-2.9089,-2.9448,-2.9722,-2.9827,-2.9879,-2.9994,-2.9994,-2.9994,-2.9994,-2.9994,-2.9994,-2.9994,-2.9994,-2.9994,-2.9994,-2.9994,-2.9994,-3.0056,-3.0046,-2.4507,-2.4507,-2.4507,-2.4507,-2.4507,-2.4507,-2.4507,-2.4507,-2.4507,-2.4507,-2.4507,-2.4507,-2.4743,-2.52,-2.5496,-2.5874,-2.6485,-2.7955,-2.8939,-2.9449,-3.049,-3.0984,-3.0939,-3.0589,-3.0227,-2.9886,-2.9359,-2.8896,-2.8535,-2.8066,-2.7773,-2.7594,-2.7441,-2.7347,-2.7309,-2.732,-2.732,-2.732,-2.732,-2.732,-2.732,-2.732,-2.732,-2.732,-2.732,-2.732,-2.7262,-2.7044,-2.689,-2.6842,-2.6544,-2.6342,-2.6207,-2.6062,-2.5965,-2.5955,-2.582,-2.5684,-2.5684,-2.5684,-2.5684,-2.5684,-2.5586,-2.5489,-2.5333,-2.5137,-2.4932,-2.4784,-2.4538,-2.439,-2.444,-2.4538,-2.4695,-2.4686,-2.4686,-2.4646,-2.4742,-2.5417,-2.5989,-2.6364,-2.6751,-2.706,-2.7171,-2.7215,-2.7431,-2.7691,-2.7799,-2.8023,-2.8237,-2.8301,-2.8301,-2.8301,-2.8301,-2.8291,-2.8354,-2.8504,-2.8727,-2.9089,-2.9554,-2.9722,-2.9827,-2.9942,-2.9994,-2.9994,-2.9994,-2.9994,-2.9994,-2.9994,-3.0005,-3.0005,-2.9994,-2.9994,-3.0067,-3.016,-3.0243,-2.4507,-2.4507,-2.4507,-2.4507,-2.4507,-2.4507,-2.4507,-2.4507,-2.4507,-2.4507,-2.4507,-2.4507,-2.4743,-2.52,-2.5644,-2.6146,-2.6729,-2.7836,-2.8763,-2.9449,-3.0523,-3.1029,-3.1017,-3.0972,-3.0567,-2.9931,-2.937,-2.9024,-2.8757,-2.8488,-2.8113,-2.7726,-2.7631,-2.7536,-2.732,-2.7357,-2.7309,-2.732,-2.732,-2.732,-2.732,-2.732,-2.732,-2.7309,-2.7309,-2.7272,-2.7272,-2.7034,-2.6842,-2.6794,-2.6352,-2.6004,-2.5781,-2.5732,-2.5732,-2.5732,-2.5684,-2.5684,-2.5684,-2.5684,-2.5684,-2.5635,-2.543,-2.5294,-2.5137,-2.4843,-2.4587,-2.4489,-2.435,-2.4211,-2.4202,-2.4251,-2.4251,-2.4192,-2.4301,-2.4251,-2.4398,-2.4927,-2.5727,-2.6415,-2.6682,-2.6636,-2.6691,-2.689,-2.7152,-2.7422,-2.7691,-2.8014,-2.8237,-2.8301,-2.8301,-2.8301,-2.8301,-2.8301,-2.8301,-2.8301,-2.8461,-2.8727,-2.9248,-2.9554,-2.9711,-2.9827,-2.9994,-2.9994,-2.9994,-2.9994,-2.9994,-3.0005,-3.0087,-3.0087,-3.0056,-3.018,-3.0387,-3.0563,-3.0636,-2.4507,-2.4507,-2.4507,-2.4507,-2.4507,-2.4507,-2.4507,-2.4507,-2.4507,-2.4507,-2.4507,-2.4507,-2.4754,-2.5211,-2.5686,-2.6146,-2.6659,-2.7668,-2.8592,-2.9484,-3.0631,-3.1172,-3.1184,-3.1184,-3.0814,-3.0182,-2.9943,-2.9542,-2.9082,-2.8814,-2.8477,-2.8196,-2.7951,-2.7726,-2.7536,-2.7499,-2.7452,-2.7309,-2.732,-2.732,-2.732,-2.732,-2.732,-2.7262,-2.7129,-2.7034,-2.6996,-2.6794,-2.6544,-2.64,-2.6014,-2.5781,-2.5732,-2.5684,-2.5684,-2.5684,-2.5684,-2.5684,-2.5684,-2.5684,-2.5596,-2.5489,-2.5333,-2.5137,-2.4784,-2.4627,-2.444,-2.435,-2.4251,-2.4211,-2.4211,-2.4211,-2.4211,-2.4211,-2.4211,-2.422,-2.4358,-2.4955,-2.5736,-2.6399,-2.6591,-2.6591,-2.6636,-2.6836,-2.7098,-2.7368,-2.7691,-2.8014,-2.8237,-2.8301,-2.8301,-2.8301,-2.8301,-2.8301,-2.8301,-2.8301,-2.8408,-2.8621,-2.9036,-2.9396,-2.9554,-2.9827,-2.9942,-2.9994,-2.9994,-3.0036,-3.0025,-3.0087,-3.018,-3.0367,-3.0491,-3.0677,-3.0895,-3.1029,-3.1112,-2.4507,-2.4507,-2.4507,-2.4507,-2.4507,-2.4507,-2.4507,-2.4507,-2.4507,-2.4507,-2.4507,-2.4507,-2.4754,-2.5211,-2.5686,-2.6146,-2.6648,-2.7581,-2.8495,-2.9413,-3.0363,-3.1003,-3.1226,-3.1229,-3.0904,-3.0442,-3.0261,-2.9954,-2.9416,-2.9174,-2.8896,-2.8571,-2.8373,-2.8092,-2.7773,-2.7715,-2.7631,-2.7441,-2.7404,-2.7357,-2.7309,-2.732,-2.732,-2.7262,-2.7129,-2.6938,-2.6757,-2.6554,-2.64,-2.61,-2.5868,-2.5684,-2.5684,-2.5684,-2.5684,-2.5684,-2.5684,-2.5684,-2.5684,-2.5586,-2.5489,-2.5333,-2.5137,-2.4883,-2.4538,-2.443,-2.4291,-2.4251,-2.4211,-2.4211,-2.4211,-2.4211,-2.4211,-2.4211,-2.4211,-2.4349,-2.4633,-2.5231,-2.5821,-2.6408,-2.6591,-2.6591,-2.6636,-2.6845,-2.7098,-2.7377,-2.7691,-2.8014,-2.8237,-2.8301,-2.8301,-2.8301,-2.8301,-2.8301,-2.8301,-2.8301,-2.8354,-2.8568,-2.8887,-2.9132,-2.9343,-2.9722,-2.9994,-2.9994,-2.9994,-3.0201,-3.0232,-3.0315,-3.0419,-3.0657,-3.0946,-3.105,-3.1215,-3.1495,-3.1609,-2.4507,-2.4507,-2.4507,-2.4507,-2.4507,-2.4507,-2.4507,-2.4507,-2.4507,-2.4507,-2.4507,-2.4507,-2.4754,-2.5253,-2.5675,-2.6146,-2.6723,-2.752,-2.8468,-2.9289,-3.0024,-3.0604,-3.1247,-3.1241,-3.1005,-3.0668,-3.0397,-3.0148,-2.9829,-2.9588,-2.9301,-2.8885,-2.8803,-2.856,-2.8139,-2.8045,-2.7904,-2.7678,-2.7594,-2.7489,-2.7367,-2.732,-2.732,-2.732,-2.7214,-2.7023,-2.6651,-2.6496,-2.6342,-2.61,-2.582,-2.5684,-2.5684,-2.5684,-2.5684,-2.5684,-2.5684,-2.5684,-2.5635,-2.5489,-2.5284,-2.5137,-2.4824,-2.448,-2.443,-2.4301,-2.4251,-2.4202,-2.4211,-2.4211,-2.4211,-2.4211,-2.4211,-2.4211,-2.4275,-2.4606,-2.5304,-2.5727,-2.614,-2.6454,-2.6591,-2.6636,-2.6691,-2.6899,-2.7161,-2.7476,-2.7745,-2.8077,-2.8237,-2.8301,-2.8301,-2.8301,-2.8301,-2.8354,-2.8408,-2.8461,-2.8544,-2.8979,-2.9166,-2.9215,-2.9353,-2.9732,-2.9994,-2.9994,-3.016,-3.0346,-3.0491,-3.0584,-3.0864,-3.1247,-3.1402,-3.1412,-3.1609,-3.194,-3.211,-2.4507,-2.4507,-2.4507,-2.4507,-2.4507,-2.4507,-2.4507,-2.4507,-2.4507,-2.4507,-2.4507,-2.4507,-2.4743,-2.5242,-2.5686,-2.6146,-2.6689,-2.7328,-2.8284,-2.9315,-2.9752,-3.0541,-3.1372,-3.154,-3.135,-3.1071,-3.0871,-3.0556,-3.0136,-2.992,-2.9646,-2.9301,-2.9128,-2.8896,-2.8617,-2.8384,-2.8149,-2.7904,-2.7678,-2.7584,-2.7499,-2.7357,-2.732,-2.7309,-2.7129,-2.6938,-2.6747,-2.64,-2.611,-2.583,-2.5732,-2.5684,-2.5684,-2.5684,-2.5684,-2.5684,-2.5684,-2.5586,-2.544,-2.5342,-2.5137,-2.4735,-2.4627,-2.4449,-2.4301,-2.4251,-2.4211,-2.4211,-2.4211,-2.4211,-2.4211,-2.4211,-2.4211,-2.4248,-2.4477,-2.4803,-2.5341,-2.5773,-2.6177,-2.649,-2.6636,-2.6691,-2.6899,-2.7107,-2.7422,-2.7691,-2.796,-2.8184,-2.8237,-2.8301,-2.8301,-2.8301,-2.8301,-2.8461,-2.8514,-2.8568,-2.8827,-2.9417,-2.955,-2.9509,-2.9657,-2.9805,-2.9952,-2.9994,-3.0429,-3.0688,-3.0801,-3.0915,-3.134,-3.1785,-3.1857,-3.1888,-3.2219,-3.252,-3.2602,-2.4507,-2.4507,-2.4507,-2.4507,-2.4507,-2.4507,-2.4507,-2.4507,-2.4507,-2.4507,-2.4507,-2.4507,-2.4743,-2.5242,-2.5686,-2.6135,-2.6655,-2.7467,-2.8425,-2.9404,-3.0248,-3.1001,-3.1577,-3.1705,-3.1572,-3.1306,-3.1184,-3.0859,-3.0442,-3.0227,-3.0,-2.9691,-2.9508,-2.9266,-2.8943,-2.8757,-2.8535,-2.8243,-2.8008,-2.7878,-2.7584,-2.7489,-2.7404,-2.7309,-2.7129,-2.7034,-2.6842,-2.64,-2.5965,-2.5781,-2.5684,-2.5684,-2.5684,-2.5684,-2.5684,-2.5684,-2.5684,-2.5635,-2.5489,-2.5382,-2.5186,-2.4883,-2.4677,-2.444,-2.435,-2.4251,-2.4211,-2.4211,-2.4211,-2.4211,-2.4211,-2.4211,-2.4293,-2.4496,-2.4785,-2.5115,-2.5414,-2.5894,-2.6279,-2.6563,-2.6691,-2.6791,-2.6989,-2.7314,-2.7638,-2.7916,-2.8077,-2.8237,-2.8301,-2.8301,-2.832,-2.835,-2.855,-2.8765,-2.9046,-2.9129,-2.9503,-2.9995,-3.0326,-3.0204,-3.0,-3.0096,-3.0231,-3.0408,-3.075,-3.104,-3.1205,-3.1422,-3.1795,-3.2126,-3.2184,-3.2328,-3.2623,-3.2784,-3.2898,-2.4507,-2.4507,-2.4507,-2.4507,-2.4507,-2.4507,-2.4507,-2.4507,-2.4507,-2.4507,-2.4507,-2.4507,-2.4786,-2.5242,-2.5686,-2.6146,-2.6667,-2.7792,-2.8813,-2.9815,-3.0862,-3.1669,-3.1669,-3.1705,-3.1572,-3.1395,-3.135,-3.1071,-3.0758,-3.0623,-3.0363,-3.0057,-2.9931,-2.9657,-2.9277,-2.9128,-2.885,-2.8524,-2.8337,-2.816,-2.7831,-2.7631,-2.7499,-2.7404,-2.7309,-2.7129,-2.6842,-2.6448,-2.6062,-2.5781,-2.5732,-2.5684,-2.5684,-2.5684,-2.5684,-2.5684,-2.5684,-2.5693,-2.5645,-2.5391,-2.5284,-2.5079,-2.4735,-2.4538,-2.4538,-2.4449,-2.435,-2.4301,-2.4251,-2.4251,-2.422,-2.4238,-2.445,-2.4771,-2.5176,-2.5451,-2.5617,-2.6168,-2.6636,-2.6636,-2.6899,-2.7043,-2.7206,-2.753,-2.7906,-2.8023,-2.8184,-2.8237,-2.8359,-2.8447,-2.8467,-2.8486,-2.8755,-2.9148,-2.9451,-2.9764,-3.0218,-3.0724,-3.1076,-3.1045,-3.0539,-3.0531,-3.0698,-3.0895,-3.1195,-3.1495,-3.1764,-3.2023,-3.2292,-3.237,-3.2452,-3.2613,-3.2794,-3.2841,-3.3012,-2.4507,-2.4507,-2.4507,-2.4507,-2.4507,-2.4507,-2.4507,-2.4507,-2.4507,-2.4507,-2.4507,-2.4507,-2.4786,-2.5242,-2.5686,-2.6146,-2.6798,-2.8078,-2.9283,-3.0594,-3.1292,-3.1681,-3.1705,-3.1705,-3.1673,-3.1572,-3.1395,-3.1261,-3.1071,-3.0758,-3.0578,-3.0454,-3.0068,-2.9851,-2.9703,-2.9324,-2.9093,-2.8907,-2.8581,-2.8348,-2.816,-2.7831,-2.7641,-2.7489,-2.7394,-2.7177,-2.6948,-2.6805,-2.6506,-2.611,-2.583,-2.5732,-2.5732,-2.5684,-2.5684,-2.5684,-2.5684,-2.5635,-2.543,-2.5333,-2.5235,-2.5088,-2.4932,-2.4833,-2.4843,-2.4784,-2.4637,-2.4489,-2.444,-2.4399,-2.4374,-2.4523,-2.4735,-2.5043,-2.5512,-2.5865,-2.601,-2.6486,-2.6862,-2.6944,-2.7161,-2.7422,-2.7628,-2.7745,-2.8014,-2.8174,-2.8257,-2.8301,-2.8437,-2.8603,-2.8721,-2.8799,-2.9231,-2.9701,-3.0067,-3.0459,-3.101,-3.1369,-3.1649,-3.1857,-3.135,-3.1122,-3.1298,-3.1443,-3.1619,-3.1909,-3.2122,-3.2308,-3.2514,-3.2618,-3.2727,-3.2851,-3.2965,-3.3022,-3.3182,-2.4507,-2.4507,-2.4507,-2.4507,-2.4507,-2.4507,-2.4507,-2.4507,-2.4507,-2.4507,-2.4507,-2.4507,-2.4743,-2.52,-2.5696,-2.6287,-2.7391,-2.8846,-3.0184,-3.1124,-3.1609,-3.1693,-3.1705,-3.1705,-3.1705,-3.1673,-3.1584,-3.1439,-3.1217,-3.0949,-3.0724,-3.0578,-3.0239,-3.0011,-2.9886,-2.9508,-2.9266,-2.9082,-2.8757,-2.8535,-2.8348,-2.816,-2.782,-2.7631,-2.7394,-2.7214,-2.7139,-2.6948,-2.6757,-2.6458,-2.6207,-2.5927,-2.5732,-2.5684,-2.5684,-2.5684,-2.5684,-2.5645,-2.5538,-2.5489,-2.543,-2.5294,-2.5196,-2.5088,-2.5039,-2.4981,-2.4833,-2.4726,-2.4695,-2.4702,-2.4868,-2.4986,-2.5265,-2.575,-2.6113,-2.6449,-2.6654,-2.6868,-2.6999,-2.7107,-2.7368,-2.7638,-2.7853,-2.796,-2.8087,-2.8267,-2.8559,-2.8643,-2.876,-2.8935,-2.9141,-2.9372,-2.9806,-3.0257,-3.071,-3.1207,-3.1779,-3.204,-3.2189,-3.2323,-3.2106,-3.1992,-3.1961,-3.2012,-3.1957,-3.225,-3.2499,-3.2628,-3.2727,-3.2727,-3.2851,-3.2965,-3.3136,-3.3239,-3.3523,-2.4611,-2.4611,-2.4673,-2.4704,-2.4693,-2.4735,-2.4704,-2.4621,-2.4611,-2.4611,-2.4507,-2.4507,-2.4743,-2.5264,-2.5794,-2.6723,-2.8268,-2.9644,-3.0929,-3.1541,-3.1713,-3.1749,-3.1705,-3.1705,-3.1705,-3.1705,-3.1673,-3.1572,-3.135,-3.1139,-3.0916,-3.0679,-3.0397,-3.0182,-2.992,-2.968,-2.9439,-2.922,-2.8989,-2.871,-2.8488,-2.8395,-2.8113,-2.7631,-2.7404,-2.7309,-2.7225,-2.7092,-2.6948,-2.69,-2.6699,-2.6314,-2.5975,-2.583,-2.5781,-2.5771,-2.5771,-2.5723,-2.5684,-2.5684,-2.5684,-2.5693,-2.5489,-2.5391,-2.5333,-2.5186,-2.5088,-2.5028,-2.5026,-2.5157,-2.5509,-2.5752,-2.6092,-2.6546,-2.6782,-2.7072,-2.7264,-2.7206,-2.7206,-2.726,-2.7638,-2.796,-2.8023,-2.813,-2.8267,-2.8418,-2.874,-2.9004,-2.9121,-2.9372,-2.9607,-2.9944,-3.0372,-3.091,-3.1368,-3.1661,-3.2256,-3.2375,-3.2566,-3.2556,-3.2535,-3.2489,-3.2333,-3.2266,-3.2339,-3.2571,-3.2711,-3.281,-3.2841,-3.2851,-3.3022,-3.3306,-3.3409,-3.3523,-3.3805,-2.5075,-2.515,-2.5513,-2.5647,-2.5647,-2.5647,-2.5409,-2.5106,-2.5034,-2.4848,-2.4528,-2.4507,-2.4743,-2.5285,-2.6108,-2.7669,-2.9366,-3.0565,-3.1204,-3.1689,-3.1849,-3.1849,-3.1749,-3.1705,-3.1705,-3.1705,-3.1705,-3.1661,-3.1572,-3.1383,-3.1095,-3.0916,-3.0634,-3.0397,-3.0136,-2.9909,-2.968,-2.9405,-2.9128,-2.8896,-2.871,-2.8441,-2.816,-2.7678,-2.7404,-2.732,-2.732,-2.7272,-2.7129,-2.6959,-2.6853,-2.6651,-2.6458,-2.6352,-2.6255,-2.61,-2.6004,-2.5955,-2.583,-2.5732,-2.5732,-2.5693,-2.5693,-2.5635,-2.5635,-2.5596,-2.5508,-2.5418,-2.5462,-2.554,-2.5626,-2.6218,-2.6622,-2.6882,-2.7153,-2.7362,-2.7447,-2.7638,-2.7789,-2.7853,-2.8067,-2.8291,-2.8354,-2.8486,-2.8677,-2.8918,-2.9242,-2.9528,-2.9715,-2.998,-3.0276,-3.0559,-3.09,-3.1461,-3.2031,-3.224,-3.2587,-3.2566,-3.2628,-3.2628,-3.2628,-3.2649,-3.2597,-3.2618,-3.2618,-3.2721,-3.283,-3.2955,-3.3069,-3.3136,-3.3353,-3.3636,-3.3749,-3.3861,-3.4076,-2.5368,-2.5585,-2.5802,-2.593,-2.593,-2.593,-2.5637,-2.523,-2.5179,-2.4931,-2.4611,-2.4497,-2.4743,-2.5328,-2.6205,-2.7935,-2.9855,-3.1148,-3.1595,-3.1881,-3.195,-3.195,-3.1793,-3.1761,-3.1705,-3.1705,-3.1705,-3.1705,-3.1661,-3.1427,-3.1229,-3.0972,-3.0724,-3.0487,-3.0216,-2.9966,-2.9783,-2.9497,-2.9266,-2.8989,-2.8746,-2.843,-2.8055,-2.782,-2.7489,-2.732,-2.732,-2.732,-2.7225,-2.7129,-2.7129,-2.7034,-2.6928,-2.6832,-2.6736,-2.64,-2.6294,-2.6245,-2.6159,-2.612,-2.612,-2.611,-2.611,-2.612,-2.612,-2.6082,-2.6074,-2.6084,-2.6083,-2.6301,-2.6705,-2.7068,-2.7295,-2.7598,-2.7854,-2.7994,-2.813,-2.8344,-2.8388,-2.8441,-2.8504,-2.8631,-2.882,-2.8949,-2.9178,-2.9421,-2.9768,-3.0046,-3.0257,-3.0601,-3.0908,-3.1237,-3.1512,-3.1917,-3.2373,-3.2545,-3.2669,-3.2669,-3.2727,-3.2727,-3.2727,-3.2727,-3.2851,-3.2924,-3.2955,-3.3022,-3.3079,-3.3182,-3.3306,-3.3477,-3.3692,-3.3918,-3.403,-3.4199,-3.4356,-2.5699,-2.6065,-2.6159,-2.62,-2.62,-2.621,-2.5927,-2.5544,-2.5409,-2.5086,-2.4652,-2.4581,-2.4743,-2.5434,-2.6657,-2.8321,-3.0402,-3.1548,-3.1989,-3.1981,-3.2081,-3.2081,-3.195,-3.1805,-3.1705,-3.1705,-3.1705,-3.1705,-3.1661,-3.1528,-3.1273,-3.1017,-3.0781,-3.0532,-3.0227,-3.0057,-2.9783,-2.9497,-2.9312,-2.9024,-2.8664,-2.8279,-2.794,-2.7904,-2.7536,-2.732,-2.732,-2.732,-2.732,-2.7272,-2.7272,-2.732,-2.732,-2.732,-2.7129,-2.6747,-2.6602,-2.6554,-2.6496,-2.6448,-2.64,-2.64,-2.6448,-2.6496,-2.6508,-2.654,-2.6652,-2.6774,-2.7062,-2.7239,-2.7639,-2.7934,-2.8107,-2.8357,-2.8581,-2.8781,-2.8781,-2.8877,-2.8973,-2.8973,-2.893,-2.904,-2.9266,-2.9363,-2.9559,-3.0078,-3.0428,-3.0707,-3.0967,-3.1244,-3.1589,-3.1869,-3.216,-3.2399,-3.2612,-3.2612,-3.2727,-3.2669,-3.2727,-3.2737,-3.2784,-3.2841,-3.3012,-3.325,-3.342,-3.3477,-3.3477,-3.3477,-3.3646,-3.3805,-3.403,-3.4142,-3.4255,-3.43,-3.4412,-2.649,-2.6573,-2.6967,-2.7143,-2.7112,-2.7092,-2.6864,-2.6341,-2.5927,-2.5554,-2.5013,-2.4736,-2.4754,-2.5722,-2.7579,-2.9346,-3.0752,-3.1789,-3.2213,-3.2094,-3.2257,-3.2257,-3.2038,-3.1805,-3.1717,-3.1705,-3.1705,-3.1705,-3.1705,-3.1661,-3.1407,-3.1118,-3.0939,-3.0736,-3.0306,-3.0182,-2.9954,-2.9577,-2.9439,-2.9117,-2.8524,-2.8186,-2.7904,-2.7678,-2.7452,-2.732,-2.732,-2.732,-2.732,-2.732,-2.732,-2.732,-2.732,-2.732,-2.7309,-2.7167,-2.6986,-2.6757,-2.6592,-2.6592,-2.6592,-2.6592,-2.6592,-2.6496,-2.6724,-2.6956,-2.7168,-2.716,-2.7733,-2.8164,-2.8393,-2.8673,-2.8873,-2.8943,-2.8983,-2.9026,-2.9079,-2.9258,-2.9353,-2.9448,-2.9406,-2.9561,-2.9793,-2.989,-3.0047,-3.06,-3.1083,-3.1402,-3.166,-3.1937,-3.2248,-3.2534,-3.2659,-3.2898,-3.2955,-3.2955,-3.2898,-3.2841,-3.2841,-3.2908,-3.3012,-3.3126,-3.3296,-3.3523,-3.3703,-3.3872,-3.3805,-3.3861,-3.3974,-3.4086,-3.4255,-3.4367,-3.4468,-3.4468,-3.4579,-2.7009,-2.7029,-2.7226,-2.732,-2.732,-2.732,-2.704,-2.6584,-2.6072,-2.5627,-2.5158,-2.4704,-2.5176,-2.653,-2.8198,-2.9593,-3.093,-3.1994,-3.2356,-3.23,-3.2431,-3.2431,-3.2213,-3.1994,-3.1849,-3.1705,-3.1705,-3.1705,-3.1705,-3.1661,-3.1496,-3.1241,-3.1074,-3.0838,-3.0397,-3.0261,-2.9943,-2.9577,-2.9209,-2.8896,-2.843,-2.8139,-2.7857,-2.7594,-2.7404,-2.7309,-2.732,-2.732,-2.732,-2.732,-2.732,-2.732,-2.732,-2.732,-2.7309,-2.7262,-2.7214,-2.7071,-2.6976,-2.6928,-2.6928,-2.6928,-2.6959,-2.7088,-2.7245,-2.75,-2.781,-2.8178,-2.8451,-2.8724,-2.8842,-2.8958,-2.9081,-2.9132,-2.929,-2.9343,-2.9396,-2.9564,-2.9732,-2.9774,-2.9888,-3.0142,-3.0383,-3.0663,-3.0874,-3.1406,-3.1815,-3.2127,-3.2364,-3.2561,-3.2887,-3.3161,-3.3229,-3.3296,-3.3353,-3.3342,-3.3342,-3.3285,-3.3285,-3.3296,-3.3353,-3.3466,-3.3636,-3.3805,-3.3974,-3.403,-3.4076,-3.4188,-3.43,-3.4367,-3.4423,-3.4534,-3.4635,-3.4747,-3.4869,-2.732,-2.732,-2.732,-2.732,-2.732,-2.732,-2.7123,-2.676,-2.6169,-2.5699,-2.5391,-2.5095,-2.586,-2.7371,-2.8492,-2.9755,-3.1038,-3.195,-3.2313,-3.2487,-3.2562,-3.255,-3.2344,-3.2125,-3.1893,-3.1705,-3.1705,-3.1705,-3.1705,-3.1661,-3.1572,-3.1306,-3.1107,-3.0871,-3.0578,-3.0306,-2.9988,-2.9531,-2.9071,-2.8664,-2.829,-2.8092,-2.7809,-2.7584,-2.7404,-2.732,-2.732,-2.732,-2.732,-2.732,-2.732,-2.732,-2.732,-2.732,-2.732,-2.7309,-2.7262,-2.7262,-2.7214,-2.7225,-2.732,-2.734,-2.7486,-2.7617,-2.7999,-2.8123,-2.8382,-2.887,-2.9137,-2.9206,-2.9304,-2.9343,-2.9396,-2.9501,-2.9554,-2.9669,-2.9722,-2.9784,-2.9889,-2.9942,-3.0139,-3.0649,-3.0992,-3.1368,-3.1774,-3.2228,-3.256,-3.2846,-3.3012,-3.3126,-3.3353,-3.3625,-3.3568,-3.3579,-3.3692,-3.3681,-3.3681,-3.3681,-3.3681,-3.3738,-3.3749,-3.3918,-3.4076,-3.4188,-3.4343,-3.4534,-3.4747,-3.4691,-3.4635,-3.4702,-3.4758,-3.4758,-3.4869,-3.498,-3.5191,-2.732,-2.732,-2.732,-2.732,-2.732,-2.732,-2.7289,-2.7123,-2.6304,-2.5865,-2.5747,-2.5851,-2.6355,-2.7514,-2.8764,-2.9964,-3.1029,-3.1962,-3.2313,-3.2475,-3.255,-3.2593,-3.2431,-3.2213,-3.1937,-3.1749,-3.1749,-3.1749,-3.1705,-3.1705,-3.1528,-3.1306,-3.1107,-3.0871,-3.0578,-3.0261,-2.9943,-2.9485,-2.9035,-2.856,-2.8233,-2.7987,-2.7809,-2.7452,-2.7309,-2.732,-2.732,-2.732,-2.732,-2.732,-2.732,-2.732,-2.732,-2.732,-2.732,-2.732,-2.732,-2.734,-2.7403,-2.7351,-2.733,-2.7386,-2.7655,-2.8079,-2.8514,-2.897,-2.9198,-2.9312,-2.9559,-2.9755,-2.9869,-2.9889,-2.9774,-2.9774,-2.9827,-2.9827,-2.9889,-2.9889,-2.9994,-3.0047,-3.039,-3.0903,-3.1547,-3.2003,-3.2411,-3.2815,-3.3008,-3.3296,-3.3455,-3.3625,-3.3794,-3.3907,-3.3794,-3.3851,-3.403,-3.4086,-3.4188,-3.4132,-3.4132,-3.4132,-3.4142,-3.4311,-3.4579,-3.4889,-3.5056,-3.5235,-3.5402,-3.5502,-3.5457,-3.5146,-3.5102,-3.5091,-3.5257,-3.5412,-3.5577,-2.732,-2.732,-2.732,-2.732,-2.732,-2.732,-2.732,-2.7206,-2.6625,-2.5958,-2.5557,-2.6075,-2.6744,-2.7624,-2.8821,-3.0057,-3.1059,-3.2006,-3.2313,-3.2519,-3.268,-3.2766,-3.2605,-3.2419,-3.2276,-3.1937,-3.1849,-3.1805,-3.1705,-3.1705,-3.1673,-3.1496,-3.1196,-3.1017,-3.0691,-3.017,-2.9715,-2.9485,-2.9024,-2.856,-2.8128,-2.7987,-2.7762,-2.7357,-2.732,-2.732,-2.732,-2.732,-2.732,-2.732,-2.732,-2.732,-2.732,-2.732,-2.733,-2.7351,-2.7361,-2.7475,-2.7572,-2.7479,-2.7423,-2.7728,-2.809,-2.8545,-2.897,-2.9239,-2.9477,-2.9673,-2.986,-2.9984,-2.9994,-2.9994,-2.9942,-2.9994,-2.9994,-3.0047,-3.0047,-3.0099,-3.0151,-3.0245,-3.0695,-3.121,-3.1878,-3.2596,-3.2987,-3.3364,-3.3505,-3.3692,-3.3851,-3.4019,-3.4244,-3.4423,-3.4356,-3.4468,-3.4646,-3.4702,-3.4702,-3.4635,-3.4579,-3.4646,-3.4646,-3.4924,-3.518,-3.5524,-3.5837,-3.605,-3.6219,-3.6376,-3.6185,-3.567,-3.5457,-3.5423,-3.5588,-3.5852,-3.6004,-2.732,-2.732,-2.732,-2.732,-2.732,-2.732,-2.732,-2.7237,-2.6801,-2.6154,-2.5471,-2.638,-2.7121,-2.7877,-2.9025,-3.0084,-3.1003,-3.1773,-3.2125,-3.2388,-3.2593,-3.268,-3.2593,-3.2407,-3.2201,-3.1981,-3.1893,-3.1805,-3.1705,-3.1705,-3.1717,-3.154,-3.1241,-3.1029,-3.0748,-3.0045,-2.9531,-2.9393,-2.9024,-2.856,-2.8081,-2.7987,-2.7773,-2.7404,-2.732,-2.732,-2.732,-2.732,-2.732,-2.732,-2.732,-2.732,-2.732,-2.733,-2.7382,-2.7407,-2.75,-2.7665,-2.7893,-2.7924,-2.7872,-2.8369,-2.8607,-2.9042,-2.9363,-2.9518,-2.9715,-2.9891,-2.9984,-2.9994,-2.9994,-2.9994,-2.9994,-2.9994,-3.0151,-3.0203,-3.0256,-3.0256,-3.0412,-3.0516,-3.1032,-3.1604,-3.234,-3.3083,-3.3557,-3.3877,-3.3976,-3.4086,-3.4199,-3.4423,-3.4646,-3.4869,-3.5035,-3.5202,-3.5368,-3.5202,-3.508,-3.5035,-3.5024,-3.5135,-3.5257,-3.5523,-3.5802,-3.6061,-3.641,-3.6827,-3.7122,-3.7314,-3.6781,-3.5982,-3.5991,-3.6075,-3.6114,-3.6332,-3.6538,-2.732,-2.732,-2.732,-2.732,-2.732,-2.732,-2.732,-2.7268,-2.6864,-2.6397,-2.6059,-2.689,-2.7517,-2.8205,-2.924,-3.0204,-3.0836,-3.1496,-3.1849,-3.2081,-3.2388,-3.23,-3.2213,-3.2125,-3.2113,-3.1805,-3.1761,-3.1805,-3.1705,-3.1705,-3.1705,-3.1584,-3.1241,-3.0939,-3.0883,-2.9988,-2.952,-2.9439,-2.9035,-2.8513,-2.8128,-2.7987,-2.7762,-2.7404,-2.732,-2.732,-2.732,-2.732,-2.732,-2.732,-2.732,-2.734,-2.7413,-2.7413,-2.7531,-2.7872,-2.7903,-2.8142,-2.8524,-2.8556,-2.8783,-2.9032,-2.9156,-2.9466,-2.9829,-2.9953,-2.9911,-2.9994,-2.9994,-2.9994,-2.9994,-2.9994,-3.0047,-3.0099,-3.0308,-3.0412,-3.0464,-3.0663,-3.08,-3.1105,-3.1602,-3.2157,-3.2901,-3.3584,-3.4084,-3.4401,-3.4468,-3.4524,-3.4534,-3.4758,-3.498,-3.5246,-3.5478,-3.5687,-3.5742,-3.5577,-3.5467,-3.5478,-3.5611,-3.5853,-3.6056,-3.6337,-3.6585,-3.6769,-3.7257,-3.7896,-3.8123,-3.8303,-3.7732,-3.7243,-3.6902,-3.6847,-3.6859,-3.6909,-3.7087,-2.732,-2.732,-2.732,-2.732,-2.732,-2.732,-2.732,-2.7289,-2.7123,-2.6822,-2.6645,-2.7366,-2.7736,-2.8287,-2.9205,-3.0114,-3.0544,-3.1407,-3.1805,-3.1849,-3.2169,-3.23,-3.2225,-3.2094,-3.2081,-3.195,-3.1906,-3.1761,-3.1705,-3.1705,-3.1705,-3.1584,-3.1241,-3.0793,-3.042,-2.9806,-2.9531,-2.9439,-2.9024,-2.856,-2.8081,-2.7987,-2.7773,-2.7378,-2.7351,-2.7372,-2.7413,-2.7434,-2.7434,-2.7434,-2.7434,-2.7517,-2.7634,-2.7707,-2.7914,-2.8266,-2.839,-2.8597,-2.9032,-2.927,-2.9415,-2.9487,-2.958,-2.9787,-2.9984,-2.9994,-2.9994,-2.9994,-3.0047,-3.0047,-2.9994,-3.0193,-3.0245,-3.0349,-3.0453,-3.062,-3.0725,-3.1063,-3.1359,-3.1816,-3.2265,-3.3031,-3.3769,-3.3922,-3.4326,-3.4579,-3.4579,-3.4702,-3.4758,-3.5035,-3.5301,-3.5632,-3.584,-3.6059,-3.6157,-3.6059,-3.6168,-3.6277,-3.6521,-3.6831,-3.7029,-3.7142,-3.7683,-3.8086,-3.8592,-3.9021,-3.917,-3.9239,-3.8973,-3.8657,-3.8313,-3.7809,-3.7598,-3.7668,-3.776,-2.732,-2.732,-2.732,-2.732,-2.732,-2.732,-2.732,-2.732,-2.7309,-2.7123,-2.7061,-2.7672,-2.7989,-2.8278,-2.9054,-2.992,-3.0204,-3.0802,-3.1407,-3.1451,-3.1729,-3.1785,-3.1874,-3.1918,-3.1685,-3.1685,-3.1717,-3.1673,-3.1528,-3.1661,-3.1617,-3.1496,-3.1196,-3.0826,-3.0318,-2.9897,-2.9531,-2.9393,-2.9024,-2.856,-2.8175,-2.7961,-2.7857,-2.7602,-2.7531,-2.7583,-2.7734,-2.7776,-2.7717,-2.7707,-2.7759,-2.7841,-2.8079,-2.8165,-2.84,-2.87,-2.9052,-2.9279,-2.9714,-2.9881,-2.9953,-2.9952,-3.0026,-2.9973,-2.9994,-2.9994,-2.9994,-2.9994,-3.0099,-3.0141,-3.0193,-3.0391,-3.0557,-3.0609,-3.0765,-3.0879,-3.126,-3.1612,-3.1975,-3.2393,-3.2944,-3.3736,-3.4348,-3.4425,-3.4502,-3.4635,-3.4702,-3.4869,-3.5035,-3.5312,-3.5577,-3.5852,-3.6114,-3.6375,-3.6538,-3.6646,-3.6808,-3.7078,-3.7249,-3.7456,-3.77,-3.7796,-3.8583,-3.9282,-3.9472,-3.9707,-4.008,-4.0149,-3.9971,-3.9898,-3.9834,-3.9243,-3.854,-3.8437,-3.8573,-2.732,-2.732,-2.732,-2.732,-2.732,-2.732,-2.732,-2.732,-2.732,-2.7299,-2.7347,-2.7731,-2.8049,-2.8409,-2.8907,-2.9451,-2.9988,-3.0216,-3.0544,-3.0826,-3.1017,-3.1062,-3.1062,-3.1062,-3.1107,-3.1107,-3.1184,-3.1306,-3.1306,-3.1572,-3.1572,-3.135,-3.1151,-3.0871,-3.0454,-2.9943,-2.9577,-2.9393,-2.9035,-2.8578,-2.8231,-2.8125,-2.8084,-2.7945,-2.7966,-2.8121,-2.8276,-2.84,-2.8442,-2.8473,-2.8524,-2.8576,-2.8628,-2.8628,-2.8928,-2.929,-2.9767,-3.0026,-3.0245,-3.038,-3.0484,-3.0441,-3.0255,-3.0099,-3.0099,-3.0151,-3.0203,-3.0256,-3.0308,-3.0401,-3.0443,-3.0609,-3.0827,-3.092,-3.1075,-3.1383,-3.1821,-3.2207,-3.2563,-3.3017,-3.3497,-3.4076,-3.4403,-3.4513,-3.4691,-3.4858,-3.498,-3.5146,-3.5312,-3.5533,-3.5742,-3.5961,-3.6277,-3.6592,-3.6808,-3.697,-3.7239,-3.74,-3.7559,-3.7748,-3.8017,-3.8524,-3.9306,-3.985,-4.0056,-4.0326,-4.0594,-4.0848,-4.094,-4.0889,-4.0607,-4.0168,-3.9364,-3.9356,-3.945,-2.732,-2.732,-2.732,-2.732,-2.732,-2.732,-2.732,-2.732,-2.732,-2.732,-2.7299,-2.7584,-2.7867,-2.8139,-2.8653,-2.9071,-2.9439,-2.9772,-3.0023,-3.025,-3.0375,-3.0408,-3.0408,-3.0454,-3.0544,-3.0679,-3.0814,-3.0982,-3.1306,-3.1572,-3.1717,-3.1584,-3.1196,-3.0972,-3.0601,-2.9954,-2.968,-2.9438,-2.9101,-2.873,-2.8545,-2.8476,-2.8446,-2.8434,-2.8411,-2.8576,-2.868,-2.8721,-2.8721,-2.869,-2.8649,-2.8721,-2.9104,-2.9125,-2.9352,-2.9974,-3.0224,-3.0391,-3.0609,-3.0661,-3.0713,-3.0827,-3.0672,-3.062,-3.0568,-3.0516,-3.0516,-3.0516,-3.0568,-3.0661,-3.0765,-3.092,-3.1023,-3.1178,-3.1408,-3.1804,-3.2215,-3.2681,-3.3049,-3.3519,-3.3988,-3.424,-3.4557,-3.4747,-3.498,-3.5091,-3.5257,-3.5423,-3.5577,-3.5797,-3.5961,-3.618,-3.644,-3.6766,-3.7024,-3.7239,-3.7507,-3.7756,-3.7899,-3.8304,-3.8943,-3.9467,-4.0048,-4.0373,-4.0568,-4.0791,-4.0988,-4.1184,-4.1184,-4.1184,-4.0983,-4.0658,-4.0358,-4.0214,-4.009,-2.732,-2.732,-2.732,-2.732,-2.732,-2.732,-2.732,-2.732,-2.732,-2.732,-2.7309,-2.7547,-2.7678,-2.7904,-2.8384,-2.8757,-2.9035,-2.9359,-2.9646,-2.9817,-2.9863,-2.9909,-2.9943,-2.9943,-2.9988,-3.017,-3.0397,-3.0668,-3.1083,-3.1484,-3.1717,-3.1673,-3.1241,-3.1074,-3.0703,-3.0114,-2.9723,-2.95,-2.9283,-2.8942,-2.8812,-2.8815,-2.883,-2.8894,-2.8887,-2.8959,-2.9104,-2.9104,-2.9135,-2.9156,-2.9156,-2.927,-2.9621,-2.9694,-2.9818,-3.0359,-3.0484,-3.0661,-3.092,-3.0972,-3.1023,-3.1075,-3.1075,-3.1127,-3.0972,-3.092,-3.0817,-3.0724,-3.0879,-3.0983,-3.1086,-3.1178,-3.1281,-3.1373,-3.1736,-3.2154,-3.2612,-3.3082,-3.3584,-3.4043,-3.4328,-3.4603,-3.4813,-3.5047,-3.5213,-3.5423,-3.5577,-3.5742,-3.584,-3.6004,-3.6223,-3.644,-3.6712,-3.6982,-3.7251,-3.7524,-3.7846,-3.8167,-3.8419,-3.8887,-3.9681,-4.015,-4.0398,-4.0779,-4.1079,-4.1242,-4.1242,-4.1184,-4.1184,-4.1242,-4.1242,-4.1037,-4.0812,-4.0775,-4.0583,-2.732,-2.732,-2.732,-2.732,-2.732,-2.732,-2.732,-2.732,-2.732,-2.732,-2.7357,-2.7489,-2.7594,-2.7726,-2.8149,-2.8524,-2.8757,-2.9035,-2.9266,-2.9439,-2.9439,-2.9451,-2.9439,-2.9439,-2.9577,-2.9669,-2.9943,-3.0352,-3.0802,-3.1306,-3.1717,-3.1673,-3.1241,-3.1029,-3.0849,-3.0148,-2.9821,-2.9916,-2.9602,-2.9203,-2.9051,-2.906,-2.9149,-2.9331,-2.9404,-2.9497,-2.9818,-2.9963,-2.9994,-2.9973,-2.9953,-2.9922,-3.0068,-3.0182,-3.0318,-3.0536,-3.0765,-3.0972,-3.1178,-3.1219,-3.1322,-3.1424,-3.1567,-3.1527,-3.1322,-3.1178,-3.1075,-3.1075,-3.1178,-3.123,-3.1281,-3.1373,-3.1476,-3.1508,-3.1785,-3.2274,-3.282,-3.3463,-3.412,-3.4527,-3.4725,-3.498,-3.5091,-3.5257,-3.5478,-3.5687,-3.5906,-3.6004,-3.6168,-3.6266,-3.6429,-3.6646,-3.6862,-3.7155,-3.7483,-3.7846,-3.8234,-3.8575,-3.8876,-3.9333,-4.003,-4.0379,-4.0688,-4.1034,-4.1402,-4.1414,-4.1414,-4.1414,-4.1471,-4.1471,-4.1471,-4.1357,-4.1263,-4.126,-4.1163,-2.732,-2.732,-2.732,-2.732,-2.732,-2.732,-2.732,-2.732,-2.732,-2.732,-2.7309,-2.7357,-2.7441,-2.7641,-2.7961,-2.829,-2.8488,-2.8803,-2.8896,-2.8989,-2.9035,-2.9082,-2.8989,-2.9071,-2.9163,-2.9439,-2.976,-3.0182,-3.0826,-3.1362,-3.1705,-3.1617,-3.1264,-3.1055,-3.1045,-3.033,-3.0133,-3.0354,-2.9976,-2.9785,-2.9714,-2.9579,-2.9619,-2.9777,-2.9839,-2.9818,-2.9994,-2.9994,-2.9994,-2.9994,-2.9994,-3.0088,-3.0287,-3.038,-3.0599,-3.092,-3.1021,-3.1154,-3.1319,-3.1432,-3.1527,-3.1527,-3.1567,-3.1567,-3.1527,-3.1476,-3.1435,-3.1435,-3.1424,-3.1476,-3.1476,-3.1527,-3.1578,-3.1695,-3.1826,-3.2416,-3.307,-3.3835,-3.4659,-3.4902,-3.5135,-3.5257,-3.5356,-3.5522,-3.5687,-3.5906,-3.6125,-3.6277,-3.632,-3.6483,-3.6646,-3.6808,-3.697,-3.7262,-3.7703,-3.8156,-3.8593,-3.9092,-3.9465,-3.9922,-4.0379,-4.087,-4.1237,-4.1473,-4.1675,-4.1688,-4.1757,-4.1871,-4.1871,-4.1757,-4.1757,-4.1643,-4.17,-4.172,-4.1663,-2.732,-2.732,-2.732,-2.732,-2.732,-2.732,-2.732,-2.732,-2.732,-2.732,-2.732,-2.7309,-2.7357,-2.7547,-2.7857,-2.8045,-2.829,-2.8628,-2.8803,-2.8803,-2.8803,-2.885,-2.8803,-2.8803,-2.9024,-2.9301,-2.9897,-3.0454,-3.0972,-3.1451,-3.1661,-3.1677,-3.1383,-3.1325,-3.1247,-3.0844,-3.0673,-3.0882,-3.0402,-3.024,-3.0268,-3.0107,-2.9912,-2.9973,-2.9994,-2.9994,-2.9994,-2.9994,-2.9994,-3.0047,-3.0151,-3.0245,-3.038,-3.0418,-3.06,-3.0783,-3.0976,-3.111,-3.1316,-3.1487,-3.1545,-3.1567,-3.1567,-3.1567,-3.1567,-3.1527,-3.1527,-3.1527,-3.1527,-3.1527,-3.1527,-3.1567,-3.1567,-3.1611,-3.2033,-3.2621,-3.3536,-3.4481,-3.4924,-3.5168,-3.5368,-3.5522,-3.5687,-3.584,-3.6004,-3.6114,-3.6332,-3.644,-3.6538,-3.67,-3.6874,-3.7071,-3.7256,-3.7648,-3.821,-3.8611,-3.8941,-3.9477,-3.9994,-4.0467,-4.093,-4.1456,-4.1846,-4.1915,-4.1972,-4.1984,-4.2041,-4.2155,-4.2098,-4.1984,-4.1984,-4.2041,-4.2098,-4.2155,-4.2086,-2.732,-2.732,-2.732,-2.732,-2.732,-2.732,-2.732,-2.732,-2.732,-2.732,-2.732,-2.732,-2.732,-2.7452,-2.7773,-2.7904,-2.8175,-2.8617,-2.8757,-2.8803,-2.8803,-2.8803,-2.8803,-2.8803,-2.9035,-2.9485,-3.0136,-3.0556,-3.0984,-3.1603,-3.1978,-3.1845,-3.1862,-3.1853,-3.1681,-3.1464,-3.1296,-3.1223,-3.0878,-3.0568,-3.0399,-3.0297,-3.0088,-2.9984,-2.9994,-2.9994,-2.9994,-2.9994,-2.9994,-3.0099,-3.0235,-3.0348,-3.0428,-3.0461,-3.045,-3.0597,-3.0834,-3.0935,-3.105,-3.1389,-3.148,-3.1567,-3.1567,-3.1567,-3.1567,-3.1567,-3.1618,-3.1618,-3.1618,-3.1618,-3.1618,-3.1618,-3.1618,-3.1852,-3.2375,-3.2878,-3.3894,-3.4933,-3.5222,-3.5478,-3.5632,-3.5797,-3.6004,-3.6168,-3.6277,-3.6375,-3.6483,-3.6646,-3.6808,-3.7036,-3.7209,-3.7476,-3.7744,-3.8186,-3.8677,-3.9025,-3.9345,-3.9917,-4.0479,-4.0987,-4.1436,-4.1842,-4.2142,-4.2155,-4.2211,-4.2324,-4.2324,-4.2437,-4.2324,-4.2211,-4.2324,-4.2425,-4.2425,-4.2481,-4.2425,-2.732,-2.732,-2.732,-2.732,-2.732,-2.732,-2.732,-2.732,-2.732,-2.732,-2.732,-2.732,-2.7309,-2.7347,-2.7809,-2.7998,-2.8081,-2.8571,-2.8757,-2.8803,-2.8803,-2.8803,-2.885,-2.8896,-2.9082,-2.9634,-3.0318,-3.0849,-3.1189,-3.2013,-3.2466,-3.231,-3.2827,-3.2721,-3.2289,-3.2041,-3.1795,-3.1623,-3.1139,-3.0669,-3.0525,-3.036,-3.0047,-2.9994,-2.9994,-2.9994,-2.9994,-2.9994,-2.9994,-3.0099,-3.0235,-3.0345,-3.0387,-3.0353,-3.0348,-3.0383,-3.0619,-3.0832,-3.0996,-3.1367,-3.1564,-3.1567,-3.1567,-3.1567,-3.1618,-3.1618,-3.1618,-3.1669,-3.1669,-3.1669,-3.1669,-3.1721,-3.1742,-3.2263,-3.2753,-3.329,-3.4104,-3.5025,-3.5642,-3.5797,-3.595,-3.6114,-3.6223,-3.6375,-3.644,-3.6538,-3.6712,-3.6862,-3.7036,-3.7316,-3.7542,-3.7804,-3.8108,-3.8425,-3.8839,-3.9357,-3.9729,-4.0315,-4.0894,-4.142,-4.1874,-4.2206,-4.2369,-4.2425,-4.2594,-4.2762,-4.2762,-4.265,-4.2706,-4.2706,-4.2818,-4.2874,-4.2806,-4.275,-4.2694]},{"header":{"parameterUnit":"m.s-1","parameterCategory":1,"la1":31.0,"la2":29.5877,"lo1":-88.7671,"lo2":-86.6584,"dy":0.0162,"dx":0.0185,"nx":115,"ny":88,"refTime":"2024-03-10T18:00:00:Z","depth":0,"parameterNumber":3,"parameterNumberName":"V-component_of_WINDS"},"data":[0.0,0.0,0.0,0.0,0.0,0.0,0.0,0.0,0.0,0.0,0.0,0.0,0.0,0.0,0.0,0.0,0.0,0.0,0.0,0.0,0.0,0.0,0.0,0.0,0.0,0.0,0.0,0.0,0.0,0.0,0.0,0.0,0.0,0.0,0.0,0.0,0.0,0.0,0.0,0.0,0.0,0.0,0.0,0.0,0.0,0.0,0.0,0.0,0.0,0.0,0.0,0.0,0.0,0.0,0.0,0.0,0.0,0.0,0.0,0.0,0.0,0.0,0.0,0.0,0.0,0.0,0.0,0.0,0.0,0.0,0.0,0.0,0.0,0.0,0.0,0.0,0.0,0.0,0.0,0.0,0.0,0.0,0.0,0.0,0.0,0.0,0.0,0.0,0.0,0.0,0.0,0.0,0.0,0.0,0.0,0.0,0.0,0.0,0.0,0.0,0.0,0.0,0.0,0.0,0.0,0.0,0.0,0.0,0.0,0.0,0.0,0.0,0.0,0.0,0.0,0.0,0.0,0.0,0.0,0.0,0.0,0.0,0.0,0.0,0.0,0.0,0.0,0.0,0.0,0.0,0.0,0.0,0.0,0.0,0.0,0.0,0.0,0.0,0.0,0.0,0.0,0.0,0.0,0.0,0.0,0.0,0.0,0.0,0.0,0.0,0.0,0.0,0.0,0.0,0.0,0.0,0.0,0.0,0.0,0.0,0.0,0.0,0.0,0.0,0.0,0.0,0.0,0.0,0.0,0.0,0.0,0.0,0.0,0.0,0.0,0.0,0.0,0.0,0.0,0.0,0.0,0.0,0.0,0.0,0.0,0.0,0.0,0.0,0.0,0.0,0.0,0.0,0.0,0.0,0.0,0.0,0.0,0.0,0.0,0.0,0.0,0.0,0.0,0.0,0.0,0.0,0.0,0.0,0.0,0.0,0.0,0.0,0.0,0.0,0.0,0.0,0.0,0.0,0.0,0.0,0.0,0.0,0.0,0.0,0.0,0.0,0.0,0.0,0.0,0.0,0.0,0.0,0.0,0.0,0.0,0.0,0.0,0.0,0.0,0.0,0.0,0.0,0.0,0.0,0.0,0.0,0.0,0.0,0.0,0.0,0.0,0.0,0.0,0.0,0.0,0.0,0.0,0.0,0.0,0.0,0.0,0.0,0.0,0.0,0.0,0.0,0.0,0.0,0.0,0.0,0.0,0.0,0.0,0.0,0.0,0.0,0.0,0.0,0.0,0.0,0.0,0.0,0.0,0.0,0.0,0.0,0.0,0.0,0.0,0.0,0.0,0.0,0.0,0.0,0.0,0.0,0.0,0.0,0.0,0.0,0.0,0.0,0.0,0.0,0.0,0.0,0.0,0.0,0.0,0.0,0.0,0.0,0.0,0.0,0.0,0.0,0.0,0.0,0.0,0.0,0.0,0.0,0.0,0.0,0.0,0.0,0.0,0.0,0.0,0.0,0.0,0.0,0.0,0.0,0.0,0.0,0.0,0.0,0.0,0.0,0.0,0.0,0.0,0.0,0.0,0.0,0.0,0.0,0.0,0.0,0.0,0.0,0.0,0.0,0.0,0.0,0.0,0.0,0.0,0.0,0.0,0.0,0.0,0.0,0.0,0.0,0.0,0.0,0.0,0.0,0.0,0.0,0.0,0.0,0.0,0.0,0.0,0.0,0.0,0.0,0.0,0.0,0.0,0.0,0.0,0.0,0.0,0.0,0.0,0.0,0.0,0.0,0.0,0.0,0.0,0.0,0.0,0.0,0.0,0.0,0.0,0.0,0.0,0.0,0.0,0.0,0.0,0.0,0.0,0.0,0.0,0.0,0.0,0.0,0.0,0.0,0.0,0.0,0.0,0.0,0.0,0.0,0.0,0.0,0.0,0.0,0.0,0.0,0.0,0.0,0.0,0.0,0.0,0.0,0.0,0.0,0.0,0.0,0.0,0.0,0.0,0.0,0.0,0.0,0.0,0.0,0.0,0.0,0.0,0.0,0.0,0.0,0.0,0.0,0.0,0.0,0.0,0.0,0.0,0.0,0.0,0.0,0.0,0.0,0.0,0.0,0.0,0.0,0.0,0.0,0.0,0.0,0.0,0.0,0.0,0.0,0.0,0.0,0.0,0.0,0.0,0.0,0.0,0.0,0.0,0.0,0.0,0.0,0.0,0.0,0.0,0.0,0.0,0.0,0.0,0.0,0.0,0.0,0.0,0.0,0.0,0.0,0.0,0.0,0.0,0.0,0.0,0.0,0.0,0.0,0.0,0.0,0.0,0.0,0.0,0.0,0.0,0.0,0.0,0.0,0.0,0.0,0.0,0.0,0.0,0.0,0.0,0.0,0.0,0.0,0.0,0.0,0.0,0.0,0.0,0.0,0.0,0.0,0.0,0.0,0.0,0.0,0.0,0.0,0.0,0.0,0.0,0.0,0.0,0.0,0.0,0.0,0.0,0.0,0.0,0.0,0.0,0.0,0.0,0.0,0.0,0.0,0.0,0.0,0.0,0.0,0.0,0.0,0.0,0.0,0.0,0.0,0.0,0.0,0.0,0.0,0.0,0.0,0.0,0.0,0.0,0.0,0.0,0.0,0.0,0.0,0.0,0.0,0.0,0.0,0.0,0.0,0.0,0.0,0.0,0.0,0.0,0.0,0.0,0.0,0.0,0.0,0.0,0.0,0.0,0.0,0.0,0.0,0.0,0.0,0.0,0.0,0.0,0.0,0.0,0.0,0.0,0.0,0.0,0.0,0.0,0.0,0.0,0.0,0.0,0.0,0.0,0.0,0.0,0.0,0.0,0.0,0.0,0.0,0.0,0.0,0.0,0.0,0.0,0.0,0.0,0.0,0.0,0.0,0.0,0.0,0.0,0.0,0.0,0.0,0.0,0.0,0.0,0.0,0.0,0.0,0.0,0.0,0.0,0.0,0.0,0.0,0.0,0.0,0.0,0.0,0.0,0.0,0.0,0.0,0.0,0.0,0.0,0.0,0.0,0.0,0.0,0.0,0.0,0.0,0.0,0.0,0.0,0.0,0.0,0.0,0.0,0.0,0.0,0.0,0.0,0.0,0.0,0.0,0.0,0.0,0.0,0.0,0.0,0.0,0.0,0.0,0.0,0.0,0.0,0.0,0.0,0.0,0.0,0.0,0.0,0.0,0.0,0.0,0.0,0.0,0.0,0.0,0.0,0.0,0.0,0.0,0.0,0.0,0.0,0.0,0.0,0.0,0.0,0.0,0.0,0.0,0.0,0.0,0.0,0.0,0.0,0.0,0.0,0.0,0.0,0.0,0.0,0.0,0.0,0.0,0.0,0.0,0.0,0.0,0.0,0.0,0.0,0.0,0.0,0.0,0.0,0.0,0.0,0.0,0.0,0.0,0.0,0.0,0.0,0.0,0.0,0.0,0.0,0.0,0.0,0.0,0.0,0.0,0.0,0.0,0.0,0.0,0.0,0.0,0.0,0.0,0.0,0.0,0.0,0.0,0.0,0.0,0.0,0.0,0.0,0.0,0.0,0.0,0.0,0.0,0.0,0.0,0.0,0.0,0.0,0.0,0.0,0.0,0.0,0.0,0.0,0.0,0.0,0.0,0.0,0.0,0.0,0.0,0.0,0.0,0.0,0.0,0.0,0.0,0.0,0.0,0.0,0.0,0.0,0.0,0.0,0.0,0.0,0.0,0.0,0.0,0.0,0.0,0.0,0.0,0.0,0.0,0.0,0.0,0.0,0.0,0.0,0.0,0.0,0.0,0.0,0.0,0.0,0.0,0.0,0.0,0.0,0.0,0.0,0.0,0.0,0.0,0.0,0.0,0.0,0.0,0.0,0.0,0.0,0.0,0.0,0.0,0.0,0.0,0.0,0.0,0.0,0.0,0.0,0.0,0.0,0.0,0.0,0.0,0.0,0.0,0.0,0.0,0.0,0.0,0.0,0.0,0.0,0.0,0.0,0.0,0.0,0.0,0.0,0.0,0.0,0.0,0.0,0.0,0.0,0.0,0.0,0.0,0.0,0.0,0.0,0.0,0.0,0.0,0.0,0.0,0.0,0.0,0.0,0.0,0.0,0.0,0.0,0.0,0.0,0.0,0.0,0.0,0.0,0.0,0.0,0.0,0.0,0.0,0.0,0.0,0.0,0.0,0.0,0.0,0.0,0.0,0.0,0.0,0.0,0.0,0.0,0.0,0.0,0.0,0.0,0.0,0.0,0.0,0.0,0.0,0.0,0.0,0.0,0.0,0.0,0.0,0.0,0.0,0.0,0.0,0.0,0.0,0.0,0.0,2.3111,0.0,0.0,0.0,0.0,0.0,0.0,0.0,0.0,0.0,0.0,0.0,0.0,0.0,0.0,0.0,0.0,0.0,0.0,0.0,0.0,0.0,0.0,0.0,0.0,0.0,0.0,0.0,0.0,0.0,0.0,0.0,0.0,0.0,0.0,0.0,0.0,0.0,0.0,0.0,0.0,0.0,0.0,0.0,0.0,0.0,0.0,0.0,0.0,0.0,0.0,0.0,0.0,0.0,0.0,0.0,0.0,0.0,0.0,0.0,0.0,0.0,0.0,0.0,0.0,0.0,0.0,0.0,0.0,0.0,0.0,0.0,0.0,0.0,0.0,0.0,0.0,0.0,0.0,0.0,0.0,0.0,0.0,0.0,0.0,0.0,0.0,0.0,0.0,0.0,0.0,0.0,0.0,0.0,0.0,0.0,0.0,0.0,0.0,0.0,0.0,0.0,0.0,0.0,0.0,0.0,0.0,0.0,0.0,0.0,0.0,2.4411,2.4497,2.4301,2.4022,2.3577,0.0,0.0,0.0,0.0,0.0,0.0,0.0,0.0,0.0,0.0,0.0,0.0,0.0,0.0,0.0,0.0,0.0,0.0,0.0,0.0,0.0,0.0,0.0,0.0,0.0,0.0,0.0,0.0,0.0,0.0,0.0,0.0,0.0,0.0,0.0,0.0,0.0,0.0,0.0,0.0,0.0,0.0,0.0,0.0,0.0,0.0,0.0,0.0,0.0,0.0,0.0,0.0,0.0,0.0,0.0,0.0,0.0,0.0,0.0,0.0,0.0,0.0,0.0,0.0,0.0,0.0,0.0,0.0,0.0,0.0,0.0,0.0,0.0,0.0,0.0,0.0,0.0,0.0,0.0,0.0,0.0,0.0,0.0,0.0,0.0,0.0,0.0,0.0,0.0,0.0,0.0,0.0,0.0,0.0,0.0,0.0,0.0,0.0,0.0,0.0,0.0,0.0,0.0,0.0,0.0,0.0,0.0,0.0,0.0,0.0,0.0,0.0,2.4507,2.4281,2.3815,0.0,0.0,0.0,0.0,0.0,0.0,0.0,0.0,0.0,0.0,0.0,0.0,0.0,0.0,0.0,0.0,0.0,0.0,0.0,0.0,0.0,0.0,0.0,0.0,0.0,0.0,0.0,0.0,0.0,0.0,0.0,0.0,0.0,0.0,0.0,0.0,0.0,0.0,0.0,0.0,0.0,0.0,0.0,0.0,0.0,0.0,0.0,0.0,0.0,0.0,0.0,0.0,0.0,0.0,0.0,0.0,0.0,0.0,0.0,0.0,0.0,0.0,0.0,0.0,0.0,0.0,0.0,0.0,0.0,0.0,0.0,0.0,0.0,0.0,0.0,0.0,0.0,0.0,0.0,0.0,0.0,0.0,0.0,0.0,0.0,0.0,0.0,0.0,0.0,0.0,0.0,0.0,0.0,0.0,0.0,0.0,0.0,0.0,0.0,0.0,0.0,0.0,0.0,0.0,0.0,0.0,0.0,0.0,0.0,0.0,2.4507,2.4507,2.4507,0.0,2.3571,0.0,0.0,0.0,0.0,0.0,0.0,0.0,0.0,0.0,0.0,0.0,0.0,0.0,0.0,0.0,0.0,0.0,0.0,0.0,0.0,0.0,0.0,0.0,0.0,0.0,0.0,0.0,0.0,0.0,0.0,0.0,0.0,0.0,0.0,0.0,0.0,0.0,0.0,0.0,0.0,0.0,0.0,0.0,0.0,0.0,0.0,0.0,0.0,0.0,0.0,0.0,0.0,0.0,0.0,0.0,0.0,0.0,0.0,0.0,0.0,0.0,0.0,0.0,0.0,0.0,0.0,0.0,0.0,0.0,0.0,0.0,0.0,0.0,0.0,0.0,0.0,0.0,0.0,0.0,0.0,0.0,0.0,0.0,0.0,0.0,0.0,0.0,0.0,0.0,0.0,0.0,0.0,0.0,0.0,0.0,0.0,0.0,0.0,0.0,0.0,0.0,0.0,0.0,0.0,0.0,0.0,0.0,0.0,0.0,0.0,2.4507,2.4507,2.4658,2.4399,0.0,0.0,0.0,0.0,0.0,0.0,0.0,0.0,0.0,0.0,0.0,0.0,0.0,0.0,0.0,0.0,0.0,0.0,0.0,0.0,0.0,0.0,0.0,0.0,0.0,0.0,0.0,0.0,0.0,0.0,0.0,0.0,0.0,0.0,0.0,0.0,0.0,0.0,0.0,0.0,0.0,0.0,0.0,0.0,0.0,0.0,0.0,0.0,0.0,0.0,0.0,0.0,0.0,0.0,0.0,0.0,0.0,0.0,0.0,0.0,0.0,0.0,0.0,0.0,0.0,0.0,0.0,0.0,0.0,0.0,0.0,0.0,0.0,0.0,0.0,0.0,0.0,0.0,0.0,0.0,0.0,0.0,0.0,0.0,0.0,0.0,0.0,0.0,0.0,0.0,0.0,0.0,0.0,0.0,0.0,0.0,0.0,0.0,0.0,0.0,0.0,0.0,0.0,0.0,0.0,0.0,0.0,0.0,0.0,0.0,2.4583,2.4615,2.47,2.4956,2.4733,2.39,0.0,0.0,0.0,0.0,0.0,0.0,0.0,0.0,0.0,0.0,0.0,0.0,0.0,0.0,0.0,0.0,0.0,0.0,0.0,0.0,0.0,0.0,0.0,0.0,0.0,0.0,0.0,0.0,0.0,0.0,0.0,0.0,0.0,0.0,0.0,0.0,0.0,0.0,0.0,0.0,0.0,0.0,0.0,0.0,0.0,0.0,0.0,0.0,0.0,0.0,0.0,0.0,0.0,0.0,0.0,0.0,0.0,0.0,0.0,0.0,0.0,0.0,0.0,0.0,0.0,0.0,0.0,0.0,0.0,0.0,0.0,0.0,0.0,0.0,0.0,0.0,0.0,0.0,0.0,0.0,0.0,0.0,0.0,0.0,0.0,0.0,0.0,0.0,0.0,0.0,0.0,0.0,0.0,0.0,0.0,0.0,0.0,0.0,0.0,0.0,0.0,0.0,0.0,0.0,0.0,0.0,0.0,0.0,2.4497,2.4743,2.4999,2.5158,2.5433,2.5117,0.0,0.0,0.0,0.0,0.0,0.0,0.0,0.0,0.0,0.0,0.0,0.0,0.0,0.0,0.0,0.0,0.0,0.0,0.0,0.0,0.0,0.0,0.0,0.0,0.0,0.0,0.0,0.0,0.0,0.0,0.0,0.0,0.0,0.0,0.0,0.0,0.0,0.0,0.0,0.0,0.0,0.0,0.0,0.0,0.0,0.0,0.0,0.0,0.0,0.0,0.0,0.0,0.0,0.0,0.0,0.0,0.0,0.0,0.0,0.0,0.0,0.0,0.0,0.0,0.0,0.0,0.0,0.0,0.0,0.0,0.0,0.0,0.0,0.0,0.0,0.0,0.0,0.0,0.0,0.0,0.0,0.0,0.0,0.0,0.0,0.0,0.0,0.0,0.0,0.0,0.0,0.0,0.0,0.0,0.0,0.0,0.0,0.0,0.0,0.0,0.0,0.0,0.0,0.0,0.0,0.0,0.0,0.0,0.0,2.4743,2.4988,2.52,2.5464,2.5517,2.5211,0.0,0.0,0.0,0.0,0.0,0.0,0.0,0.0,0.0,0.0,0.0,0.0,0.0,0.0,0.0,0.0,0.0,0.0,0.0,0.0,0.0,0.0,0.0,0.0,0.0,0.0,0.0,0.0,0.0,0.0,0.0,0.0,0.0,0.0,0.0,0.0,0.0,0.0,0.0,0.0,0.0,0.0,0.0,0.0,0.0,0.0,0.0,0.0,0.0,0.0,0.0,0.0,0.0,0.0,0.0,0.0,0.0,0.0,0.0,0.0,0.0,0.0,0.0,0.0,0.0,0.0,0.0,0.0,0.0,0.0,0.0,0.0,0.0,0.0,0.0,0.0,0.0,0.0,0.0,0.0,0.0,0.0,0.0,0.0,0.0,0.0,0.0,0.0,0.0,0.0,0.0,0.0,0.0,0.0,0.0,0.0,0.0,0.0,0.0,0.0,0.0,0.0,0.0,0.0,0.0,0.0,0.0,0.0,0.0,2.5115,0.0,2.5464,2.5686,2.5534,2.5172,0.0,0.0,0.0,0.0,0.0,0.0,0.0,0.0,0.0,0.0,0.0,0.0,0.0,0.0,0.0,0.0,0.0,0.0,0.0,0.0,0.0,0.0,0.0,0.0,0.0,0.0,0.0,0.0,0.0,0.0,0.0,0.0,0.0,0.0,0.0,0.0,0.0,0.0,0.0,0.0,0.0,0.0,0.0,0.0,0.0,0.0,0.0,0.0,0.0,0.0,0.0,0.0,0.0,0.0,0.0,0.0,0.0,0.0,0.0,0.0,0.0,0.0,0.0,0.0,0.0,0.0,0.0,0.0,0.0,0.0,0.0,0.0,0.0,0.0,0.0,0.0,0.0,0.0,0.0,0.0,0.0,0.0,0.0,0.0,0.0,0.0,0.0,0.0,0.0,0.0,0.0,0.0,0.0,0.0,0.0,0.0,0.0,0.0,0.0,0.0,0.0,0.0,0.0,0.0,0.0,0.0,0.0,0.0,2.5105,2.5538,2.5569,2.5621,2.5874,2.5404,2.4956,0.0,0.0,0.0,0.0,0.0,0.0,0.0,0.0,0.0,0.0,0.0,0.0,0.0,0.0,0.0,0.0,0.0,0.0,0.0,0.0,0.0,0.0,0.0,0.0,0.0,0.0,0.0,0.0,0.0,0.0,0.0,0.0,0.0,0.0,0.0,0.0,0.0,0.0,0.0,0.0,0.0,0.0,0.0,0.0,0.0,0.0,0.0,0.0,0.0,0.0,0.0,0.0,0.0,0.0,0.0,0.0,0.0,0.0,0.0,0.0,0.0,0.0,0.0,0.0,0.0,0.0,0.0,0.0,0.0,0.0,0.0,0.0,0.0,0.0,0.0,0.0,0.0,0.0,0.0,0.0,0.0,0.0,0.0,0.0,0.0,0.0,0.0,0.0,0.0,0.0,0.0,0.0,0.0,0.0,0.0,0.0,0.0,0.0,0.0,0.0,0.0,0.0,0.0,0.0,0.0,0.0,0.0,0.0,0.0,2.4589,2.4619,2.474,2.4923,2.4781,2.4465,0.0,0.0,0.0,0.0,0.0,0.0,0.0,0.0,0.0,0.0,0.0,0.0,0.0,0.0,0.0,0.0,0.0,0.0,0.0,0.0,0.0,0.0,0.0,0.0,0.0,0.0,0.0,0.0,0.0,0.0,0.0,0.0,0.0,0.0,0.0,0.0,0.0,0.0,0.0,0.0,0.0,0.0,0.0,0.0,0.0,0.0,0.0,0.0,0.0,0.0,0.0,0.0,0.0,0.0,0.0,0.0,0.0,0.0,0.0,0.0,0.0,0.0,0.0,0.0,0.0,0.0,0.0,0.0,0.0,0.0,0.0,0.0,0.0,0.0,0.0,0.0,0.0,0.0,0.0,0.0,0.0,0.0,0.0,0.0,0.0,0.0,0.0,0.0,0.0,0.0,0.0,0.0,0.0,0.0,0.0,0.0,0.0,0.0,0.0,0.0,0.0,0.0,0.0,0.0,0.0,0.0,0.0,0.0,0.0,2.3612,2.3863,2.4176,2.4396,2.4183,2.3983,2.3705,0.0,0.0,0.0,0.0,0.0,0.0,0.0,0.0,0.0,0.0,0.0,0.0,0.0,0.0,0.0,0.0,0.0,0.0,0.0,0.0,0.0,0.0,0.0,0.0,0.0,0.0,0.0,0.0,0.0,0.0,0.0,0.0,0.0,0.0,0.0,0.0,0.0,0.0,0.0,0.0,0.0,0.0,0.0,0.0,0.0,0.0,0.0,0.0,0.0,0.0,0.0,0.0,0.0,0.0,0.0,0.0,0.0,0.0,0.0,0.0,0.0,0.0,0.0,0.0,0.0,0.0,0.0,0.0,0.0,0.0,0.0,0.0,0.0,0.0,0.0,0.0,0.0,0.0,0.0,0.0,0.0,0.0,0.0,0.0,0.0,0.0,0.0,0.0,0.0,0.0,0.0,0.0,0.0,0.0,0.0,0.0,0.0,0.0,0.0,0.0,0.0,0.0,0.0,0.0,0.0,0.0,0.0,0.0,2.2676,2.3332,2.382,2.4057,2.3608,2.3459,0.0,0.0,0.0,0.0,0.0,0.0,0.0,0.0,0.0,0.0,0.0,0.0,0.0,0.0,0.0,0.0,0.0,0.0,0.0,0.0,0.0,0.0,0.0,0.0,0.0,0.0,0.0,0.0,0.0,0.0,0.0,0.0,0.0,0.0,0.0,0.0,0.0,0.0,0.0,0.0,0.0,0.0,0.0,0.0,0.0,0.0,0.0,0.0,0.0,0.0,0.0,0.0,0.0,0.0,0.0,0.0,0.0,0.0,0.0,0.0,0.0,0.0,0.0,0.0,0.0,0.0,0.0,0.0,0.0,0.0,0.0,0.0,0.0,0.0,0.0,0.0,0.0,0.0,0.0,0.0,0.0,0.0,0.0,0.0,0.0,0.0,0.0,0.0,0.0,0.0,0.0,0.0,0.0,0.0,0.0,0.0,0.0,0.0,0.0,0.0,0.0,0.0,0.0,0.0,0.0,0.0,0.0,0.0,0.0,2.2305,2.2304,2.2496,2.2851,2.2886,2.2897,0.0,0.0,0.0,0.0,0.0,0.0,0.0,0.0,0.0,0.0,0.0,0.0,0.0,0.0,0.0,0.0,0.0,0.0,0.0,0.0,0.0,0.0,0.0,0.0,0.0,0.0,0.0,0.0,0.0,0.0,0.0,0.0,0.0,0.0,0.0,0.0,0.0,0.0,0.0,0.0,0.0,0.0,0.0,0.0,0.0,0.0,0.0,0.0,0.0,0.0,0.0,0.0,0.0,0.0,0.0,0.0,0.0,0.0,0.0,0.0,0.0,0.0,0.0,0.0,0.0,0.0,0.0,0.0,0.0,0.0,0.0,0.0,0.0,0.0,0.0,0.0,0.0,0.0,0.0,0.0,0.0,0.0,0.0,0.0,0.0,0.0,0.0,0.0,0.0,0.0,0.0,0.0,0.0,0.0,0.0,0.0,0.0,0.0,0.0,0.0,0.0,0.0,0.0,0.0,0.0,0.0,0.0,0.0,2.331,2.2122,2.1921,2.1921,2.2149,2.244,2.2628,0.0,0.0,0.0,0.0,0.0,0.0,0.0,0.0,0.0,0.0,0.0,0.0,0.0,0.0,0.0,0.0,0.0,0.0,0.0,0.0,0.0,0.0,0.0,0.0,0.0,0.0,0.0,0.0,0.0,0.0,0.0,0.0,0.0,0.0,0.0,0.0,0.0,0.0,0.0,0.0,0.0,0.0,0.0,0.0,0.0,0.0,0.0,0.0,0.0,0.0,0.0,0.0,0.0,0.0,0.0,0.0,0.0,0.0,0.0,0.0,0.0,0.0,0.0,0.0,0.0,0.0,0.0,0.0,0.0,0.0,0.0,0.0,0.0,0.0,0.0,0.0,0.0,0.0,0.0,0.0,0.0,0.0,0.0,0.0,0.0,0.0,0.0,0.0,0.0,0.0,0.0,0.0,0.0,0.0,0.0,0.0,0.0,0.0,0.0,0.0,0.0,0.0,0.0,0.0,0.0,0.0,0.0,0.0,2.3321,2.2122,2.1921,2.1807,2.1807,2.2176,2.2478,0.0,0.0,0.0,0.0,0.0,0.0,0.0,0.0,0.0,0.0,0.0,0.0,0.0,0.0,0.0,0.0,0.0,0.0,0.0,0.0,0.0,0.0,0.0,0.0,0.0,0.0,0.0,0.0,0.0,0.0,0.0,0.0,0.0,0.0,0.0,0.0,0.0,0.0,0.0,0.0,0.0,0.0,0.0,0.0,0.0,0.0,0.0,0.0,0.0,0.0,0.0,0.0,0.0,0.0,0.0,0.0,0.0,0.0,0.0,0.0,0.0,0.0,0.0,0.0,0.0,0.0,0.0,0.0,0.0,0.0,0.0,0.0,0.0,0.0,0.0,0.0,0.0,0.0,0.0,0.0,0.0,0.0,0.0,0.0,0.0,0.0,0.0,0.0,0.0,0.0,0.0,0.0,0.0,0.0,0.0,0.0,0.0,0.0,0.0,0.0,0.0,0.0,0.0,0.0,0.0,0.0,0.0,0.0,2.331,2.2132,2.1883,2.1807,2.1807,2.2176,2.244,0.0,0.0,0.0,0.0,0.0,0.0,0.0,0.0,0.0,0.0,0.0,0.0,0.0,0.0,0.0,0.0,0.0,0.0,0.0,0.0,0.0,0.0,0.0,0.0,0.0,0.0,0.0,0.0,0.0,0.0,0.0,0.0,0.0,0.0,0.0,0.0,0.0,0.0,0.0,0.0,0.0,0.0,0.0,0.0,0.0,0.0,0.0,0.0,3.2073,0.0,0.0,0.0,0.0,0.0,0.0,0.0,0.0,0.0,0.0,0.0,0.0,0.0,0.0,0.0,0.0,0.0,0.0,0.0,0.0,0.0,0.0,0.0,0.0,0.0,0.0,0.0,0.0,0.0,0.0,0.0,0.0,0.0,0.0,0.0,0.0,0.0,0.0,0.0,0.0,0.0,0.0,0.0,0.0,0.0,0.0,0.0,0.0,0.0,0.0,0.0,0.0,0.0,0.0,0.0,0.0,0.0,0.0,0.0,2.3281,2.2273,2.2138,2.2073,2.2101,2.2488,2.259,0.0,0.0,0.0,0.0,0.0,0.0,0.0,0.0,0.0,0.0,0.0,0.0,0.0,0.0,0.0,0.0,0.0,0.0,0.0,0.0,0.0,0.0,0.0,0.0,0.0,0.0,0.0,0.0,0.0,0.0,0.0,0.0,0.0,0.0,0.0,0.0,0.0,0.0,0.0,0.0,0.0,0.0,0.0,0.0,0.0,0.0,0.0,0.0,0.0,0.0,0.0,0.0,0.0,0.0,0.0,0.0,0.0,0.0,0.0,0.0,0.0,0.0,0.0,0.0,0.0,0.0,0.0,0.0,0.0,0.0,0.0,0.0,0.0,0.0,0.0,0.0,0.0,0.0,0.0,0.0,0.0,0.0,0.0,0.0,0.0,0.0,0.0,0.0,0.0,0.0,0.0,0.0,0.0,0.0,0.0,0.0,0.0,0.0,0.0,0.0,0.0,0.0,0.0,0.0,0.0,0.0,0.0,2.4012,2.3291,2.2537,2.2478,2.244,2.244,2.2852,2.2889,2.2601,0.0,0.0,0.0,0.0,0.0,0.0,0.0,0.0,0.0,0.0,0.0,0.0,0.0,0.0,0.0,0.0,0.0,0.0,0.0,0.0,0.0,0.0,0.0,0.0,0.0,0.0,0.0,0.0,0.0,0.0,0.0,0.0,0.0,0.0,0.0,0.0,0.0,0.0,3.2205,3.2241,0.0,0.0,0.0,0.0,0.0,0.0,0.0,0.0,3.2372,0.0,0.0,0.0,0.0,0.0,0.0,0.0,0.0,0.0,0.0,0.0,0.0,0.0,0.0,0.0,0.0,0.0,0.0,0.0,0.0,0.0,0.0,0.0,0.0,0.0,0.0,0.0,0.0,0.0,0.0,0.0,0.0,0.0,0.0,0.0,0.0,0.0,0.0,0.0,0.0,0.0,0.0,0.0,0.0,0.0,0.0,0.0,0.0,0.0,0.0,0.0,0.0,0.0,0.0,0.0,0.0,2.5239,2.4244,2.3417,2.29,2.274,2.2665,2.2665,2.3038,2.3298,2.3453,0.0,0.0,0.0,0.0,0.0,0.0,0.0,0.0,0.0,0.0,0.0,0.0,0.0,0.0,0.0,0.0,0.0,0.0,0.0,0.0,0.0,0.0,0.0,0.0,0.0,0.0,0.0,0.0,0.0,0.0,0.0,0.0,0.0,0.0,0.0,0.0,0.0,0.0,0.0,3.2345,3.2431,0.0,0.0,0.0,0.0,0.0,0.0,0.0,0.0,3.2632,0.0,0.0,0.0,0.0,0.0,0.0,0.0,0.0,0.0,0.0,0.0,0.0,0.0,0.0,0.0,0.0,0.0,0.0,0.0,0.0,0.0,0.0,0.0,0.0,0.0,0.0,0.0,0.0,0.0,0.0,0.0,0.0,0.0,0.0,0.0,0.0,0.0,0.0,0.0,0.0,0.0,0.0,0.0,0.0,0.0,0.0,0.0,0.0,0.0,0.0,0.0,0.0,0.0,0.0,0.0,2.5302,2.4435,2.3802,2.3457,2.3261,2.3224,2.3335,2.3641,2.3985,0.0,0.0,0.0,0.0,0.0,0.0,0.0,0.0,0.0,0.0,0.0,0.0,0.0,0.0,0.0,0.0,0.0,0.0,0.0,0.0,0.0,0.0,0.0,0.0,0.0,0.0,0.0,0.0,0.0,0.0,0.0,0.0,0.0,0.0,0.0,0.0,0.0,0.0,0.0,0.0,3.2561,3.272,3.3146,0.0,0.0,0.0,0.0,0.0,0.0,3.2966,3.3016,0.0,0.0,0.0,0.0,0.0,0.0,0.0,0.0,0.0,0.0,0.0,0.0,0.0,0.0,0.0,0.0,0.0,0.0,0.0,0.0,0.0,0.0,0.0,0.0,0.0,0.0,0.0,0.0,0.0,0.0,0.0,0.0,0.0,0.0,0.0,0.0,0.0,0.0,0.0,0.0,0.0,0.0,0.0,0.0,0.0,0.0,0.0,0.0,0.0,0.0,0.0,0.0,0.0,0.0,0.0,2.5419,2.4649,2.4225,2.4043,2.3861,2.3861,2.4068,2.4261,2.4664,0.0,0.0,0.0,0.0,0.0,0.0,0.0,0.0,0.0,0.0,0.0,0.0,0.0,0.0,0.0,0.0,0.0,0.0,0.0,0.0,0.0,0.0,0.0,0.0,0.0,0.0,0.0,0.0,0.0,0.0,0.0,0.0,0.0,0.0,0.0,0.0,0.0,0.0,0.0,0.0,0.0,3.3473,3.4046,3.3806,0.0,0.0,0.0,0.0,3.341,3.3515,0.0,0.0,0.0,0.0,0.0,0.0,0.0,0.0,0.0,0.0,0.0,0.0,0.0,0.0,0.0,0.0,0.0,0.0,0.0,0.0,0.0,0.0,0.0,0.0,0.0,0.0,0.0,0.0,0.0,0.0,0.0,0.0,0.0,0.0,0.0,0.0,0.0,0.0,0.0,0.0,0.0,0.0,0.0,0.0,0.0,0.0,0.0,0.0,0.0,0.0,0.0,0.0,0.0,0.0,0.0,0.0,2.5996,2.5098,2.4563,2.4454,2.4418,2.4467,2.4612,2.4802,2.5123,0.0,0.0,0.0,0.0,0.0,0.0,0.0,0.0,0.0,0.0,0.0,0.0,0.0,0.0,0.0,0.0,0.0,0.0,0.0,0.0,0.0,0.0,0.0,0.0,0.0,0.0,0.0,0.0,0.0,0.0,0.0,0.0,0.0,0.0,0.0,0.0,0.0,0.0,0.0,0.0,0.0,3.5263,3.5516,3.551,3.5481,0.0,0.0,3.5253,3.4683,3.4597,0.0,0.0,0.0,0.0,0.0,0.0,0.0,0.0,0.0,0.0,0.0,0.0,0.0,0.0,0.0,0.0,0.0,0.0,0.0,0.0,0.0,0.0,0.0,0.0,0.0,0.0,0.0,0.0,0.0,0.0,0.0,0.0,0.0,0.0,0.0,0.0,0.0,0.0,0.0,0.0,0.0,0.0,0.0,0.0,0.0,0.0,0.0,0.0,0.0,0.0,0.0,0.0,0.0,0.0,0.0,2.6951,2.6171,2.5632,2.5276,2.5111,2.5016,2.504,2.5182,2.5382,2.5787,0.0,0.0,0.0,0.0,0.0,0.0,0.0,0.0,0.0,0.0,0.0,0.0,0.0,0.0,0.0,0.0,0.0,0.0,0.0,0.0,0.0,0.0,0.0,0.0,0.0,0.0,0.0,0.0,0.0,0.0,0.0,0.0,0.0,0.0,0.0,0.0,0.0,0.0,0.0,0.0,0.0,0.0,3.6577,3.6425,0.0,0.0,0.0,3.6178,3.5874,0.0,0.0,0.0,0.0,0.0,0.0,0.0,0.0,0.0,0.0,0.0,0.0,0.0,0.0,0.0,0.0,0.0,0.0,0.0,0.0,0.0,0.0,0.0,0.0,0.0,0.0,0.0,0.0,0.0,0.0,0.0,0.0,0.0,0.0,0.0,0.0,0.0,0.0,0.0,0.0,0.0,0.0,0.0,0.0,0.0,0.0,0.0,0.0,0.0,0.0,0.0,0.0,0.0,0.0,0.0,0.0,0.0,2.6349,2.6176,2.6002,2.5816,2.5664,2.5664,2.5886,2.6002,0.0,0.0,0.0,0.0,0.0,0.0,0.0,0.0,0.0,0.0,0.0,0.0,0.0,0.0,0.0,0.0,0.0,0.0,0.0,0.0,0.0,0.0,0.0,0.0,0.0,0.0,0.0,3.3213,0.0,0.0,0.0,0.0,0.0,0.0,0.0,0.0,0.0,0.0,0.0,0.0,0.0,0.0,3.7171,3.7602,3.736,3.73,0.0,0.0,3.7137,3.6996,3.6981,3.7052,0.0,0.0,0.0,0.0,0.0,0.0,0.0,0.0,0.0,0.0,0.0,0.0,0.0,0.0,0.0,0.0,0.0,0.0,0.0,0.0,0.0,0.0,0.0,0.0,0.0,0.0,0.0,0.0,0.0,0.0,0.0,0.0,0.0,0.0,0.0,0.0,0.0,0.0,0.0,0.0,0.0,0.0,0.0,0.0,0.0,0.0,0.0,0.0,0.0,0.0,0.0,0.0,0.0,0.0,2.7398,2.6705,2.6645,2.6543,2.6346,2.6346,2.6427,2.6624,2.6645,2.6854,0.0,0.0,0.0,0.0,0.0,0.0,0.0,0.0,0.0,0.0,0.0,0.0,0.0,0.0,0.0,0.0,0.0,0.0,0.0,0.0,0.0,0.0,0.0,0.0,0.0,0.0,0.0,0.0,0.0,0.0,0.0,0.0,0.0,0.0,0.0,0.0,0.0,0.0,0.0,0.0,0.0,3.8679,3.8672,3.8694,3.8679,0.0,3.8679,3.8501,3.8074,3.8005,3.8041,3.8247,0.0,0.0,0.0,0.0,0.0,0.0,0.0,0.0,0.0,0.0,0.0,0.0,0.0,0.0,0.0,0.0,0.0,0.0,0.0,0.0,0.0,0.0,0.0,0.0,0.0,0.0,0.0,0.0,0.0,0.0,0.0,0.0,0.0,0.0,0.0,0.0,0.0,0.0,0.0,0.0,0.0,0.0,0.0,0.0,0.0,0.0,0.0,0.0,0.0,0.0,0.0,0.0,0.0,2.7779,2.739,2.739,2.7289,2.7087,2.7087,2.7121,2.7188,2.731,2.7443,0.0,0.0,0.0,0.0,0.0,0.0,0.0,0.0,0.0,0.0,0.0,0.0,0.0,0.0,0.0,0.0,0.0,0.0,0.0,0.0,0.0,0.0,0.0,0.0,0.0,0.0,0.0,0.0,3.5701,3.5765,3.5878,0.0,0.0,0.0,0.0,0.0,0.0,0.0,0.0,0.0,0.0,3.9538,3.9538,3.9553,0.0,0.0,3.9553,3.9499,3.9314,3.9269,3.9305,3.939,3.939,0.0,0.0,0.0,0.0,0.0,0.0,0.0,0.0,0.0,0.0,0.0,0.0,0.0,0.0,0.0,0.0,0.0,0.0,0.0,0.0,0.0,0.0,0.0,0.0,0.0,0.0,0.0,0.0,0.0,0.0,0.0,0.0,0.0,0.0,0.0,0.0,0.0,0.0,0.0,0.0,0.0,0.0,0.0,0.0,0.0,0.0,0.0,0.0,0.0,0.0,0.0,0.0,2.8164,2.8039,2.8052,2.7973,2.7822,2.7822,2.7835,2.7822,2.7954,2.8052,0.0,0.0,0.0,0.0,0.0,0.0,0.0,0.0,0.0,0.0,0.0,0.0,0.0,0.0,0.0,0.0,0.0,0.0,0.0,0.0,0.0,0.0,0.0,0.0,0.0,0.0,0.0,0.0,3.61,3.6147,3.6147,0.0,0.0,0.0,0.0,0.0,0.0,0.0,0.0,0.0,0.0,4.0011,4.0011,4.0011,4.0011,4.0011,4.0011,3.9996,4.0081,4.0066,4.0101,4.0137,0.0,0.0,0.0,0.0,0.0,0.0,0.0,0.0,0.0,0.0,0.0,0.0,0.0,0.0,0.0,0.0,0.0,0.0,0.0,0.0,0.0,0.0,0.0,0.0,0.0,0.0,0.0,3.0973,0.0,0.0,3.1246,0.0,0.0,0.0,0.0,0.0,0.0,0.0,0.0,0.0,0.0,0.0,0.0,0.0,0.0,0.0,0.0,0.0,0.0,0.0,0.0,0.0,0.0,2.8587,2.8587,2.8587,2.8587,2.8587,2.8587,2.8587,2.8554,2.8587,2.8638,2.8771,0.0,0.0,0.0,0.0,0.0,0.0,0.0,0.0,0.0,0.0,0.0,0.0,0.0,0.0,0.0,0.0,0.0,0.0,0.0,0.0,0.0,0.0,0.0,0.0,0.0,0.0,3.6164,3.6383,3.6492,0.0,0.0,0.0,0.0,0.0,0.0,0.0,0.0,0.0,4.0011,4.0011,4.0011,4.0011,4.0011,4.0011,4.0026,4.0026,4.0081,4.0323,4.0342,4.0331,0.0,0.0,0.0,0.0,0.0,0.0,0.0,0.0,0.0,0.0,0.0,0.0,0.0,0.0,0.0,0.0,0.0,0.0,0.0,0.0,0.0,0.0,0.0,0.0,0.0,0.0,0.0,3.1388,3.1405,0.0,0.0,0.0,0.0,0.0,0.0,0.0,0.0,0.0,0.0,0.0,3.2169,3.2287,0.0,0.0,0.0,0.0,0.0,0.0,0.0,0.0,0.0,0.0,0.0,0.0,2.9257,2.9257,2.9257,2.9257,2.9257,2.9257,2.9257,2.9271,2.9257,2.9306,2.9467,0.0,0.0,0.0,0.0,0.0,0.0,0.0,0.0,0.0,0.0,0.0,0.0,0.0,0.0,0.0,0.0,0.0,0.0,0.0,0.0,0.0,0.0,0.0,0.0,0.0,3.6352,0.0,0.0,0.0,0.0,0.0,0.0,0.0,0.0,0.0,0.0,0.0,4.0331,4.0331,4.0331,4.0331,4.0331,4.0316,4.05,0.0,0.0,0.0,0.0,0.0,0.0,0.0,0.0,0.0,0.0,0.0,0.0,0.0,0.0,4.0658,4.0489,4.0231,3.997,3.9864,0.0,0.0,0.0,0.0,0.0,0.0,0.0,0.0,0.0,0.0,0.0,0.0,0.0,0.0,3.1611,3.1664,3.1201,0.0,0.0,0.0,0.0,0.0,0.0,0.0,0.0,3.3363,3.3097,3.2662,3.2568,3.2457,3.2344,3.2121,3.1978,0.0,0.0,0.0,0.0,0.0,0.0,0.0,0.0,2.996,3.0021,2.996,2.996,3.0021,3.0204,3.0287,3.0287,3.0301,3.0218,3.0083,3.0251,3.0417,0.0,0.0,0.0,0.0,0.0,0.0,0.0,0.0,0.0,0.0,0.0,0.0,0.0,0.0,0.0,0.0,0.0,0.0,0.0,0.0,0.0,0.0,0.0,3.6677,0.0,0.0,0.0,0.0,0.0,0.0,0.0,0.0,0.0,3.9524,4.0074,4.0489,4.0489,4.0759,4.0932,4.0948,0.0,0.0,0.0,0.0,0.0,0.0,0.0,4.2998,4.2983,4.2498,4.2056,4.1841,4.1484,4.1203,4.1254,0.0,0.0,4.095,4.0696,4.0509,4.0424,4.0231,4.0056,4.0001,3.9879,3.9758,0.0,0.0,0.0,0.0,3.2664,0.0,0.0,0.0,3.1914,3.1697,0.0,3.1775,0.0,0.0,0.0,0.0,3.3134,3.4032,0.0,0.0,3.4421,3.4035,3.3683,3.3065,3.252,3.2057,3.2752,3.3086,3.2982,3.1531,0.0,0.0,0.0,0.0,0.0,0.0,3.0746,3.0895,3.0775,3.079,3.091,3.1374,3.1678,3.1647,3.1618,3.1327,3.0715,3.0776,3.091,3.1014,3.1219,0.0,0.0,0.0,0.0,0.0,0.0,0.0,0.0,0.0,0.0,0.0,0.0,0.0,0.0,0.0,0.0,0.0,0.0,0.0,0.0,3.7045,0.0,0.0,0.0,0.0,0.0,0.0,0.0,0.0,0.0,3.9987,3.9653,4.0124,4.0539,4.057,0.0,0.0,0.0,0.0,4.3212,4.3192,4.3243,4.3243,4.3254,4.329,4.3305,4.3305,0.0,0.0,4.1447,4.1355,4.1421,4.1555,4.1604,4.1505,4.1203,4.1102,4.1034,4.0867,4.0799,4.073,4.0558,4.0489,4.0489,3.2474,0.0,0.0,0.0,0.0,3.3006,3.2908,3.2783,3.2157,3.2035,3.2252,3.1704,0.0,0.0,0.0,0.0,0.0,0.0,3.5063,3.4978,3.483,3.4607,3.4267,3.4185,3.41,3.4058,3.4304,3.4512,3.4695,3.3906,3.3333,3.2961,0.0,0.0,0.0,0.0,3.2674,3.2735,3.2705,3.2705,3.2735,3.2868,3.2957,3.2957,3.2481,3.2139,3.1961,3.1632,3.1437,3.1495,3.1682,0.0,0.0,0.0,0.0,0.0,0.0,0.0,0.0,0.0,0.0,0.0,0.0,0.0,0.0,0.0,0.0,0.0,0.0,0.0,3.7284,3.7419,3.7654,0.0,0.0,0.0,0.0,0.0,0.0,0.0,0.0,0.0,4.0686,4.0792,4.1103,0.0,0.0,4.2202,4.2716,4.3036,4.3383,4.3831,4.3909,0.0,4.458,4.4752,4.4846,4.4846,4.4342,4.3598,4.2501,4.238,4.2273,4.1732,4.1703,4.18,4.1669,4.1421,4.1254,4.1156,4.107,4.1,4.0916,4.0932,4.0932,3.2751,3.3214,3.3336,3.3293,3.3103,3.3047,3.2992,3.2854,3.2273,3.2182,3.2428,3.1933,3.1935,3.2269,3.233,0.0,0.0,0.0,3.581,3.5676,3.5477,3.535,3.5256,3.5047,3.5077,3.5259,3.5603,3.583,3.6015,3.5969,3.5763,3.5318,0.0,3.3999,3.3909,3.3909,3.3939,3.3969,3.3894,3.3939,3.3969,3.4182,3.4288,3.4273,3.3819,3.3321,3.2792,3.2472,3.2211,3.1994,3.2135,3.2262,0.0,0.0,0.0,0.0,0.0,0.0,0.0,0.0,0.0,0.0,0.0,3.7105,3.7165,0.0,0.0,0.0,3.7478,3.7522,3.7581,3.7714,0.0,0.0,0.0,0.0,0.0,0.0,0.0,4.1738,4.1637,4.1488,4.1488,4.1488,4.1563,4.1768,4.2084,4.2576,4.3403,0.0,4.4264,4.4957,4.5016,4.5158,4.5583,4.5755,4.5733,4.5448,4.516,4.4564,4.3566,4.3413,4.3271,4.2854,4.2776,4.2858,4.2858,4.2627,4.2238,4.1682,4.1421,4.1288,4.1288,4.1303,4.1288,3.2795,3.3354,3.3366,3.3258,3.3105,3.2736,3.2659,3.283,3.2296,3.2219,3.2453,3.248,3.2496,3.2635,3.3887,0.0,3.5597,3.6399,3.6708,3.6723,3.6314,3.6254,3.6485,3.5909,3.5761,3.6005,3.6694,3.7014,3.7046,3.7598,3.7831,3.7698,3.5777,3.4759,3.473,3.4701,3.4761,3.4893,3.479,3.4761,3.4893,3.5349,3.5629,3.5613,3.54,3.4681,3.3472,3.3303,3.3023,3.2548,3.2578,3.2699,3.287,0.0,0.0,0.0,0.0,0.0,0.0,0.0,0.0,0.0,0.0,0.0,0.0,0.0,0.0,0.0,3.7947,0.0,3.8072,3.8072,0.0,0.0,0.0,4.0458,4.1195,4.1789,4.2174,4.2142,0.0,0.0,4.2142,4.2142,4.1948,4.1489,4.2122,4.2986,4.3888,4.471,4.5517,4.6023,4.625,4.6298,4.6227,4.6243,4.6087,4.5543,4.5373,4.5149,4.4543,4.4401,4.4385,4.4207,4.4305,4.4273,4.4289,4.4191,4.3853,4.2409,4.1991,4.186,4.1923,4.1939,4.1955,3.2882,3.3037,3.3027,3.3141,3.3325,3.3217,3.2992,3.2653,3.2636,3.2726,3.2947,3.3054,3.3374,3.3893,3.4773,3.5501,3.6072,3.6761,3.7074,3.7088,3.7081,3.7166,3.7388,3.7473,3.758,3.7637,3.7911,3.8036,3.8036,3.8084,3.8107,3.8033,3.7409,3.6914,3.6573,3.6454,3.641,3.6456,3.6425,3.641,3.6456,3.6581,3.6644,3.6628,3.6101,3.5682,3.534,3.4299,3.3662,3.3531,3.3107,3.2827,3.2912,3.3005,0.0,0.0,0.0,0.0,0.0,0.0,0.0,0.0,0.0,3.7801,3.7927,0.0,3.8116,0.0,3.8528,3.8811,3.9394,3.9398,0.0,0.0,4.1496,4.1871,4.2555,4.2676,4.2696,4.2713,4.2586,4.2491,4.2491,4.2491,4.2507,4.2508,4.2815,4.3336,4.4074,4.4811,4.5341,4.5584,4.6013,4.6298,4.6298,4.6298,4.6269,4.609,4.6058,4.5853,4.5184,4.519,4.5082,4.4483,4.4372,4.4423,4.4487,4.4388,4.4274,4.3922,4.3759,4.3674,4.3658,4.3625,4.3658,3.4198,3.4166,3.3866,3.3837,3.3971,3.3414,3.3072,3.2931,3.2996,3.3145,3.3404,3.38,3.4319,3.5002,3.5745,3.6375,3.688,3.7275,3.7389,3.7329,3.7419,3.7567,3.7788,3.7992,3.8135,3.8278,3.8363,3.8391,3.8391,3.8307,3.8294,3.8294,3.8107,3.7889,3.7655,3.7435,3.7271,3.7211,3.7211,3.7211,3.7227,3.7211,3.7211,3.7195,3.6775,3.6385,3.6072,3.5336,3.4632,3.4006,3.3685,3.3383,3.3101,3.3203,3.3282,0.0,0.0,0.0,0.0,0.0,0.0,0.0,0.0,0.0,0.0,0.0,3.8613,3.9135,3.9224,3.9575,4.0312,4.0377,4.0836,4.1966,4.2081,4.2343,4.3031,4.3021,4.2976,4.2976,4.2898,4.282,4.282,4.282,4.2851,4.2976,4.3361,4.3784,4.4172,4.4818,4.54,4.5758,4.6371,4.6789,4.6719,4.6684,4.6649,4.658,4.6563,4.6435,4.6099,4.6104,4.5993,4.557,4.5508,4.5575,4.5575,4.5508,4.5474,4.5558,4.5524,4.518,4.4449,4.4321,4.4321,3.5785,3.5753,3.5177,3.4921,3.4846,3.3655,3.3228,3.3346,3.3372,3.3576,3.3947,3.4609,3.5321,3.6064,3.6673,3.7262,3.7743,3.773,3.7642,3.7539,3.7524,3.7642,3.7905,3.7934,3.8107,3.8391,3.8391,3.8391,3.8391,3.8391,3.8391,3.8391,3.8278,3.8237,3.8209,3.7905,3.7671,3.7569,3.7553,3.7553,3.7539,3.7539,3.7539,3.751,3.7329,3.6987,3.6389,3.6266,3.5668,3.4514,3.4466,3.4216,3.3662,3.3747,3.3799,0.0,3.4558,0.0,0.0,0.0,0.0,0.0,0.0,0.0,0.0,3.8887,3.9297,3.991,4.0041,4.0385,4.1123,4.1189,4.1468,4.2173,4.2288,4.2518,4.3092,4.3157,4.3174,4.3174,4.3174,4.3157,4.3174,4.3239,4.3289,4.3403,4.3994,4.4438,4.4502,4.5046,4.5734,4.6356,4.7011,4.7335,4.7217,4.7217,4.7149,4.6996,4.6961,4.6996,4.6963,4.6929,4.6878,4.6862,4.6813,4.6828,4.6911,4.6844,4.6844,4.6779,4.6763,4.6304,4.5148,4.4807,4.4645,3.5785,3.5785,3.5657,3.5609,3.5561,3.4872,3.4222,3.3633,3.372,3.4272,3.5078,3.5326,3.6092,3.7156,3.7319,3.7667,3.8107,3.7934,3.7804,3.7671,3.7642,3.773,3.7905,3.8078,3.8221,3.8408,3.8391,3.8391,3.8391,3.8391,3.8391,3.8391,3.8379,3.8307,3.8193,0.0,0.0,0.0,3.7817,3.7801,3.7817,3.773,3.7642,3.7642,3.7524,0.0,3.7229,3.6679,3.6311,3.6137,3.5625,0.0,0.0,0.0,0.0,0.0,0.0,0.0,0.0,0.0,0.0,0.0,3.8903,3.8985,3.9164,3.9846,4.0271,4.031,4.0795,4.1394,4.2121,4.2204,4.2514,4.3195,4.331,4.336,4.3492,4.3509,4.3492,4.3492,4.3509,4.3492,4.3558,4.4018,4.4382,4.4415,4.5026,4.5456,4.5489,4.5878,4.6241,4.6422,4.7061,4.7504,4.7436,4.7436,4.7436,4.7403,4.7403,4.7369,4.7369,4.7217,4.7149,4.7149,4.703,4.6911,4.6927,4.6911,4.6927,4.6911,4.6911,4.6795,4.6484,4.6403,4.6419,3.7219,3.7253,3.6913,3.6783,0.0,3.6101,3.5587,3.5179,3.4781,3.5168,3.6048,3.6512,3.7042,3.7649,3.791,3.8147,3.8278,3.8004,3.8022,3.8177,3.78,3.7891,3.8446,3.8197,3.8164,3.8408,3.8492,3.852,3.852,3.856,3.86,3.86,3.86,3.8572,3.8488,3.8448,3.8221,3.7905,3.7905,3.7905,3.7905,3.7847,3.7788,3.7817,3.7746,0.0,0.0,0.0,0.0,0.0,0.0,0.0,0.0,3.5937,0.0,3.605,3.6659,3.7177,3.7536,3.8084,3.858,3.898,3.9495,3.9818,3.9846,4.0536,4.1172,4.1566,4.1886,4.2413,4.3169,4.3281,4.3465,4.3785,4.3818,4.3835,4.3864,4.3864,4.3864,4.3848,4.3864,4.3981,4.4331,4.4664,4.508,4.5463,4.6129,4.6595,4.6597,4.6611,4.6732,4.7111,4.7457,4.7704,4.7621,4.7588,4.7571,4.7504,4.7504,4.7504,4.7504,4.7403,4.7369,4.7369,4.7267,4.7183,4.7183,4.7183,4.7183,4.7183,4.7183,4.7183,4.7183,4.703,4.6911,3.8683,3.8756,3.8226,3.798,3.7931,3.7209,3.694,3.6917,3.6051,0.0,0.0,3.7643,3.7988,3.8099,3.8493,3.8604,3.8408,3.8049,3.8214,3.8716,3.7997,3.8213,3.9118,3.8446,3.8271,3.8586,3.8613,3.8669,3.8795,3.8918,3.9067,3.9182,3.9198,3.9182,3.9154,3.9075,3.8821,3.846,3.8133,3.7976,3.7992,3.7963,3.7963,3.7963,3.7889,3.7905,3.7905,3.7905,3.7662,3.7158,3.7126,3.6882,3.6327,3.6556,3.6723,3.6793,3.7545,3.8023,3.8023,3.8772,3.9298,3.9429,4.0387,4.0878,4.0652,4.1266,4.2014,4.2789,4.2956,4.3347,4.4047,4.4097,4.4097,4.4097,4.4097,4.4097,4.4097,4.4097,4.4068,4.4114,4.4231,4.4516,4.5068,4.5453,4.5801,4.6407,4.7096,4.7596,4.7565,4.7346,4.7354,4.7851,4.7968,4.7919,4.782,4.7754,4.7688,4.7637,4.7604,4.7587,4.7587,4.7587,4.7537,4.7521,4.7504,4.747,4.747,4.747,4.7504,4.7504,4.7504,4.7504,4.747,4.7251,4.703,3.8777,3.8788,3.8707,3.8657,3.8636,3.8054,3.788,3.7919,3.7063,3.7197,3.8004,3.8207,3.8605,3.9069,3.899,3.8777,3.8548,3.8107,3.8272,3.893,3.8534,3.8881,3.9806,3.9166,3.9023,3.9282,3.8841,3.8942,3.9491,3.9682,4.005,4.059,4.0672,4.0685,4.0672,4.0672,4.0631,4.054,3.9109,3.8335,3.8323,3.8237,3.818,3.8135,3.7992,3.7905,3.7905,3.7905,3.7915,3.7991,3.8019,3.8084,3.8212,3.8235,3.835,3.8455,3.869,3.8821,3.8864,3.9676,4.0453,4.1049,4.1965,4.2232,4.1633,4.2295,4.2847,4.2981,4.3533,4.3951,4.4097,4.4097,4.4126,4.4126,4.4097,4.4097,4.4126,4.4126,4.4126,4.4143,4.4666,4.5047,4.5345,4.6287,4.7041,4.7312,4.786,4.8314,4.8266,4.8174,4.8079,4.8097,4.8082,4.8001,4.7935,4.7968,4.7935,4.7935,4.7902,4.7902,4.7902,4.7754,4.7688,4.7671,4.7604,4.7537,4.7504,4.7504,4.7537,4.7537,4.7537,4.7537,4.7537,4.747,4.7403,3.8969,3.9067,3.9067,3.9067,3.9077,3.8801,3.8722,3.8758,3.8453,3.8513,3.889,3.8959,3.9142,3.9379,3.9104,3.8887,3.8683,3.8148,3.8496,3.9455,3.8819,3.92,4.0306,3.9809,3.9686,3.9909,3.9923,4.0079,4.0402,4.0635,4.0868,4.121,4.1226,4.1226,4.1198,4.114,4.1111,4.1095,3.9866,3.9214,3.9214,3.8783,3.8532,3.8516,3.8415,3.8387,3.8387,3.8387,3.8415,3.8516,3.8516,3.86,3.8711,3.8766,3.8849,3.8914,3.9067,3.933,3.9726,4.0602,4.1416,4.2114,4.2622,4.2969,4.3104,4.3406,4.3652,4.3692,4.4011,4.4253,4.4372,4.4372,4.4355,4.4355,4.4372,4.4355,4.4355,4.4372,4.4372,4.4439,4.5012,4.5618,4.6005,4.7016,4.7844,4.818,4.8616,4.8767,4.8784,4.861,4.8436,4.8227,4.8082,4.8001,4.8001,4.8001,4.8001,4.8001,4.8001,4.8001,4.8001,4.7902,4.7853,4.7853,4.7803,4.777,4.777,4.7787,4.7787,4.7787,4.7787,4.777,4.777,4.777,4.7704,3.9164,3.9315,3.9315,3.9315,3.9315,3.9315,3.9315,3.9299,3.9405,3.9458,3.9501,3.9554,3.9563,3.9511,3.9185,3.8942,3.8694,3.8148,3.8626,3.9702,3.9074,3.9534,4.0833,4.0465,4.0346,4.0528,4.0877,4.1094,4.1271,4.1514,4.1728,4.186,4.1893,4.1905,4.1877,4.1791,4.1733,4.17,4.091,4.0381,4.0132,3.9427,3.9034,3.9034,3.8887,3.8805,3.8805,3.8805,3.8805,3.8805,3.8805,3.8832,3.886,3.8942,3.9089,3.9292,3.9466,3.9945,4.0879,4.1599,4.2333,4.3022,4.3215,4.3574,4.4197,4.427,4.4258,4.4338,4.4367,4.444,4.4542,4.457,4.4598,4.4598,4.4598,4.457,4.4598,4.4598,4.4699,4.484,4.55,4.6244,4.6955,4.7699,4.8328,4.8818,4.9018,4.9018,4.8987,4.8894,4.8675,4.8405,4.8179,4.8049,4.8033,4.8001,4.8001,4.8001,4.8001,4.8001,4.8001,4.8001,4.8001,4.7985,4.8001,4.7968,4.8001,4.8001,4.7985,4.7968,4.7985,4.7968,4.7968,4.7968,4.7902,3.9288,3.9315,3.9315,3.9315,3.9315,3.9315,3.9315,3.9315,3.9315,3.9379,3.9528,3.9746,3.9798,3.9651,3.9329,3.898,3.8611,3.8119,3.8523,3.9487,3.9455,4.0151,4.1401,4.1167,4.1099,4.1173,4.1124,4.1442,4.198,4.2261,4.2721,4.3317,4.34,4.3333,4.335,4.335,4.3337,4.3367,4.2642,4.1832,4.0914,4.0181,3.9788,3.9771,3.9149,3.8805,3.8887,3.8805,3.8805,3.8805,3.8838,3.8876,3.9002,3.9013,3.9391,4.0189,4.031,4.0962,4.2399,4.2774,4.3193,4.3896,4.4061,4.4164,4.4293,4.444,4.4542,4.4553,4.4553,4.457,4.4598,4.4598,4.4598,4.4598,4.4598,4.4598,4.4598,4.4598,4.484,4.5534,4.621,4.6989,4.7648,4.8359,4.8866,4.8984,4.9018,4.9018,4.9001,4.8894,4.8818,4.8675,4.8436,4.8212,4.8163,4.8049,4.8033,4.8001,4.8001,4.8001,4.8001,4.8001,4.8001,4.8001,4.8001,4.8001,4.8001,4.8001,4.8001,4.8001,4.8001,4.8001,4.8001,4.8001,4.7968,3.9315,3.9315,3.9315,3.9315,3.9315,3.9315,3.9315,3.9299,3.9379,3.9448,3.9528,3.9677,3.972,3.9547,3.9239,3.8898,3.86,3.8554,3.8876,3.9519,3.9961,4.0607,4.1379,4.1661,4.1725,4.1804,4.2028,4.2318,4.2668,4.2987,4.3317,4.3565,4.3615,4.3615,4.3615,4.3615,4.3615,4.3582,4.33,4.2943,4.2459,4.1403,4.0781,4.0748,4.0512,4.0336,4.032,4.0336,4.032,4.0336,4.032,4.0364,4.042,4.042,4.0635,4.115,4.1677,4.2217,4.2891,4.3434,4.3905,4.4224,4.4384,4.4485,4.4485,4.457,4.4598,4.4598,4.4598,4.4598,4.4598,4.4598,4.4598,4.4598,4.4598,4.4598,4.4598,4.4976,4.5399,4.5737,4.6735,4.753,4.7936,4.8562,4.8968,4.9018,4.9018,4.9018,4.9001,4.894,4.8925,4.8894,4.8707,4.8468,4.8276,4.8179,4.8082,4.8033,4.8001,4.8001,4.8001,4.8001,4.8001,4.8001,4.8001,4.8001,4.8001,4.8001,4.8001,4.8001,4.8001,4.8001,4.8001,4.8001,4.8001,3.9315,3.9315,3.9315,3.9315,3.9315,3.9315,3.9315,3.9299,3.9422,3.9448,3.9458,3.9563,3.9494,3.9352,3.9121,3.8805,3.8525,3.883,3.9132,3.944,4.0165,4.0793,4.1258,4.172,4.2013,4.2174,4.2555,4.2929,4.319,4.3402,4.3552,4.3598,4.3615,4.3615,4.3615,4.3615,4.3615,4.3615,4.3615,4.3615,4.3449,4.2539,4.1922,4.1695,4.148,4.1397,4.1397,4.1397,4.1397,4.1425,4.1453,4.1481,4.1481,4.151,4.1677,4.2083,4.2875,4.3362,4.3378,4.4007,4.4367,4.4412,4.4525,4.4598,4.4598,4.4626,4.4654,4.4654,4.4665,4.4709,4.4654,4.4682,4.4709,4.4692,4.4709,4.4709,4.4743,4.5371,4.5897,4.6174,4.7255,4.8124,4.8361,4.8772,4.9063,4.9063,4.9032,4.9018,4.9018,4.9001,4.9001,4.9001,4.8925,4.8738,4.8436,4.8227,4.8163,4.8082,4.8049,4.8001,4.8001,4.8001,4.8001,4.8001,4.8001,4.8001,4.8001,4.8001,4.8001,4.8001,4.8001,4.8001,4.8001,4.8001,4.8001,3.9315,3.9315,3.9315,3.9315,3.9315,3.9315,3.9315,3.9315,3.9299,3.9299,3.9325,3.9325,3.9202,3.905,3.8996,3.8694,3.8253,3.8745,3.9025,3.9139,3.994,4.0629,4.112,4.1488,4.1785,4.2077,4.2445,4.2883,4.3312,4.3402,4.3479,4.3598,4.3598,4.3615,4.3615,4.3615,4.3615,4.3615,4.3615,4.3615,4.3598,4.3499,4.3069,4.2456,4.1823,4.1541,4.1508,4.1458,4.1475,4.1458,4.1682,4.1733,4.1744,4.1882,4.2272,4.2937,4.3754,4.4197,4.4226,4.4435,4.457,4.457,4.457,4.4598,4.4626,4.4692,4.4776,4.4776,4.4913,4.4913,4.4831,4.4886,4.4968,4.4968,4.4968,4.4968,4.4968,4.5657,4.6368,4.6988,4.7858,4.8626,4.927,4.9256,4.9199,4.9168,4.9094,4.9001,4.9018,4.9018,4.9018,4.9018,4.897,4.894,4.8769,4.85,4.8292,4.8163,4.8082,4.8001,4.8001,4.8001,4.8001,4.8001,4.8001,4.8001,4.8001,4.8001,4.8001,4.8001,4.8001,4.8001,4.8001,4.8001,4.8001,3.9315,3.9315,3.9315,3.9315,3.9315,3.9315,3.9315,3.9315,3.9315,3.9315,3.9315,3.9315,3.9164,3.8887,3.8777,3.8511,3.8184,3.8968,3.9204,3.9184,4.0247,4.095,4.1104,4.1439,4.1736,4.198,4.2318,4.2696,4.3054,4.3281,4.3402,4.3479,4.3568,4.3615,4.3615,4.3615,4.3615,4.3615,4.3615,4.3615,4.3615,4.3615,4.3449,4.3201,4.2936,4.2804,4.2804,4.2937,4.2995,4.2995,4.3139,4.3253,4.3237,4.3362,4.3536,4.3833,4.426,4.4485,4.4514,4.4542,4.4598,4.4598,4.4598,4.4626,4.4709,4.4776,4.4814,4.4923,4.5076,4.5086,4.5059,4.5032,4.5022,4.5022,4.5022,4.5022,4.5244,4.6037,4.6925,4.7335,4.8275,4.9227,4.9398,4.9441,4.932,4.9229,4.9168,4.9077,4.9032,4.9018,4.9018,4.9018,4.9001,4.897,4.8956,4.8753,4.8532,4.8292,4.8147,4.8082,4.8049,4.8001,4.8001,4.8001,4.8001,4.8001,4.8001,4.8001,4.8001,4.8001,4.8001,4.8001,4.8001,4.81,4.8084,3.9315,3.9315,3.9315,3.9315,3.9315,3.9315,3.9315,3.9315,3.9315,3.9315,3.9315,3.9315,3.9121,3.8805,3.8611,3.8359,3.8178,3.9101,3.9377,3.9168,4.0462,4.1117,4.1151,4.1339,4.1604,4.1898,4.2222,4.2539,4.2806,4.3115,4.3281,4.3419,4.3492,4.3552,4.3598,4.3615,4.3615,4.3615,4.3615,4.3615,4.3615,4.3615,4.3615,4.3615,4.3615,4.3615,4.3628,4.3809,4.3881,4.391,4.4068,4.4167,4.427,4.4355,4.4412,4.4395,4.4497,4.4598,4.4598,4.4598,4.4598,4.4598,4.4654,4.4709,4.4776,4.4886,4.4978,4.5059,4.5194,4.5274,4.5247,4.5194,4.513,4.5113,4.5113,4.5157,4.5216,4.645,4.7495,4.818,4.9015,4.958,4.9654,4.9607,4.9488,4.932,4.926,4.9155,4.9032,4.9018,4.9018,4.9018,4.9018,4.9001,4.8987,4.8877,4.8769,4.8532,4.8227,4.8147,4.8082,4.8033,4.8001,4.8001,4.8001,4.8001,4.8001,4.8001,4.8017,4.8017,4.8001,4.8001,4.8117,4.8266,4.8398,3.9315,3.9315,3.9315,3.9315,3.9315,3.9315,3.9315,3.9315,3.9315,3.9315,3.9315,3.9315,3.9121,3.8805,3.856,3.8221,3.8174,3.9114,3.9408,3.9168,4.0413,4.1083,4.1068,4.1102,4.1404,4.1866,4.2238,4.2429,4.2634,4.2837,4.3084,4.3312,4.3372,4.3432,4.3615,4.3568,4.3598,4.3615,4.3615,4.3615,4.3615,4.3615,4.3615,4.3598,4.3598,4.3645,4.3645,4.3793,4.391,4.3939,4.4184,4.4367,4.4542,4.457,4.457,4.457,4.4598,4.4598,4.4598,4.4598,4.4598,4.4626,4.472,4.482,4.4886,4.5049,4.5167,4.522,4.5318,4.5414,4.5397,4.5371,4.5371,4.538,4.5344,4.5371,4.5646,4.6759,4.8258,4.9418,4.9918,4.9964,4.9935,4.9784,4.9619,4.9471,4.932,4.9138,4.9032,4.9018,4.9018,4.9018,4.9018,4.9018,4.9018,4.9018,4.8925,4.8769,4.8436,4.8227,4.813,4.8082,4.8001,4.8001,4.8001,4.8001,4.8001,4.8017,4.815,4.815,4.81,4.8299,4.863,4.8912,4.9028,3.9315,3.9315,3.9315,3.9315,3.9315,3.9315,3.9315,3.9315,3.9315,3.9315,3.9315,3.9315,3.9137,3.8821,3.8532,3.8221,3.7985,3.861,3.8905,3.9215,4.0282,4.0901,4.0916,4.0916,4.1171,4.1637,4.1785,4.2093,4.2413,4.2619,4.2821,4.3007,4.3143,4.3312,4.3432,4.3479,4.3509,4.3598,4.3615,4.3615,4.3615,4.3615,4.3615,4.3628,4.3734,4.3793,4.3839,4.3939,4.4068,4.4155,4.4384,4.4542,4.457,4.4598,4.4598,4.4598,4.4598,4.4598,4.4598,4.4598,4.4671,4.4709,4.4776,4.4886,4.5059,4.5123,4.5247,4.5318,4.5371,4.5414,4.5414,4.5414,4.5414,4.5414,4.5414,4.5432,4.569,4.681,4.8275,4.9648,5.0011,5.0011,4.9964,4.9813,4.9649,4.95,4.932,4.9138,4.9032,4.9018,4.9018,4.9018,4.9018,4.9018,4.9018,4.9018,4.8956,4.8832,4.8564,4.8324,4.8227,4.8082,4.8033,4.8001,4.8001,4.8067,4.805,4.815,4.8299,4.8597,4.8796,4.9094,4.9442,4.9657,4.979,3.9315,3.9315,3.9315,3.9315,3.9315,3.9315,3.9315,3.9315,3.9315,3.9315,3.9315,3.9315,3.9137,3.8821,3.8532,3.8221,3.7969,3.8312,3.8685,3.9121,4.002,4.0588,4.0786,4.0882,4.1104,4.1423,4.1555,4.1801,4.2206,4.2349,4.2539,4.2759,4.2867,4.3052,4.3281,4.3295,4.3372,4.3492,4.3539,4.3568,4.3598,4.3615,4.3615,4.3628,4.3734,4.3852,4.3985,4.4085,4.4155,4.431,4.4468,4.4598,4.4598,4.4598,4.4598,4.4598,4.4598,4.4598,4.4598,4.4654,4.4709,4.4776,4.4886,4.5005,4.5194,4.523,4.5327,4.5371,4.5414,4.5414,4.5414,4.5414,4.5414,4.5414,4.5414,4.5673,4.6207,4.7327,4.8562,4.9666,5.0011,5.0011,4.9964,4.983,4.9649,4.9518,4.932,4.9138,4.9032,4.9018,4.9018,4.9018,4.9018,4.9018,4.9018,4.9018,4.8987,4.8863,4.8675,4.8483,4.8356,4.8147,4.8001,4.8001,4.8001,4.8332,4.8382,4.8514,4.868,4.9061,4.9525,4.969,4.9955,5.0402,5.0585,3.9315,3.9315,3.9315,3.9315,3.9315,3.9315,3.9315,3.9315,3.9315,3.9315,3.9315,3.9315,3.9137,3.8794,3.8516,3.8221,3.7987,3.8139,3.856,3.9044,3.9663,4.0155,4.0721,4.0898,4.1052,4.1256,4.1456,4.1686,4.1915,4.2061,4.2238,4.2523,4.2602,4.2743,4.3021,4.3082,4.3174,4.3342,4.3419,4.3462,4.3585,4.3615,4.3615,4.3615,4.3658,4.3776,4.4027,4.4097,4.4167,4.431,4.4497,4.4598,4.4598,4.4598,4.4598,4.4598,4.4598,4.4598,4.4626,4.4709,4.4803,4.4886,4.5015,4.5203,4.523,4.5344,4.5371,4.5397,4.5414,4.5414,4.5414,4.5414,4.5414,4.5414,4.5535,4.6155,4.7465,4.8258,4.9034,4.9752,5.0011,4.9964,4.9935,4.9801,4.9637,4.9441,4.929,4.9124,4.9032,4.9018,4.9018,4.9018,4.9018,4.8987,4.8956,4.8925,4.8945,4.9074,4.8782,4.8502,4.8373,4.8164,4.8001,4.8001,4.8266,4.8564,4.8796,4.8945,4.9392,5.0005,5.0253,5.027,5.0585,5.1115,5.1262,3.9315,3.9315,3.9315,3.9315,3.9315,3.9315,3.9315,3.9315,3.9315,3.9315,3.9315,3.9315,3.9121,3.8777,3.8532,3.8221,3.794,3.77,3.8137,3.8902,3.9037,3.9712,4.0427,4.0643,4.0765,4.0953,4.1153,4.1388,4.167,4.185,4.2045,4.2238,4.2381,4.2539,4.2728,4.2883,4.3037,4.3174,4.3342,4.3402,4.3479,4.3568,4.3615,4.3598,4.3734,4.3852,4.3969,4.4155,4.4327,4.4514,4.457,4.4598,4.4598,4.4598,4.4598,4.4598,4.4598,4.4654,4.4737,4.4793,4.4886,4.5086,4.5123,4.5264,4.5344,4.5371,4.5414,4.5414,4.5414,4.5414,4.5414,4.5414,4.5414,4.5483,4.5914,4.6648,4.7534,4.8344,4.9103,4.9821,4.9964,4.9935,4.9801,4.9666,4.9471,4.932,4.9168,4.9063,4.9032,4.9018,4.9018,4.9018,4.9018,4.8925,4.8894,4.8863,4.8938,4.9201,4.8938,4.8392,4.8278,4.8164,4.805,4.8001,4.8696,4.911,4.9293,4.9475,5.0154,5.0866,5.0982,5.1032,5.1562,5.2042,5.1922,3.9315,3.9315,3.9315,3.9315,3.9315,3.9315,3.9315,3.9315,3.9315,3.9315,3.9315,3.9315,3.9121,3.8777,3.8532,3.8205,3.7892,3.7719,3.8153,3.8933,3.942,3.9948,4.0416,4.0489,4.0593,4.0799,4.0916,4.1138,4.1423,4.1604,4.1768,4.2012,4.2141,4.2286,4.2508,4.2634,4.2806,4.2976,4.3129,4.3237,4.3402,4.3462,4.3539,4.3598,4.3734,4.3793,4.391,4.4155,4.4412,4.4542,4.4598,4.4598,4.4598,4.4598,4.4598,4.4598,4.4598,4.4626,4.4709,4.4748,4.4858,4.5005,4.5096,4.5247,4.5318,4.5371,4.5414,4.5414,4.5414,4.5414,4.5414,4.5414,4.5569,4.5949,4.6613,4.7234,4.7672,4.87,4.9424,4.9826,4.9935,4.986,4.9708,4.953,4.935,4.9216,4.9124,4.9032,4.9018,4.9018,4.9052,4.9103,4.9325,4.9449,4.9557,4.9575,4.9468,4.9674,4.9609,4.8928,4.848,4.8398,4.8498,4.8663,4.921,4.9674,4.9939,5.0286,5.0883,5.1413,5.163,5.1862,5.2208,5.2338,5.2266,3.9315,3.9315,3.9315,3.9315,3.9315,3.9315,3.9315,3.9315,3.9315,3.9315,3.9315,3.9315,3.9094,3.8777,3.8532,3.8221,3.7908,3.799,3.8498,3.9209,3.9859,4.0443,4.0443,4.0489,4.0593,4.073,4.0765,4.0953,4.1189,4.129,4.1505,4.1752,4.1866,4.2061,4.2302,4.2381,4.2571,4.279,4.2914,4.3054,4.3267,4.3372,4.3479,4.3539,4.3598,4.3734,4.391,4.4126,4.4355,4.4542,4.457,4.4598,4.4598,4.4598,4.4598,4.4598,4.4598,4.4615,4.4643,4.4765,4.4803,4.4896,4.5086,4.5194,4.5194,4.5264,4.5318,4.5344,4.5371,4.5371,4.5432,4.5466,4.5862,4.6466,4.7224,4.7741,4.8051,4.9085,4.9964,4.9964,4.9801,4.9679,4.959,4.9411,4.9199,4.9155,4.9063,4.9032,4.912,4.9272,4.9306,4.934,4.968,5.0107,5.0247,5.0403,5.0291,5.0259,5.0341,4.9924,4.9111,4.8978,4.9127,4.9442,4.9922,5.0402,5.0833,5.1247,5.1678,5.1928,5.2061,5.2191,5.2354,5.2302,5.2194,3.9315,3.9315,3.9315,3.9315,3.9315,3.9315,3.9315,3.9315,3.9315,3.9315,3.9315,3.9315,3.9094,3.8777,3.8532,3.8221,3.8006,3.8119,3.851,3.9424,4.0143,4.0459,4.0489,4.0489,4.0539,4.0593,4.073,4.0833,4.0953,4.1189,4.1323,4.1439,4.1767,4.1947,4.2028,4.227,4.2429,4.2556,4.2775,4.293,4.3054,4.3267,4.3388,4.3462,4.3522,4.3704,4.3868,4.3956,4.4114,4.4327,4.4514,4.457,4.457,4.4598,4.4598,4.4598,4.4598,4.4626,4.472,4.4776,4.4831,4.4913,4.4978,4.5032,4.5049,4.5059,4.514,4.522,4.5247,4.5291,4.5482,4.6,4.6397,4.6852,4.773,4.8517,4.8661,4.9292,4.9732,4.9755,4.9637,4.9471,4.9333,4.929,4.9138,4.9046,4.9066,4.9018,4.9255,4.9543,4.9746,4.9881,5.0375,5.0802,5.0791,5.0944,5.0977,5.094,5.102,5.0982,5.0171,4.9806,5.0088,5.032,5.0601,5.1065,5.1531,5.1829,5.2161,5.2326,5.2373,5.2318,5.2247,5.2211,5.2086,3.9315,3.9315,3.9315,3.9315,3.9315,3.9315,3.9315,3.9315,3.9315,3.9315,3.9315,3.9315,3.9121,3.8805,3.8548,3.8338,3.84,3.8717,3.9247,3.9927,4.0366,4.0474,4.0489,4.0489,4.0489,4.0539,4.0608,4.0696,4.0867,4.107,4.1239,4.1323,4.162,4.1784,4.1898,4.2141,4.2286,4.2413,4.2634,4.2806,4.293,4.3054,4.3251,4.3372,4.3522,4.3658,4.375,4.3868,4.3985,4.4143,4.427,4.4457,4.457,4.4598,4.4598,4.4598,4.4598,4.4643,4.4682,4.4709,4.472,4.482,4.4875,4.4913,4.494,4.4951,4.5032,4.5069,4.513,4.526,4.5682,4.6018,4.6533,4.7425,4.8095,4.8712,4.909,4.9485,4.9725,4.9666,4.95,4.935,4.9229,4.9168,4.9141,4.9083,4.9591,4.961,4.9813,5.0118,5.0473,5.0745,5.1238,5.1495,5.1363,5.1428,5.1605,5.165,5.1765,5.1728,5.138,5.1197,5.1148,5.1231,5.1265,5.1612,5.2009,5.2343,5.2373,5.2373,5.2318,5.2247,5.2139,5.205,5.1868,3.9481,3.9481,3.958,3.963,3.9613,3.968,3.963,3.9497,3.9481,3.9481,3.9315,3.9315,3.9121,3.881,3.8695,3.8701,3.8996,3.9339,3.9856,4.037,4.0409,4.0455,4.0489,4.0489,4.0489,4.0489,4.0539,4.0593,4.0765,4.095,4.112,4.1272,4.1456,4.1637,4.185,4.1996,4.2142,4.2318,4.2476,4.2665,4.2837,4.2899,4.3084,4.3372,4.3539,4.3598,4.3674,4.378,4.3868,4.3898,4.3998,4.4229,4.4429,4.4514,4.4542,4.4525,4.4525,4.4553,4.4598,4.4598,4.4598,4.4615,4.4709,4.4765,4.4776,4.4858,4.4913,4.5036,4.5149,4.5501,4.602,4.6578,4.7193,4.8013,4.8441,4.8839,4.9312,4.959,4.959,4.956,4.935,4.9168,4.9155,4.9094,4.9083,4.9221,4.9779,5.0236,5.0439,5.0745,5.1151,5.1475,5.1949,5.2085,5.1948,5.1792,5.1999,5.2063,5.2243,5.2227,5.2194,5.1993,5.1744,5.1763,5.1879,5.2125,5.2222,5.2252,5.2302,5.2318,5.2211,5.203,5.1941,5.1868,5.1684,4.0227,4.0249,4.0829,4.1044,4.1044,4.1044,4.0663,4.0276,4.016,3.9862,3.9348,3.9315,3.9121,3.8936,3.9166,3.9423,3.9596,3.9743,3.9939,4.0378,4.0401,4.0401,4.0455,4.0489,4.0489,4.0489,4.0489,4.0524,4.0593,4.0715,4.0984,4.112,4.1305,4.1456,4.167,4.1834,4.1996,4.219,4.2381,4.2539,4.2665,4.2868,4.3054,4.3342,4.3539,4.3615,4.3615,4.3645,4.3734,4.3885,4.3927,4.4027,4.4143,4.4184,4.4241,4.431,4.4367,4.4395,4.4514,4.457,4.457,4.4615,4.4615,4.4626,4.4626,4.4671,4.4743,4.5041,4.5465,4.5958,4.6112,4.7056,4.7904,4.8497,4.886,4.9236,4.9389,4.935,4.9243,4.9229,4.9107,4.9001,4.8987,4.9092,4.9297,4.9586,5.0143,5.0632,5.0953,5.1408,5.1914,5.2269,5.259,5.262,5.2527,5.2354,5.2277,5.2243,5.2343,5.2343,5.2343,5.2376,5.2293,5.2073,5.2073,5.2238,5.2285,5.223,5.2158,5.2139,5.1977,5.1794,5.1721,5.1647,5.1483,4.0597,4.0945,4.1293,4.1397,4.1397,4.1397,4.1028,4.0475,4.0393,3.9995,3.9481,3.9299,3.9121,3.9001,3.9219,3.9618,3.9889,3.9958,4.0079,4.0351,4.0347,4.0347,4.042,4.047,4.0489,4.0489,4.0489,4.0489,4.0524,4.0681,4.0882,4.1102,4.1239,4.139,4.1588,4.1817,4.1947,4.2125,4.2286,4.2476,4.2618,4.2852,4.3099,4.3251,4.3462,4.3615,4.3615,4.3615,4.3674,4.3734,4.3734,4.3793,4.3835,4.3894,4.3952,4.4155,4.4196,4.4224,4.4298,4.4344,4.4344,4.4327,4.4327,4.4344,4.4344,4.4389,4.4597,4.5066,4.5405,4.6135,4.6961,4.7721,4.8243,4.8655,4.8982,4.9104,4.9094,4.897,4.8923,4.8892,4.8877,4.8849,4.8805,4.9024,4.9411,4.9947,5.0536,5.1008,5.1495,5.195,5.2472,5.2504,5.2704,5.2597,5.257,5.2464,5.2409,5.2409,5.2373,5.2373,5.2373,5.2373,5.2318,5.2181,5.223,5.2211,5.2175,5.2086,5.203,5.1921,5.1758,5.161,5.1536,5.1424,5.1296,4.1127,4.1612,4.1761,4.1827,4.1827,4.1844,4.1491,4.0878,4.0663,4.0243,3.9547,3.9338,3.9121,3.8979,3.9244,3.9704,4.0162,4.029,4.0216,4.0296,4.0242,4.0242,4.0347,4.0436,4.0489,4.0489,4.0489,4.0489,4.0524,4.0627,4.0848,4.1068,4.1221,4.1357,4.1604,4.1752,4.1947,4.2125,4.2254,4.2429,4.2696,4.2929,4.3127,4.3174,4.3432,4.3615,4.3615,4.3615,4.3615,4.3645,4.3645,4.3615,4.3615,4.3615,4.3734,4.3969,4.4056,4.4085,4.4097,4.4126,4.4155,4.4155,4.4126,4.4097,4.4227,4.439,4.4687,4.5228,4.5829,4.6359,4.7393,4.7899,4.8318,4.8624,4.8765,4.8738,4.8738,4.8658,4.8578,4.8578,4.8627,4.8811,4.8949,4.9233,4.9684,5.0557,5.1145,5.1615,5.2051,5.2386,5.2703,5.2648,5.2609,5.2485,5.2445,5.2445,5.2373,5.2409,5.2373,5.239,5.2338,5.2302,5.2194,5.2066,5.1957,5.1921,5.1921,5.1921,5.1811,5.1684,5.1536,5.1462,5.1387,5.1333,5.1258,4.2291,4.2423,4.3052,4.3333,4.3284,4.3251,4.2886,4.2154,4.1491,4.0895,4.0127,3.9587,3.9137,3.9047,3.9296,4.0023,4.0533,4.0324,4.0137,4.0257,4.0101,4.0101,4.0277,4.0436,4.0505,4.0489,4.0489,4.0489,4.0489,4.0524,4.0746,4.1016,4.1151,4.1254,4.1522,4.1637,4.1801,4.2045,4.2142,4.2365,4.279,4.299,4.3174,4.3342,4.3509,4.3615,4.3615,4.3615,4.3615,4.3615,4.3615,4.3615,4.3615,4.3615,4.3598,4.3687,4.3822,4.3985,4.4039,4.4039,4.4039,4.4039,4.4039,4.4097,4.4257,4.4641,4.4992,4.5202,4.627,4.7105,4.7606,4.8075,4.8411,4.8528,4.8595,4.8547,4.8515,4.8453,4.8373,4.8292,4.834,4.8955,4.9339,4.9623,5.0007,5.0928,5.1731,5.2132,5.2432,5.263,5.2624,5.2447,5.2393,5.2266,5.223,5.223,5.2266,5.2302,5.2302,5.2283,5.2194,5.2122,5.2013,5.1868,5.1774,5.1663,5.1684,5.1647,5.1573,5.1499,5.1387,5.1312,5.1221,5.1221,5.1146,4.3118,4.3151,4.3466,4.3615,4.3615,4.3615,4.3168,4.244,4.1723,4.1011,4.0359,3.963,3.9424,3.9612,3.9623,4.0084,4.0767,4.0312,4.0046,4.0066,3.996,3.996,4.0137,4.0312,4.0401,4.0489,4.0489,4.0489,4.0489,4.0524,4.0677,4.0898,4.1049,4.1203,4.1456,4.1555,4.1785,4.2045,4.2302,4.2539,4.2852,4.3021,4.3204,4.3419,4.3539,4.3598,4.3615,4.3615,4.3615,4.3615,4.3615,4.3615,4.3615,4.3615,4.3598,4.3628,4.3658,4.3747,4.3805,4.3835,4.3835,4.3835,4.3885,4.3988,4.4351,4.4767,4.5493,4.6321,4.6886,4.7452,4.7883,4.8314,4.84,4.8483,4.8388,4.8356,4.8324,4.8244,4.8164,4.8115,4.8182,4.8828,4.946,4.9793,5.0259,5.1124,5.179,5.2171,5.23,5.2362,5.225,5.2053,5.2033,5.2013,5.1977,5.1961,5.1961,5.1997,5.1997,5.2013,5.1977,5.1904,5.1794,5.1684,5.1573,5.1536,5.1483,5.1408,5.1333,5.1312,5.1275,5.1199,5.1108,5.1032,5.0972,4.3615,4.3615,4.3615,4.3615,4.3615,4.3615,4.33,4.2721,4.1778,4.1127,4.0536,3.9869,3.982,4.0199,4.0037,4.0304,4.1003,4.0347,4.0081,3.994,3.9854,3.9839,4.0031,4.0207,4.0366,4.0489,4.0489,4.0489,4.0489,4.0524,4.0593,4.0799,4.1,4.1153,4.1323,4.1522,4.1753,4.2077,4.2397,4.2696,4.2945,4.3052,4.3235,4.3402,4.3539,4.3615,4.3615,4.3615,4.3615,4.3615,4.3615,4.3615,4.3615,4.3615,4.3615,4.3598,4.3628,4.3628,4.3658,4.3674,4.3615,4.3648,4.388,4.4304,4.4917,4.5116,4.5531,4.6882,4.7315,4.7776,4.8174,4.8356,4.8324,4.826,4.8227,4.8179,4.8147,4.8131,4.8066,4.8033,4.8233,4.8812,4.9358,4.9836,5.0481,5.1326,5.1855,5.2183,5.2194,5.2122,5.1977,5.1778,5.1815,5.1831,5.1758,5.1741,5.1741,5.1741,5.1741,5.1704,5.1721,5.161,5.1483,5.1408,5.1398,5.1199,5.1032,5.107,5.1108,5.1086,5.1048,5.1048,5.0972,5.0896,5.0727,4.3615,4.3615,4.3615,4.3615,4.3615,4.3615,4.3565,4.33,4.1993,4.1392,4.1005,4.0384,4.0103,4.0315,4.0419,4.0587,4.1083,4.0362,4.0081,3.9925,3.9839,3.9803,3.996,4.0137,4.0331,4.0455,4.0455,4.0455,4.0489,4.0489,4.0627,4.0799,4.1,4.1153,4.1323,4.1555,4.1785,4.2109,4.2445,4.2743,4.2959,4.3096,4.3235,4.3509,4.3598,4.3615,4.3615,4.3615,4.3615,4.3615,4.3615,4.3615,4.3615,4.3615,4.3615,4.3615,4.3615,4.3648,4.3747,4.3664,4.3631,4.3827,4.4257,4.4937,4.5632,4.6361,4.684,4.7022,4.7535,4.785,4.8033,4.8066,4.8115,4.8115,4.8082,4.8082,4.8066,4.8066,4.8001,4.7968,4.8283,4.886,4.9399,4.9873,5.0632,5.1509,5.1688,5.2013,5.1888,5.1778,5.1668,5.1594,5.1668,5.1631,5.1536,5.1499,5.1408,5.1445,5.1445,5.1445,5.1462,5.135,5.1146,5.1242,5.1246,5.091,5.0794,5.1176,5.135,5.1019,5.0836,5.082,5.0705,5.0573,5.0457,4.3615,4.3615,4.3615,4.3615,4.3615,4.3615,4.3615,4.3433,4.2506,4.1541,4.0801,4.0635,4.0502,4.0476,4.0499,4.0712,4.0938,4.0327,4.0081,3.9889,3.9732,3.9661,3.9818,3.9945,4.0036,4.0331,4.0401,4.0436,4.0489,4.0489,4.0539,4.0677,4.0932,4.1068,4.1288,4.1621,4.1948,4.2109,4.2429,4.2743,4.3005,4.3096,4.3265,4.3568,4.3615,4.3615,4.3615,4.3615,4.3615,4.3615,4.3615,4.3615,4.3615,4.3615,4.3631,4.3664,4.3681,4.3863,4.4125,4.3976,4.378,4.4373,4.4953,4.5682,4.6361,4.6792,4.7173,4.7487,4.7785,4.7984,4.8001,4.8001,4.8033,4.8001,4.8001,4.7968,4.7968,4.7935,4.7902,4.782,4.8298,4.8873,4.9442,4.9954,5.0795,5.1622,5.1716,5.1758,5.1631,5.152,5.1371,5.1275,5.1296,5.1221,5.1124,5.1086,5.1086,5.1108,5.1146,5.1124,5.1124,5.0934,5.083,5.0971,5.13,5.1366,5.1486,5.171,5.1557,5.106,5.0756,5.0589,5.0473,5.0262,5.0129,4.3615,4.3615,4.3615,4.3615,4.3615,4.3615,4.3615,4.3482,4.2787,4.1856,4.0763,4.1111,4.1072,4.0847,4.088,4.0935,4.0956,4.0486,4.0207,3.9996,3.9803,3.9732,3.9803,3.993,4.0121,4.0296,4.0366,4.0436,4.0489,4.0489,4.0505,4.0643,4.0898,4.1083,4.127,4.1736,4.2077,4.2174,4.2429,4.2743,4.3035,4.3096,4.3281,4.3539,4.3615,4.3615,4.3615,4.3615,4.3615,4.3615,4.3615,4.3615,4.3615,4.3631,4.3714,4.386,4.4009,4.4274,4.4638,4.4688,4.4605,4.54,4.5781,4.6477,4.699,4.7239,4.7554,4.7835,4.7984,4.8001,4.8001,4.8001,4.8001,4.8001,4.7902,4.7869,4.7836,4.7836,4.7737,4.7671,4.8245,4.8782,4.9562,5.0102,5.0819,5.1426,5.1455,5.1499,5.1424,5.1275,5.1124,5.0972,5.0858,5.0743,5.0628,5.0743,5.0804,5.0858,5.0842,5.0765,5.0705,5.0614,5.0776,5.1143,5.1518,5.1869,5.1923,5.1833,5.1446,5.1031,5.069,5.0342,5.005,4.9892,4.9717,4.3615,4.3615,4.3615,4.3615,4.3615,4.3615,4.3615,4.3532,4.2886,4.2142,4.1501,4.1805,4.1771,4.1522,4.1566,4.1477,4.1107,4.0677,4.0401,4.0242,3.9996,4.0066,4.0137,4.0207,4.0191,4.0436,4.047,4.0436,4.0489,4.0489,4.0489,4.0608,4.0898,4.1151,4.1169,4.1753,4.2061,4.2142,4.2445,4.2774,4.3005,4.3096,4.3265,4.3539,4.3615,4.3615,4.3615,4.3615,4.3615,4.3615,4.3615,4.3648,4.3764,4.3764,4.4059,4.4605,4.4655,4.5036,4.5649,4.5698,4.6063,4.646,4.6659,4.7156,4.7736,4.7934,4.7868,4.8001,4.8001,4.8001,4.8001,4.8001,4.7968,4.7935,4.7803,4.7737,4.7704,4.7901,4.7883,4.8012,4.8201,4.8584,4.9473,5.0262,5.089,5.1242,5.1221,5.1183,5.1199,5.1048,5.0896,5.0689,5.055,5.0379,5.034,5.0457,5.0534,5.055,5.0505,5.0381,5.0548,5.0708,5.0938,5.1311,5.1754,5.2159,5.1994,5.1764,5.1578,5.1378,5.0443,5.0023,4.9698,4.954,4.9553,4.3615,4.3615,4.3615,4.3615,4.3615,4.3615,4.3615,4.3565,4.33,4.282,4.2332,4.2545,4.2304,4.1938,4.1805,4.1735,4.1372,4.0746,4.0436,4.0401,4.0172,4.0066,4.0152,4.0257,4.0242,4.0347,4.0381,4.047,4.0489,4.0489,4.0489,4.0608,4.0898,4.1236,4.1488,4.1883,4.2077,4.2142,4.2429,4.2743,4.3035,4.3096,4.3281,4.3602,4.3664,4.3698,4.3764,4.3797,4.3797,4.3797,4.3797,4.3929,4.4224,4.434,4.4671,4.5235,4.5433,4.5765,4.646,4.6841,4.7073,4.7189,4.7338,4.7669,4.7984,4.8001,4.8001,4.8001,4.7968,4.7968,4.8001,4.7853,4.782,4.7754,4.7688,4.7604,4.7653,4.8062,4.8289,4.8527,4.8746,4.9551,5.042,5.0529,5.101,5.1146,5.1146,5.1086,5.1048,5.0858,5.065,5.0418,5.0246,5.0089,4.9995,5.0089,5.001,4.9931,4.9923,4.9889,5.0156,5.0655,5.1275,5.1706,5.2036,5.2374,5.2336,5.2309,5.2191,5.1768,5.1075,5.0403,5.0122,4.9874,4.9657,4.3615,4.3615,4.3615,4.3615,4.3615,4.3615,4.3615,4.3615,4.3598,4.33,4.2993,4.3021,4.2792,4.232,4.2077,4.185,4.1573,4.1156,4.0746,4.0712,4.052,4.0501,4.0431,4.0397,4.0555,4.0555,4.0505,4.0539,4.0627,4.0524,4.0558,4.0677,4.0932,4.1187,4.1538,4.1818,4.2077,4.2174,4.2429,4.2743,4.2974,4.316,4.3413,4.3853,4.4059,4.4141,4.4277,4.4343,4.4357,4.434,4.4423,4.4556,4.4937,4.5183,4.545,4.593,4.6493,4.6743,4.7208,4.7473,4.7473,4.7243,4.7704,4.7968,4.8001,4.8001,4.8001,4.8001,4.7935,4.7886,4.7853,4.7704,4.7621,4.7588,4.7487,4.7436,4.7794,4.8217,4.8539,4.8825,4.9421,5.0371,5.1043,5.1038,5.1151,5.1108,5.1086,5.0972,5.0858,5.0666,5.0457,5.0262,5.005,4.9836,4.9717,4.9637,4.9517,4.9316,4.9431,4.9593,5.0143,5.073,5.1434,5.213,5.25,5.2812,5.2947,5.2919,5.2564,5.2349,5.203,5.1375,5.0683,5.0319,5.0043,4.3615,4.3615,4.3615,4.3615,4.3615,4.3615,4.3615,4.3615,4.3615,4.3582,4.3552,4.3216,4.2986,4.282,4.2556,4.2158,4.1753,4.1588,4.1372,4.1187,4.1068,4.1034,4.1034,4.1034,4.1,4.1,4.0916,4.0799,4.0799,4.0593,4.0593,4.0765,4.0966,4.1153,4.1439,4.1785,4.2045,4.2174,4.2445,4.2871,4.3264,4.3309,4.3871,4.4398,4.4754,4.5003,4.5251,4.545,4.5516,4.5566,4.5649,4.5732,4.5814,4.5814,4.6295,4.6874,4.7521,4.7589,4.7589,4.7688,4.7621,4.744,4.7721,4.7935,4.7935,4.7902,4.7869,4.7836,4.7803,4.7721,4.7671,4.7588,4.747,4.7386,4.7285,4.7527,4.7963,4.8315,4.8618,4.9066,4.9779,5.0519,5.1005,5.1167,5.107,5.0956,5.0896,5.0781,5.0666,5.0512,5.034,5.0184,4.9931,4.9677,4.9517,4.9396,4.9194,4.9072,4.9392,4.9641,5.0222,5.0891,5.1573,5.2287,5.2916,5.3152,5.3022,5.2876,5.2755,5.2572,5.2445,5.1994,5.1184,5.0943,5.0722,4.3615,4.3615,4.3615,4.3615,4.3615,4.3615,4.3615,4.3615,4.3615,4.3615,4.3582,4.3402,4.3221,4.3021,4.268,4.2397,4.2142,4.1931,4.18,4.1636,4.1521,4.1472,4.1472,4.1439,4.1372,4.1272,4.1171,4.1021,4.0799,4.0593,4.0505,4.0608,4.0932,4.1102,4.1355,4.1801,4.1996,4.2238,4.2541,4.3099,4.3642,4.385,4.4543,4.5175,4.5467,4.5732,4.5897,4.5963,4.5963,4.5914,4.5847,4.5963,4.6576,4.6609,4.6859,4.7391,4.7671,4.7704,4.7588,4.7554,4.7521,4.747,4.7571,4.7604,4.7637,4.7671,4.7671,4.7671,4.7637,4.7554,4.7487,4.7386,4.7319,4.7217,4.7228,4.7598,4.8099,4.868,4.8997,4.9694,5.039,5.0644,5.1113,5.1032,5.0896,5.082,5.0705,5.0589,5.0457,5.0301,5.0184,5.0026,4.9812,4.9573,4.9356,4.9194,4.899,4.8872,4.928,4.9806,5.0522,5.1203,5.184,5.2379,5.2869,5.292,5.2817,5.2713,5.2713,5.2713,5.2574,5.2158,5.1773,5.1588,5.1313,4.3615,4.3615,4.3615,4.3615,4.3615,4.3615,4.3615,4.3615,4.3615,4.3615,4.3598,4.3449,4.3342,4.3174,4.2883,4.2634,4.2445,4.2222,4.2045,4.1899,4.1866,4.1834,4.1785,4.1785,4.1753,4.1621,4.1456,4.1256,4.0969,4.0662,4.0505,4.0539,4.0898,4.1049,4.1303,4.1735,4.2253,4.2623,4.3008,4.352,4.4051,4.4584,4.5364,4.6016,4.6228,4.6344,4.6576,4.6576,4.6626,4.6659,4.6659,4.6841,4.7289,4.729,4.7258,4.7655,4.7621,4.7554,4.7386,4.7352,4.7319,4.7285,4.7285,4.7251,4.7352,4.7386,4.7454,4.7537,4.7436,4.7369,4.7301,4.7217,4.7149,4.7064,4.7385,4.767,4.835,4.9046,4.9673,5.0353,5.0773,5.0941,5.101,5.0874,5.0759,5.0589,5.0457,5.034,5.0246,5.0129,4.9971,4.9812,4.9613,4.9412,4.921,4.9124,4.9099,4.9072,4.9396,4.9997,5.079,5.139,5.194,5.2312,5.2697,5.2669,5.2669,5.2713,5.2713,5.2669,5.2669,5.2407,5.2236,5.219,5.1944,4.3615,4.3615,4.3615,4.3615,4.3615,4.3615,4.3615,4.3615,4.3615,4.3615,4.3568,4.3462,4.3419,4.3312,4.3037,4.279,4.2634,4.2445,4.2286,4.2142,4.2142,4.2158,4.2142,4.2142,4.2045,4.198,4.1785,4.1489,4.1156,4.0799,4.0505,4.0539,4.0898,4.1083,4.1218,4.1975,4.2589,4.3024,4.3784,4.4542,4.4734,4.5287,4.6087,4.6826,4.7057,4.7206,4.7719,4.7951,4.8001,4.7968,4.7934,4.7885,4.777,4.7721,4.7704,4.7588,4.7487,4.7352,4.7217,4.7167,4.7098,4.703,4.6911,4.6961,4.7098,4.7217,4.7285,4.7285,4.7217,4.7183,4.7149,4.7064,4.6996,4.7044,4.7235,4.7848,4.8657,4.9378,5.023,5.0709,5.0763,5.0896,5.082,5.0705,5.055,5.0379,5.0223,5.0129,5.001,4.9916,4.9797,4.9637,4.9477,4.9306,4.9181,4.9099,4.9268,4.9374,4.9758,5.0343,5.1236,5.1682,5.1961,5.2285,5.2518,5.2533,5.2533,5.2533,5.2488,5.2488,5.2488,5.2578,5.2577,5.2456,5.2333,4.3615,4.3615,4.3615,4.3615,4.3615,4.3615,4.3615,4.3615,4.3615,4.3615,4.3598,4.3568,4.3492,4.3388,4.316,4.2945,4.2837,4.2602,4.2539,4.2476,4.2445,4.2413,4.2476,4.2397,4.2333,4.2142,4.1916,4.1637,4.1187,4.078,4.0489,4.0558,4.0929,4.1211,4.1291,4.2229,4.3134,4.3552,4.4756,4.5538,4.5864,4.6207,4.683,4.7422,4.7752,4.7719,4.8001,4.8001,4.8001,4.8001,4.8001,4.7919,4.777,4.7688,4.7571,4.7386,4.7203,4.7069,4.6983,4.6931,4.6961,4.6961,4.6911,4.6911,4.6961,4.6996,4.7046,4.7046,4.703,4.6996,4.6996,4.6961,4.6927,4.6989,4.7184,4.8058,4.8913,4.981,5.0666,5.0783,5.0765,5.0705,5.0612,5.0496,5.0379,5.0223,5.0066,4.9931,4.9876,4.9757,4.9637,4.9517,4.9396,4.9225,4.9135,4.9279,4.9508,5.0035,5.0513,5.1097,5.1682,5.1843,5.2075,5.2138,5.2276,5.2291,5.2261,5.217,5.217,5.2261,5.2261,5.2352,5.2307,5.2215,5.2261,4.3615,4.3615,4.3615,4.3615,4.3615,4.3615,4.3615,4.3615,4.3615,4.3615,4.3615,4.3598,4.3568,4.3449,4.3204,4.3082,4.2945,4.2744,4.2602,4.2602,4.2602,4.2571,4.2602,4.2602,4.2429,4.2238,4.1818,4.1439,4.1102,4.0712,4.0524,4.0636,4.1084,4.157,4.175,4.2845,4.3805,4.4207,4.5716,4.6454,4.6832,4.7144,4.7407,4.7968,4.8001,4.8001,4.8001,4.8001,4.8001,4.7968,4.7902,4.782,4.7572,4.7177,4.6896,4.6729,4.6578,4.6559,4.6538,4.6682,4.6878,4.6911,4.6911,4.6911,4.6911,4.6961,4.6961,4.6961,4.6961,4.6961,4.6961,4.6911,4.6911,4.6975,4.7491,4.8249,4.9139,5.0054,5.0579,5.0695,5.0628,5.0496,5.0379,5.0246,5.0129,5.005,4.9892,4.9812,4.9717,4.9597,4.9493,4.9418,4.9328,4.9398,4.946,4.9643,4.9955,5.0528,5.119,5.1563,5.192,5.2001,5.2139,5.2109,5.2063,5.2078,5.2033,5.1941,5.1987,5.2078,5.2078,5.2033,5.1987,5.1941,5.1972,4.3615,4.3615,4.3615,4.3615,4.3615,4.3615,4.3615,4.3615,4.3615,4.3615,4.3615,4.3615,4.3615,4.3509,4.3281,4.3174,4.2974,4.2728,4.2634,4.2602,4.2602,4.2602,4.2602,4.2602,4.2445,4.2109,4.167,4.1388,4.1117,4.0816,4.0747,4.0851,4.143,4.2174,4.262,4.3506,4.4489,4.5112,4.6103,4.6846,4.7374,4.7787,4.7919,4.7984,4.8001,4.8001,4.8001,4.8001,4.8001,4.7935,4.7803,4.7523,4.7193,4.6683,4.6223,4.6009,4.6038,4.5971,4.6034,4.6536,4.6781,4.6911,4.6911,4.6911,4.6911,4.6911,4.6876,4.6876,4.6876,4.6876,4.6876,4.6876,4.6876,4.7001,4.7661,4.8288,4.9201,5.0121,5.0419,5.055,5.0418,5.0301,5.0129,5.001,4.9931,4.9836,4.9757,4.9637,4.9517,4.9372,4.9266,4.9284,4.93,4.9429,4.9616,5.0063,5.0359,5.0977,5.1579,5.1875,5.2092,5.2018,5.1926,5.1941,5.1895,5.1803,5.1803,5.171,5.1803,5.1895,5.1803,5.1695,5.1695,5.1649,5.1695,4.3615,4.3615,4.3615,4.3615,4.3615,4.3615,4.3615,4.3615,4.3615,4.3615,4.3615,4.3615,4.3598,4.3552,4.3235,4.3113,4.3035,4.2759,4.2634,4.2602,4.2602,4.2602,4.2571,4.2539,4.2413,4.2029,4.1538,4.1218,4.1109,4.1067,4.1183,4.1355,4.2017,4.2643,4.3142,4.4101,4.5093,4.569,4.6493,4.734,4.7456,4.777,4.7968,4.8001,4.8001,4.8001,4.8001,4.8001,4.8001,4.7935,4.7688,4.7177,4.6568,4.6077,4.5635,4.5471,4.5501,4.571,4.5953,4.6504,4.6795,4.6911,4.6911,4.6911,4.6876,4.6876,4.6876,4.6842,4.6842,4.6842,4.6842,4.6807,4.6839,4.7052,4.7545,4.8099,4.8818,4.9675,5.0315,5.0301,5.0168,5.005,4.9971,4.9836,4.9812,4.9717,4.9613,4.9477,4.9372,4.9184,4.9037,4.9156,4.9217,4.9515,4.9712,5.0374,5.0851,5.1484,5.1874,5.1955,5.1942,5.1773,5.1741,5.1695,5.1556,5.1416,5.1416,5.1509,5.1463,5.1463,5.1369,5.1323,5.1354,5.1401,5.1448]}]]